GFSNGP_925_thetae_000.txt.gz
Theta_e
319 317 316 316 316 316 317 318 320 320 318 318 318 317 317 316 316 315 314 314 312 311 309 307 305 304 303 303 304 304 303 302 301 300 297 296 295 293 292 291 290 289 289 289
322 317 316 317 316 316 316 316 317 317 318 317 317 317 316 315 315 315 313 310 309 308 306 305 303 302 300 301 301 303 302 301 301 300 297 296 294 293 292 290 289 289 289 289
326 320 320 325 322 318 317 316 317 320 318 318 317 316 315 315 314 312 309 308 307 305 304 302 300 299 299 299 299 301 301 300 300 297 296 295 295 293 291 290 289 289 289 289
324 321 328 320 317 317 317 316 316 316 317 317 316 314 314 312 310 308 307 306 305 303 301 300 299 298 297 297 297 297 298 299 298 297 296 295 294 293 291 290 289 289 290 288
325 321 319 318 317 317 317 317 316 319 318 316 314 313 312 309 307 306 305 304 302 301 300 299 298 297 296 296 296 297 297 298 297 295 295 294 293 292 291 289 289 290 289 288
320 321 321 320 317 316 316 319 319 317 316 314 312 314 311 308 306 304 302 301 300 299 298 297 296 295 295 295 295 295 296 296 294 294 294 294 293 292 290 290 289 289 288 287
321 320 320 316 316 315 319 321 318 315 314 313 312 311 309 306 304 301 301 300 299 298 297 296 295 295 295 294 294 296 295 295 294 293 293 292 292 290 290 289 289 288 287 286
320 320 320 316 315 319 320 318 316 313 312 311 310 310 306 304 302 301 300 299 298 297 296 295 295 295 294 294 294 295 295 294 294 293 292 291 290 289 289 289 288 287 286 285
321 322 319 316 316 316 315 316 313 312 310 309 309 307 304 302 301 300 299 298 297 296 296 295 295 295 294 294 293 293 293 292 292 291 291 290 289 289 289 288 287 286 284 283
321 318 317 317 316 315 314 313 311 310 309 308 306 304 302 302 301 299 298 297 296 296 295 295 294 294 294 293 293 292 291 291 291 290 290 290 289 289 288 287 286 284 283 281
319 318 317 316 315 314 312 311 311 309 308 305 303 302 301 300 299 298 297 297 296 295 295 295 294 294 293 292 291 291 290 290 289 290 290 289 289 287 287 286 285 283 281 280
321 318 318 316 313 310 311 310 309 308 304 302 302 301 299 298 297 296 295 295 295 294 294 294 294 294 293 291 290 290 289 289 289 289 289 289 288 287 287 286 285 283 282 280
316 316 315 313 311 310 309 307 305 303 302 301 299 298 297 296 295 294 294 294 294 294 294 294 293 293 293 291 290 289 289 288 288 288 289 289 288 286 286 285 285 284 282 281
314 314 313 311 310 309 305 304 302 301 299 297 297 296 295 294 294 294 294 294 294 294 294 293 292 293 292 291 290 289 288 287 287 288 288 287 286 285 285 285 285 284 284 282
311 310 310 309 309 305 303 301 299 298 297 296 295 294 294 294 293 293 293 292 293 292 292 291 291 290 289 290 289 289 289 287 286 285 286 286 285 285 285 285 285 284 284 282
310 309 307 305 303 302 300 298 297 297 296 294 294 294 294 292 291 291 291 291 290 289 290 290 290 289 288 289 289 288 289 287 286 285 285 285 286 285 284 285 284 284 283 282
309 307 305 302 300 298 297 297 297 296 294 293 294 294 292 291 290 291 290 290 289 289 289 290 290 288 287 288 288 288 288 287 286 285 285 286 285 284 285 284 284 284 283 282
306 305 302 298 297 297 298 297 295 294 293 293 293 292 291 290 290 290 290 290 289 289 290 290 290 288 287 287 287 287 286 285 285 286 285 285 285 284 283 284 284 284 283 282
300 298 297 296 296 296 296 295 294 293 292 292 292 292 292 291 290 290 289 288 288 289 290 290 290 288 287 286 286 285 285 285 284 285 285 286 284 284 284 284 284 284 283 282
297 296 295 294 293 292 293 292 292 292 292 293 292 291 291 290 290 289 288 288 288 289 291 290 289 288 286 286 286 285 285 285 284 284 285 285 285 284 284 283 283 284 283 283
294 294 294 294 293 292 292 292 292 292 292 291 291 291 290 289 288 288 289 289 289 290 291 290 289 288 287 287 286 285 284 285 284 284 285 285 285 284 284 283 283 284 284 283
295 294 293 292 292 292 292 292 292 291 290 290 290 290 290 289 289 289 289 289 290 290 289 289 289 288 287 288 286 286 285 285 284 284 284 285 285 285 284 283 283 283 283 282
294 294 294 293 292 292 293 292 292 291 290 291 290 290 290 290 289 289 289 290 289 290 288 288 289 288 288 287 286 284 284 284 283 283 283 284 284 283 283 282 282 282 281 281
295 294 294 294 293 292 291 292 293 294 294 293 292 291 291 290 290 289 288 288 287 289 288 288 289 288 288 287 285 283 284 284 284 284 284 284 284 284 284 282 282 282 281 281
294 294 294 294 292 293 294 295 294 294 294 293 292 291 291 290 289 288 288 287 288 288 288 287 288 288 288 287 284 284 284 284 284 283 283 283 283 283 284 284 282 282 281 281
294 294 294 294 294 294 294 295 294 294 294 292 291 289 289 289 289 289 288 288 288 288 288 288 287 287 287 287 285 284 284 284 284 283 282 282 282 282 282 282 282 282 281 281
294 294 295 295 295 295 294 294 293 293 291 290 289 289 288 288 288 288 288 288 288 287 288 288 288 288 287 287 286 285 285 285 284 283 282 282 281 281 281 281 280 280 280 280

GFSNGP_925_thetae_003.txt.gz
Theta_e
317 316 316 316 316 315 316 315 315 315 319 318 316 315 314 313 313 311 310 308 306 305 304 303 299 298 298 298 297 296 297 299 302 302 300 297 295 293 294 292 290 289 289 289
318 319 317 316 315 315 314 315 315 316 318 316 314 313 313 312 311 309 308 306 305 305 303 300 299 298 297 296 295 295 295 295 296 300 299 297 295 296 294 291 289 289 289 289
318 317 315 314 316 319 317 316 316 315 317 314 313 313 311 309 308 307 306 305 304 303 300 299 298 296 295 295 295 295 294 296 297 298 297 296 295 295 292 291 289 289 289 289
309 309 313 319 316 316 317 316 316 318 315 313 311 310 308 306 305 305 305 304 303 300 298 297 296 295 294 294 294 294 294 295 295 296 294 295 295 293 292 291 290 289 289 288
312 311 312 316 317 316 316 317 317 316 314 312 311 310 308 306 306 305 304 302 300 298 297 296 295 294 294 294 293 293 295 295 294 294 294 294 294 293 292 290 289 289 288 288
306 309 307 312 317 315 316 314 316 314 313 311 309 304 307 306 305 303 301 300 298 297 296 295 294 294 294 294 293 294 294 294 294 294 293 293 292 292 291 289 289 288 287 286
311 304 309 314 315 315 314 312 315 312 311 311 309 304 306 306 303 301 301 299 298 297 295 295 295 295 294 294 293 293 293 293 293 293 293 293 292 289 289 289 288 287 286 284
310 310 311 314 315 312 312 315 312 311 310 310 308 307 308 302 300 300 299 298 297 296 295 295 295 294 294 293 293 292 292 292 291 291 291 290 289 289 289 288 287 286 285 283
311 311 310 314 313 314 313 312 311 310 310 308 308 307 302 300 300 299 298 297 296 295 295 295 294 294 293 293 292 292 291 290 290 290 290 289 290 289 288 287 286 285 283 282
312 316 316 315 315 314 312 311 309 309 309 308 307 302 301 299 297 296 295 294 294 294 294 294 294 293 293 293 292 291 290 290 289 290 289 290 289 288 287 286 286 284 283 282
312 315 315 314 313 312 311 310 310 310 309 308 301 300 297 295 295 294 293 294 294 294 293 293 294 294 293 293 292 291 290 289 289 289 289 289 289 287 287 286 285 285 284 282
311 315 314 313 311 310 310 310 310 310 303 301 297 295 295 294 294 293 293 293 293 293 293 293 293 293 292 293 291 290 290 289 288 289 288 289 288 287 286 285 285 285 285 283
313 314 313 311 311 311 309 306 302 301 299 296 295 294 294 293 293 293 293 292 292 292 292 292 292 292 292 291 291 290 290 289 288 288 289 288 287 286 285 285 285 285 285 283
313 312 312 311 310 309 304 302 301 297 296 294 294 294 294 293 293 292 291 291 291 292 291 289 290 290 290 290 289 290 289 289 288 287 287 287 286 285 285 285 285 285 285 284
310 309 309 310 309 304 301 298 296 295 294 293 293 293 292 293 292 291 291 290 291 290 289 289 289 290 290 288 288 290 289 289 288 286 286 286 286 286 285 285 285 284 284 283
309 309 309 305 302 299 297 295 295 294 293 293 293 292 293 293 291 290 290 290 290 289 289 289 289 289 289 288 288 289 288 288 287 286 286 285 286 286 285 285 285 284 284 284
307 305 303 301 298 296 296 296 295 294 293 292 292 292 293 291 291 290 290 290 289 288 288 288 289 289 289 288 288 288 288 286 285 286 285 285 286 285 285 284 284 284 284 284
305 302 299 297 296 295 295 295 295 294 293 292 292 292 291 291 290 290 290 288 288 288 287 289 290 290 290 288 287 288 287 286 286 285 284 285 286 286 284 284 285 285 285 283
297 297 296 295 295 294 293 293 294 293 292 292 292 292 292 291 290 290 288 288 288 288 288 289 290 290 289 288 287 287 286 285 285 285 284 285 286 286 284 284 284 284 284 284
295 294 293 292 292 292 292 292 292 292 292 292 291 291 291 290 289 289 288 288 288 289 289 289 290 290 289 288 286 286 285 285 285 284 284 285 285 286 285 284 284 284 284 285
293 294 293 293 293 292 292 291 292 292 292 291 289 288 290 291 290 289 289 289 289 288 289 289 289 288 288 288 286 287 286 285 284 284 284 285 285 285 285 284 284 284 284 284
294 294 293 293 292 292 292 292 292 290 289 289 289 289 288 289 290 290 289 289 289 289 288 288 289 288 288 288 288 288 287 286 285 285 284 284 284 284 285 285 283 283 283 283
294 294 294 294 293 292 291 291 291 290 289 290 290 290 289 289 290 289 289 289 288 288 288 287 289 288 289 289 287 286 286 286 285 285 284 283 283 284 284 283 283 282 282 282
295 295 294 294 294 291 290 292 293 293 293 293 291 292 291 290 290 290 290 289 288 288 287 287 288 288 288 289 288 287 286 285 284 284 284 284 284 284 284 284 283 283 282 282
293 293 293 294 293 292 293 294 294 294 294 293 293 292 290 289 289 288 288 288 288 288 288 287 287 288 288 287 288 288 287 286 284 284 284 284 284 283 283 283 284 284 283 282
294 294 294 294 294 294 294 294 294 294 294 293 291 289 289 288 288 287 287 287 287 288 288 287 287 287 288 287 287 286 286 286 285 285 284 284 283 283 282 282 282 282 282 282
294 295 295 294 293 293 294 294 292 291 291 289 288 288 289 288 287 287 287 287 287 287 287 288 287 287 287 287 287 287 287 286 286 285 285 285 284 283 282 281 281 281 281 281

GFSNGP_925_thetae_006.txt.gz
Theta_e
315 315 315 315 315 314 315 315 315 314 316 318 314 313 312 311 309 308 306 305 304 303 301 298 298 296 295 295 294 294 294 294 295 296 297 297 298 297 295 293 293 292 288 289
316 317 317 315 314 314 313 314 314 317 317 313 311 311 310 309 307 307 306 305 304 303 299 298 296 295 294 294 294 294 293 294 294 295 296 296 296 295 295 294 290 290 290 289
313 312 312 310 314 317 316 315 315 313 315 312 312 311 308 306 306 305 305 304 302 301 298 296 295 294 294 294 294 293 293 294 294 294 295 294 295 295 295 293 292 290 288 289
305 303 307 316 314 315 318 317 315 314 312 310 310 308 305 304 304 304 303 303 301 297 296 295 295 294 294 294 293 293 294 294 294 294 293 293 294 293 292 292 291 289 288 288
304 307 306 312 315 315 314 318 315 314 312 310 308 306 306 304 303 303 303 300 299 297 296 295 294 294 294 294 293 293 293 294 293 293 293 293 293 293 292 292 288 288 287 286
308 302 302 308 315 314 313 313 314 312 311 310 307 303 305 305 305 303 300 299 298 296 295 294 295 294 294 293 293 293 293 293 292 292 292 292 292 292 291 288 288 287 285 284
304 300 306 307 311 313 313 311 313 311 309 308 307 303 304 306 304 300 299 298 296 295 295 295 294 294 293 293 293 293 292 292 291 291 291 290 290 289 288 288 287 285 284 282
303 303 310 309 313 312 310 312 311 309 308 308 306 306 306 304 300 297 295 295 294 294 294 294 294 293 293 293 293 292 292 291 290 290 289 289 289 289 289 287 286 285 283 282
311 311 308 309 311 312 311 311 310 308 307 307 306 306 301 298 295 294 293 293 293 293 293 293 293 292 293 293 292 292 291 290 289 289 289 289 289 288 287 286 285 284 283 282
312 314 312 312 314 312 311 310 308 307 307 307 307 301 296 294 293 292 293 293 293 293 292 292 292 293 293 292 292 291 291 290 289 288 289 289 288 286 286 285 285 285 283 283
310 312 314 314 313 311 310 308 308 308 307 307 298 295 294 293 292 293 292 292 292 292 292 291 292 292 291 292 291 291 290 290 289 288 288 288 286 286 286 285 285 285 284 283
312 311 312 311 310 309 309 309 309 308 298 296 295 293 293 292 293 292 292 291 290 291 291 291 291 289 289 290 291 290 289 289 289 288 288 288 287 286 285 285 285 285 284 284
312 312 312 311 309 309 308 308 303 299 296 294 293 293 293 292 292 292 291 290 290 290 290 291 289 289 289 290 289 289 289 290 289 288 288 287 286 285 285 285 285 285 285 284
312 311 312 310 310 309 302 299 296 295 294 293 293 293 292 292 292 292 291 290 290 290 290 289 289 288 289 289 289 288 289 289 289 288 286 286 286 285 285 285 284 284 284 284
312 310 309 308 305 302 297 296 295 294 293 292 292 292 291 291 292 292 291 290 290 289 288 287 287 287 289 289 288 288 288 289 288 287 286 285 285 285 285 285 284 284 284 283
308 307 308 307 300 298 296 295 294 293 292 292 291 291 291 292 292 291 290 290 289 287 287 287 287 288 289 289 288 288 288 287 287 286 286 285 285 286 285 285 284 284 284 284
306 305 302 300 297 296 296 295 294 293 293 292 291 291 292 292 291 290 290 289 288 287 287 287 287 289 289 290 289 287 287 287 286 286 285 285 285 285 285 284 283 284 284 284
301 299 298 297 296 296 294 293 294 293 292 292 292 291 291 291 289 290 290 288 288 287 287 288 288 289 289 289 289 287 287 286 286 285 285 284 284 284 286 284 284 284 284 284
297 296 295 294 293 292 291 291 291 292 292 292 291 291 291 290 290 290 289 288 288 288 288 288 288 289 289 289 289 288 287 287 286 285 285 284 284 284 285 285 284 284 284 284
294 293 292 291 291 291 291 291 291 291 291 291 291 290 289 290 290 290 290 289 289 289 288 288 288 286 288 288 287 288 287 286 285 284 285 284 284 284 285 285 284 283 284 284
292 292 292 292 292 291 291 291 291 291 291 290 287 287 287 289 290 290 289 287 289 289 288 287 287 286 287 288 287 288 287 286 286 285 284 284 284 284 284 284 284 284 283 283
293 293 293 293 292 292 292 292 291 289 288 288 288 288 288 288 288 289 289 289 289 289 288 288 287 287 287 288 288 288 287 287 287 287 285 285 284 283 283 284 284 284 283 282
293 294 294 294 293 293 292 292 292 291 291 290 290 291 289 289 288 287 288 288 289 289 288 288 288 287 287 288 287 288 288 287 286 286 285 285 285 284 283 283 283 283 283 282
295 293 293 293 293 292 292 293 293 293 293 293 293 291 289 289 289 288 288 287 287 287 287 287 287 287 287 287 287 287 287 288 287 287 286 286 284 284 284 283 283 283 283 283
293 293 293 293 292 292 293 293 292 293 292 292 292 291 291 290 288 288 287 287 287 286 286 287 287 287 287 286 287 286 287 287 286 286 285 285 285 284 284 284 284 284 283 284
293 293 293 293 293 293 293 293 292 292 291 290 290 290 290 289 288 288 287 287 287 286 285 286 285 286 286 286 286 286 286 286 286 285 285 285 284 284 284 284 283 282 282 282
293 293 293 293 292 292 293 293 290 290 291 291 290 290 289 289 288 287 287 286 285 285 284 284 284 284 283 284 285 285 285 285 285 285 285 285 285 284 284 284 284 283 282 281

GFSNGP_925_thetae_012.txt.gz
Theta_e
314 313 313 313 313 315 314 312 313 312 310 310 312 311 309 307 305 304 304 302 301 300 298 297 297 296 295 295 294 294 293 293 293 293 293 292 292 292 293 293 294 294 293 291
317 313 311 314 311 311 312 312 312 313 312 310 310 308 308 307 305 305 304 303 302 301 299 297 297 296 295 294 294 293 293 293 293 293 293 292 292 292 292 294 293 292 291 290
304 307 306 306 308 309 310 309 310 313 311 310 311 310 309 306 305 304 303 303 302 301 301 298 297 296 295 294 293 293 293 293 293 293 292 292 292 292 292 292 292 292 292 289
303 301 303 308 308 310 312 313 311 312 311 310 311 308 307 305 304 303 302 302 301 301 301 298 296 295 294 293 293 292 293 293 292 292 292 291 291 291 290 290 292 291 289 286
303 303 304 307 312 313 313 312 312 311 310 309 306 306 307 304 302 302 301 301 301 300 298 296 295 294 293 293 292 293 293 292 292 292 291 290 290 290 289 290 289 287 286 286
298 300 301 305 308 311 311 313 311 309 308 308 306 306 311 303 301 301 302 301 298 296 294 293 293 293 293 292 291 291 292 292 292 292 291 290 289 289 288 287 287 287 286 285
299 297 303 303 310 310 314 311 310 309 308 305 307 307 304 302 301 302 299 295 294 293 293 293 293 292 291 291 292 292 292 292 291 291 290 289 288 288 288 287 287 286 284 283
300 299 306 305 311 312 310 307 309 308 306 307 305 302 303 303 297 293 292 293 293 293 292 292 291 290 291 291 291 290 290 290 290 290 289 289 288 288 287 287 286 284 284 283
305 306 305 305 308 308 307 308 309 308 306 307 304 304 304 297 293 291 292 292 292 292 291 290 290 290 291 290 289 289 289 289 289 289 289 288 287 287 286 285 285 285 284 283
308 309 307 306 306 308 308 308 308 306 306 305 305 304 298 293 291 291 291 291 291 290 289 290 289 290 290 289 288 288 289 289 289 288 289 288 287 286 285 285 285 285 284 283
307 308 308 308 308 308 308 308 308 307 306 305 303 298 295 293 292 291 291 291 290 289 289 289 289 289 289 288 288 288 288 288 287 287 288 288 286 286 286 286 285 284 284 284
308 307 308 307 308 309 309 309 307 306 304 301 299 295 293 292 292 292 291 290 289 289 289 289 289 288 287 287 288 288 288 288 287 286 287 287 287 286 286 285 284 284 284 284
309 307 306 306 309 308 309 308 306 302 298 295 294 293 293 291 293 291 290 290 289 289 289 289 288 287 286 287 287 288 288 288 287 287 287 287 287 286 285 285 284 284 284 284
308 309 310 309 310 308 307 303 297 295 294 293 292 292 292 292 291 291 290 290 290 289 289 288 287 286 286 287 287 288 288 288 288 288 288 287 287 286 286 285 285 284 284 284
308 307 308 306 298 295 295 294 294 294 294 293 294 294 292 290 290 290 290 290 290 290 289 287 287 286 287 287 287 288 288 288 288 287 287 286 286 285 285 284 285 284 284 283
307 306 301 296 295 295 295 295 295 293 292 294 294 291 290 290 290 290 290 290 290 289 288 288 287 288 287 287 287 288 288 288 288 287 287 286 285 286 285 285 285 284 284 283
306 298 296 297 297 297 296 295 294 293 295 294 292 290 290 290 290 290 290 290 290 289 288 288 288 288 287 287 287 287 287 288 288 287 286 286 286 285 284 284 284 284 284 283
297 297 297 296 296 295 294 295 294 294 292 291 290 290 290 289 289 290 290 290 290 289 289 290 288 288 287 286 286 286 286 287 287 286 286 286 286 285 284 283 283 283 284 283
297 297 297 297 296 296 294 292 291 290 290 290 290 289 289 289 289 289 288 289 289 288 290 289 288 288 287 287 286 286 286 286 286 286 284 285 286 285 284 284 283 283 284 284
296 296 293 291 290 290 290 290 290 290 289 289 289 288 288 289 287 287 286 286 289 289 288 288 288 288 288 288 287 287 286 286 286 286 285 285 285 284 284 284 283 283 283 284
290 290 290 291 291 291 291 291 291 290 290 289 289 288 286 287 286 286 286 286 287 289 287 287 286 286 286 286 287 286 286 286 286 286 286 286 285 285 285 285 284 283 283 283
291 291 291 292 292 292 292 292 292 291 291 290 289 289 288 287 288 288 288 288 288 288 287 286 286 286 286 286 286 286 286 286 286 286 285 285 285 285 285 285 285 284 284 284
292 293 292 292 291 291 291 291 291 290 291 291 292 291 290 290 288 287 288 289 288 288 287 287 286 286 285 284 285 285 285 285 285 285 285 285 285 284 284 284 284 284 283 284
291 291 291 290 290 291 289 290 291 291 291 291 292 292 291 290 289 288 288 289 289 288 288 287 286 285 284 283 283 284 283 285 285 284 284 284 284 284 284 284 283 283 283 283
291 290 290 290 288 287 287 287 287 288 289 289 289 290 289 289 287 288 288 288 288 287 287 286 285 283 282 281 280 280 280 279 278 279 278 279 279 281 283 283 283 283 283 283
288 287 286 286 285 284 283 284 284 285 286 286 286 286 286 286 286 286 286 286 286 287 285 284 282 281 279 278 277 276 276 276 276 276 275 275 275 275 275 276 278 283 283 283
284 284 283 283 282 282 281 281 282 283 283 284 285 286 285 285 285 286 286 285 284 283 282 280 279 277 276 275 275 274 274 274 273 273 273 273 273 273 273 273 273 275 279 283

GFSNGP_925_thetae_015.txt.gz
Theta_e
314 313 314 313 315 314 314 314 320 316 314 313 315 316 313 311 310 309 307 306 305 304 300 298 297 300 302 298 294 294 294 293 293 293 293 292 292 292 292 292 293 294 292 292
316 313 312 315 313 312 314 314 313 313 315 312 312 311 311 311 309 309 307 306 305 303 301 297 298 299 299 295 294 293 293 293 293 292 292 292 292 291 292 292 292 292 291 291
312 308 308 313 312 313 312 312 315 317 316 313 313 312 313 311 309 308 308 306 305 304 302 300 299 299 296 294 293 293 293 292 292 292 292 292 292 291 291 291 290 291 291 291
313 306 314 312 311 310 312 311 311 312 312 313 313 311 310 310 309 308 307 306 304 303 302 301 299 297 295 293 293 293 292 292 292 292 292 292 291 291 290 289 290 291 290 287
316 311 308 309 308 313 315 314 313 313 312 311 309 310 312 309 308 308 307 305 302 301 300 297 295 294 293 293 293 292 291 291 291 291 291 291 291 290 289 289 288 287 287 286
307 311 312 310 306 312 312 318 312 313 312 311 311 318 316 309 307 305 304 302 300 296 294 293 292 293 293 292 291 291 291 291 291 291 290 290 290 289 288 288 287 286 286 285
303 314 310 306 309 310 316 316 310 312 311 310 314 316 309 306 305 304 301 296 295 293 293 292 292 292 291 290 291 291 290 289 289 290 289 289 289 288 288 287 286 286 285 284
303 309 314 305 312 316 315 309 310 311 310 311 311 306 305 304 301 297 294 293 292 292 292 292 291 290 290 290 290 289 288 289 289 289 289 288 288 288 287 286 286 285 284 283
310 313 308 306 312 309 308 310 311 311 310 310 308 306 305 301 296 294 292 292 292 292 291 290 290 289 290 290 289 288 288 289 289 289 288 288 288 288 287 285 285 285 284 285
310 310 307 307 308 307 308 311 310 310 310 308 309 306 303 296 294 293 292 292 291 290 290 290 289 289 289 289 288 288 288 288 289 288 287 288 288 286 286 285 285 285 286 285
310 310 309 309 309 311 310 309 309 309 309 308 308 305 299 295 292 291 291 292 290 290 289 289 289 289 289 288 287 287 288 288 287 287 286 287 288 286 285 285 286 285 285 284
316 312 311 311 308 308 310 311 311 310 307 305 303 299 294 293 292 292 293 290 289 289 289 289 289 288 287 287 287 287 287 288 288 288 287 287 287 287 286 286 285 284 284 284
311 308 308 308 307 309 310 310 308 307 302 298 295 294 293 293 295 297 291 290 289 289 289 289 289 287 287 287 287 287 287 288 288 288 288 287 287 287 287 286 286 285 284 284
308 309 311 310 311 305 301 296 295 294 294 294 294 295 296 295 293 290 290 290 290 289 289 289 288 287 287 287 287 287 287 288 288 288 287 287 287 287 286 286 285 285 285 284
307 308 307 298 297 296 295 296 296 296 296 296 296 297 297 293 290 290 290 290 290 289 289 288 287 288 287 287 287 287 287 287 287 288 287 287 286 286 285 285 284 284 284 284
300 297 297 296 296 296 297 297 296 295 295 295 295 294 293 290 290 290 290 290 289 289 289 288 288 288 288 287 287 287 287 287 286 287 287 286 286 285 285 285 285 284 284 284
300 298 297 298 298 297 297 296 296 297 296 296 295 293 290 289 290 290 290 290 289 289 289 289 289 289 288 287 286 286 286 286 286 287 286 286 286 285 285 285 284 284 284 284
298 297 297 297 296 296 296 296 295 294 293 291 290 289 289 288 289 289 289 288 288 289 290 290 289 288 288 287 287 286 286 286 286 286 286 286 285 285 286 285 284 284 283 283
297 297 297 296 296 296 294 292 290 290 289 289 289 289 289 288 288 287 287 287 287 287 290 290 288 288 288 288 288 287 286 286 286 286 286 285 284 285 285 284 284 283 283 283
295 294 293 291 290 290 290 290 290 289 289 289 289 288 288 289 288 287 286 285 287 288 289 288 287 287 286 286 286 286 286 286 286 286 286 285 284 283 283 284 284 283 283 283
290 290 290 291 291 291 290 290 290 290 290 290 289 289 289 290 288 287 286 287 289 289 288 288 287 286 286 286 286 285 285 286 286 286 286 285 284 283 283 284 284 284 283 283
291 291 290 290 290 290 290 290 290 290 290 290 290 290 288 288 288 287 286 287 289 288 288 288 287 287 286 286 284 284 284 285 285 285 285 285 285 285 285 284 284 284 284 284
291 291 290 290 289 289 289 289 288 288 288 288 288 287 286 286 286 286 288 288 288 288 287 288 288 287 286 285 283 283 284 284 283 284 284 284 284 283 284 284 284 284 284 284
290 289 288 288 287 286 285 285 284 284 284 285 285 285 285 285 285 286 286 286 287 287 287 287 286 286 285 284 283 281 280 279 278 278 278 278 277 277 278 280 281 282 283 283
287 286 285 284 284 283 283 282 282 283 283 283 283 284 285 285 285 284 284 285 285 285 285 285 285 284 283 281 280 278 276 275 275 274 274 274 273 273 273 273 274 275 275 277
284 284 283 282 281 280 279 278 279 280 280 280 281 281 282 282 283 284 284 285 285 285 284 282 280 279 278 277 276 275 274 273 273 272 272 271 271 271 272 272 272 272 272 273
281 279 279 279 277 276 274 274 275 276 276 276 276 276 277 280 280 280 281 282 285 282 279 276 276 275 273 273 272 272 271 271 270 270 269 269 269 270 270 271 271 272 273 272

GFSNGP_925_thetae_018.txt.gz
Theta_e
318 318 317 318 320 320 319 319 319 316 316 314 316 317 318 319 319 318 317 315 313 312 308 304 301 300 303 303 302 298 297 297 297 296 296 295 295 294 294 293 293 293 293 293
320 318 317 318 318 318 319 319 318 318 318 317 317 317 318 318 318 317 316 314 312 311 309 305 303 301 303 303 299 298 297 297 296 296 295 295 294 294 293 292 292 293 293 293
319 315 316 321 318 317 317 318 319 319 318 317 317 317 317 318 317 316 315 314 312 311 309 306 302 303 302 301 298 297 296 296 295 295 294 294 293 293 293 292 292 292 292 293
321 313 329 315 314 314 316 316 316 316 316 316 316 317 317 316 317 316 314 313 313 311 307 305 303 302 301 298 296 296 295 295 294 293 293 293 293 293 293 292 292 292 291 291
328 318 315 312 311 312 316 315 316 316 315 315 316 316 318 315 315 316 314 313 312 309 306 303 301 299 297 296 295 295 294 293 292 293 292 292 292 292 292 292 291 291 290 290
317 333 333 315 312 315 316 317 314 316 317 317 316 322 315 317 315 314 313 312 309 305 301 299 297 296 296 296 294 293 293 292 292 291 292 292 292 292 292 291 290 289 289 289
319 327 318 313 311 315 316 315 316 316 317 317 319 318 316 314 315 313 312 309 305 300 299 297 296 295 295 293 292 292 291 291 291 291 291 291 291 292 291 291 289 289 289 288
315 326 325 310 315 320 318 317 315 316 317 318 318 316 313 312 313 312 309 303 300 298 296 294 293 293 293 292 292 291 291 291 291 291 291 290 291 291 291 290 289 289 288 288
317 318 313 312 316 316 315 316 316 316 315 316 316 315 312 310 308 305 301 299 296 294 293 293 292 292 292 292 291 291 291 291 291 291 290 290 291 291 291 290 289 289 288 288
316 315 314 313 312 312 312 314 314 314 314 314 315 315 312 308 304 300 298 295 293 294 295 293 291 291 291 291 291 290 290 291 291 290 289 288 289 290 290 290 289 288 288 288
316 315 314 314 314 313 313 314 315 314 314 315 314 314 311 305 301 297 292 294 297 294 292 292 291 291 291 290 289 290 290 290 290 289 289 288 288 288 290 289 288 288 288 287
319 315 315 315 313 313 314 315 314 314 315 311 311 311 307 300 294 296 297 297 292 291 291 291 291 291 290 289 288 289 290 290 290 289 290 289 289 289 289 287 287 286 285 285
314 313 314 314 314 312 312 308 306 307 305 302 299 298 296 297 296 297 296 293 291 291 291 290 290 290 289 288 288 288 289 289 289 289 289 289 289 289 289 289 287 286 286 285
312 314 316 308 308 304 302 301 300 299 298 298 297 297 296 294 294 294 293 292 291 291 290 290 290 289 289 288 288 289 288 288 289 289 289 289 289 289 289 288 288 288 287 286
305 308 306 303 302 302 301 300 299 298 297 296 295 295 294 294 294 293 292 291 290 290 291 290 290 290 290 289 289 289 289 289 289 288 287 287 288 288 288 288 287 287 286 286
303 303 302 302 301 299 298 297 297 296 296 296 296 296 296 294 292 292 291 291 290 291 291 291 289 289 289 289 289 289 289 288 287 287 287 287 287 288 288 288 288 287 286 286
303 301 301 299 298 298 297 297 296 296 298 298 297 295 294 291 290 291 291 290 289 290 290 290 289 289 289 289 289 289 289 288 288 287 287 287 288 287 287 287 288 287 287 286
300 299 298 298 298 297 297 298 297 295 294 291 290 289 289 289 290 290 290 289 289 288 289 289 289 289 288 289 289 289 288 288 288 288 287 286 286 287 287 287 287 287 287 286
298 298 297 297 297 295 292 292 290 290 289 289 289 289 289 289 289 288 288 287 287 287 290 289 289 288 288 288 287 287 287 287 287 287 287 286 286 286 286 286 287 287 287 286
296 294 293 292 291 291 292 290 290 291 291 289 289 290 290 290 289 289 288 287 289 290 290 289 288 288 288 287 287 287 287 286 285 286 286 287 287 286 286 286 286 286 286 286
294 292 292 290 290 290 289 289 289 289 290 289 288 288 288 288 288 288 289 290 291 291 289 288 287 288 289 288 287 287 286 285 285 285 286 286 286 286 286 285 285 285 286 285
294 292 290 290 291 290 288 287 287 287 287 286 286 286 286 287 286 287 288 288 289 289 288 289 288 289 288 287 286 286 285 285 285 285 286 286 286 286 285 285 285 285 285 285
292 291 290 289 289 288 287 285 284 285 285 285 285 285 285 285 285 285 286 286 286 286 285 286 287 286 286 286 286 285 285 284 283 283 282 282 282 282 282 282 282 282 283 283
291 289 288 286 285 285 285 284 283 284 283 284 284 283 284 284 284 285 285 284 284 285 285 285 285 285 285 285 285 283 281 280 279 278 278 277 278 278 278 278 278 278 279 279
287 286 285 285 285 284 282 281 282 282 281 281 281 281 280 280 280 281 281 281 281 282 283 285 284 283 280 279 278 277 277 277 275 274 275 275 274 275 275 275 275 275 274 275
286 285 284 282 281 280 279 279 279 279 278 279 278 278 278 278 278 278 279 278 279 277 276 275 274 274 274 273 273 272 273 273 272 272 271 272 271 272 272 271 271 272 272 273
281 280 281 281 279 277 276 276 277 277 277 276 275 276 276 276 276 275 274 274 274 273 273 272 271 270 270 270 270 270 270 269 268 268 268 268 268 268 269 268 269 269 270 271

GFSNGP_925_thetae_021.txt.gz
Theta_e
322 322 321 321 320 321 321 320 323 320 317 316 316 317 317 318 320 320 323 323 322 320 317 315 313 309 306 306 306 303 301 300 299 299 299 299 297 297 296 295 295 294 294 294
324 322 321 320 319 318 318 319 318 318 318 317 318 317 318 317 319 319 321 321 321 319 316 314 311 308 305 307 305 304 301 300 299 299 298 298 296 296 295 295 294 294 294 293
319 318 320 323 322 320 318 318 319 320 319 317 318 318 317 317 318 319 319 319 319 318 315 313 310 307 305 306 304 302 300 299 299 298 297 296 295 294 294 294 294 294 293 293
321 318 326 315 316 315 316 317 317 317 317 316 316 318 318 318 318 318 318 318 318 316 314 313 311 306 306 304 303 300 299 298 298 297 295 294 294 294 294 294 294 293 293 292
329 319 317 316 314 314 316 316 316 316 315 316 317 318 318 318 317 317 317 317 316 315 314 313 309 306 304 303 300 299 298 297 295 294 294 293 293 293 293 294 294 293 292 292
320 330 329 319 315 316 317 316 315 314 315 315 317 319 316 317 316 316 316 316 315 315 314 311 307 304 301 300 300 298 296 295 293 293 293 293 293 293 293 293 293 292 291 291
323 327 322 316 314 316 316 320 317 316 316 317 317 317 319 317 315 316 315 315 315 313 310 307 301 299 299 297 297 295 293 293 292 292 293 293 292 292 293 293 293 292 291 290
324 326 326 313 316 318 321 317 316 317 316 318 319 318 317 317 315 316 315 314 311 307 304 299 297 298 298 296 294 293 292 292 292 292 293 292 292 292 293 293 292 292 291 290
320 321 317 315 315 315 316 316 316 316 315 316 317 317 316 316 314 314 313 308 305 301 296 296 296 294 294 293 293 292 292 292 292 292 292 292 291 291 292 292 292 291 291 290
318 316 315 315 315 314 315 315 315 316 316 316 316 317 317 316 311 309 305 300 298 298 297 294 293 292 293 293 292 292 292 292 292 292 291 291 290 290 290 291 292 291 290 290
318 316 315 315 316 315 316 316 316 317 317 317 316 316 316 314 307 303 298 298 296 294 293 293 293 292 292 291 291 291 291 291 291 291 291 291 291 290 289 290 291 290 290 290
320 318 318 317 317 316 317 316 314 315 316 310 312 313 310 302 298 298 296 293 292 293 293 293 292 292 292 291 290 290 291 291 291 291 291 291 290 290 289 289 289 288 288 287
318 317 317 317 312 310 309 308 307 306 305 303 302 300 300 299 296 296 294 293 293 293 293 292 292 292 291 290 290 289 290 290 290 290 291 290 290 290 290 290 289 289 287 287
312 315 317 311 310 308 307 305 302 301 299 298 297 297 297 296 295 295 294 294 293 293 293 292 292 292 291 290 290 290 290 290 290 291 290 289 289 289 290 290 290 289 289 288
309 309 309 307 307 305 303 300 300 299 298 297 296 296 296 296 296 295 295 294 292 292 292 292 292 292 291 291 291 291 291 291 290 289 289 288 287 287 287 289 289 289 288 288
307 307 307 305 302 301 300 299 298 297 297 297 298 298 297 296 295 294 293 293 293 293 293 292 292 292 291 291 291 292 292 291 290 289 288 289 288 288 289 289 289 288 289 288
306 305 302 301 300 300 299 299 299 300 299 296 294 292 291 291 292 293 293 293 292 290 290 290 290 291 291 291 291 292 292 291 290 289 289 289 289 288 288 288 288 288 288 288
303 301 301 300 300 299 299 297 294 293 292 291 290 290 290 290 291 291 291 290 289 289 290 290 290 290 291 291 291 291 291 290 289 289 289 289 289 288 287 287 287 288 288 288
300 299 299 298 297 294 294 293 291 292 290 290 290 290 290 291 290 290 289 289 289 291 293 292 291 290 289 290 290 290 289 289 289 288 288 287 287 287 287 288 288 288 288 288
297 295 294 293 292 293 292 290 292 293 292 289 289 290 290 289 289 289 289 289 290 291 291 291 290 289 289 289 289 289 289 288 288 287 286 286 286 287 287 287 287 287 286 286
295 294 293 292 290 290 290 289 289 289 289 287 287 287 286 286 286 286 287 287 287 288 287 287 288 288 289 289 289 289 289 288 287 286 286 286 286 287 287 286 286 286 286 286
295 293 292 292 291 290 288 287 287 286 286 286 286 285 285 286 286 286 286 286 286 285 284 285 286 286 285 285 286 286 286 287 287 286 286 285 285 284 284 284 284 284 284 284
294 293 291 289 290 289 287 285 285 285 285 284 285 284 284 284 284 284 285 284 283 282 281 282 283 283 284 285 286 286 286 286 286 284 283 282 281 281 281 281 281 281 281 281
293 291 289 288 287 286 286 285 284 284 283 283 283 282 281 281 281 281 281 280 280 279 280 278 277 277 279 280 281 281 281 281 280 279 279 278 279 278 278 278 278 278 278 277
289 288 287 287 287 286 284 283 283 283 282 282 281 280 280 280 279 279 278 277 277 276 276 276 275 274 275 276 276 275 276 276 275 275 275 275 275 275 275 275 275 275 274 275
290 289 286 284 283 283 282 281 281 281 280 280 279 279 279 278 277 276 276 276 275 275 274 274 273 272 272 272 272 272 272 272 271 271 271 272 272 272 272 272 272 272 272 272
284 284 285 284 281 280 279 279 279 279 279 277 277 278 277 276 276 275 275 274 274 273 273 272 272 271 270 270 270 270 269 269 268 268 268 269 269 269 269 268 269 269 269 270

GFSNGP_925_thetae_024.txt.gz
Theta_e
321 321 322 323 322 321 320 322 324 324 320 319 318 318 318 319 320 320 320 323 323 324 321 319 317 316 312 309 308 306 305 302 301 301 300 300 299 299 297 297 296 295 295 294
327 323 323 322 321 320 319 318 319 319 319 318 318 319 318 318 317 318 319 319 321 323 322 319 317 316 312 309 307 308 305 303 301 300 300 299 298 297 296 296 295 295 294 294
325 320 320 321 322 320 318 319 319 320 321 319 318 317 318 318 318 318 318 318 319 321 321 319 317 315 311 308 307 307 304 301 301 299 299 298 296 295 295 295 295 295 295 294
330 319 324 316 317 316 316 316 316 315 317 316 319 318 317 316 318 318 318 318 318 319 319 318 316 313 310 307 306 305 301 300 299 299 297 295 294 294 294 294 294 294 294 293
331 324 319 317 316 316 316 316 316 316 315 315 316 316 318 318 318 317 316 316 316 316 317 316 315 313 308 306 304 301 300 299 298 295 294 294 293 293 293 293 293 294 293 293
325 331 330 322 316 316 316 320 316 316 317 316 316 324 320 318 317 316 315 315 315 315 316 315 312 308 304 302 300 299 297 295 295 293 293 293 293 293 293 293 294 293 293 291
327 329 327 318 316 316 319 325 318 317 317 318 319 320 319 318 317 315 315 315 316 313 308 301 300 301 298 297 296 295 295 293 293 293 293 293 293 293 293 293 293 293 292 291
330 327 326 315 316 320 323 319 318 317 317 318 319 319 318 317 316 315 314 313 307 300 299 298 298 297 296 295 295 294 293 293 293 292 292 293 293 292 292 292 293 293 292 291
325 327 320 316 316 315 317 317 317 317 317 317 318 317 317 317 316 313 309 300 299 298 297 296 295 295 294 294 294 293 293 292 292 292 292 292 291 291 290 290 291 292 292 291
322 316 316 316 315 315 316 317 316 317 318 318 319 318 317 316 312 307 300 299 299 297 295 294 293 293 293 293 293 292 292 292 292 292 292 291 291 291 291 290 290 291 292 291
320 318 317 317 318 318 317 317 317 317 315 313 314 315 311 304 301 300 298 296 295 294 294 294 294 293 293 293 292 292 291 291 291 291 291 292 291 291 291 290 289 289 290 290
327 319 320 319 315 315 313 312 311 310 307 305 304 303 301 301 298 295 294 294 295 294 294 294 293 293 293 292 291 291 291 291 291 290 291 291 291 291 290 290 289 289 289 289
319 317 318 314 311 309 308 308 306 306 304 302 300 299 299 297 296 295 295 295 295 294 294 294 293 292 292 292 291 290 290 290 291 291 291 291 290 290 290 290 290 290 290 289
313 315 314 313 310 308 305 303 301 300 299 299 299 298 297 297 297 297 297 296 295 294 294 294 293 293 293 292 291 291 291 291 291 291 291 290 290 289 288 287 287 288 289 289
311 311 310 308 306 304 302 301 300 299 298 297 297 297 297 297 296 296 295 295 294 293 293 293 293 293 293 292 292 292 291 291 291 291 290 290 289 288 288 288 288 288 289 289
309 308 306 304 303 302 301 299 299 299 299 297 296 294 295 294 294 293 293 293 293 293 292 291 290 290 291 292 292 292 292 292 292 291 291 290 289 289 289 289 288 288 289 289
307 304 303 302 301 301 300 299 297 295 294 293 292 290 291 291 293 292 292 291 290 290 290 290 291 291 291 291 292 292 292 292 292 291 290 290 289 289 289 289 289 288 288 288
305 302 302 301 300 299 296 294 293 292 291 290 290 290 290 289 289 290 289 289 289 289 292 292 291 291 290 290 290 290 291 291 291 291 290 290 289 289 288 287 287 288 287 287
301 300 299 297 296 295 294 293 291 291 290 289 289 288 288 288 287 287 286 287 288 290 289 288 287 287 288 289 289 288 288 288 289 289 289 289 288 287 287 287 287 288 288 288
297 296 295 294 293 292 291 290 293 292 289 287 287 286 286 286 286 286 287 287 287 287 285 285 284 285 286 287 286 285 285 287 287 289 289 288 287 287 287 286 287 288 287 287
295 293 292 290 289 289 288 288 287 287 287 286 286 286 285 286 286 286 286 286 285 283 282 281 282 281 280 280 281 283 285 286 286 286 287 288 287 286 286 285 285 284 285 284
294 292 291 290 289 288 287 287 286 286 285 285 285 284 284 284 284 284 283 283 281 280 279 281 278 277 276 278 281 281 282 284 285 285 286 286 285 283 282 282 282 282 281 281
293 291 290 290 290 288 285 285 285 284 283 284 282 281 282 281 282 282 282 280 278 277 277 277 275 274 275 276 276 277 277 278 277 277 278 279 279 279 279 279 278 278 278 278
292 291 290 288 287 287 287 285 285 284 283 283 282 281 280 281 280 280 278 277 277 276 275 275 274 273 273 273 273 273 274 274 273 273 273 274 275 275 274 275 275 274 274 274
290 289 288 288 288 287 285 284 284 283 282 282 281 280 280 279 278 277 277 276 275 275 274 274 273 272 271 271 271 271 271 271 270 270 270 271 271 271 271 271 270 270 270 271
291 289 286 285 284 283 282 282 282 282 280 281 279 279 279 278 277 276 275 275 274 273 273 272 272 271 271 270 270 269 269 269 268 268 268 268 268 268 268 267 267 268 268 268
285 286 286 284 282 281 280 280 280 279 279 278 277 277 278 277 276 275 274 273 273 272 271 271 270 270 269 269 268 268 267 267 266 267 266 265 265 265 265 265 266 266 267 267

GFSNGP_925_thetae_027.txt.gz
Theta_e
323 324 323 322 323 322 320 320 319 319 321 318 316 314 314 315 316 317 316 319 319 318 316 317 316 314 313 311 308 307 305 304 303 302 301 301 300 299 298 297 296 296 295 295
322 321 319 318 319 319 318 319 317 318 318 315 314 314 313 313 313 315 315 314 315 318 317 316 315 313 313 310 308 306 304 305 304 301 300 299 298 298 296 295 295 295 295 294
320 316 314 311 313 317 318 318 317 316 315 314 315 315 314 314 314 314 315 314 315 316 317 316 316 315 312 309 307 306 307 305 301 299 299 297 295 296 294 294 294 295 294 294
315 312 308 313 315 314 315 314 313 312 313 313 313 312 313 311 312 312 313 313 313 314 317 318 317 316 312 308 307 307 303 299 299 297 296 296 294 293 293 294 293 293 293 294
313 315 314 315 316 317 315 315 314 314 313 313 312 311 315 314 312 312 312 311 313 314 315 313 313 310 307 305 300 299 298 296 295 294 294 293 294 293 293 293 293 293 293 293
313 315 312 316 315 315 314 315 316 314 314 315 313 310 316 315 313 312 311 307 301 300 300 300 300 300 297 296 295 295 294 294 294 295 294 293 292 293 292 292 293 293 293 292
309 310 315 319 315 315 311 313 316 314 314 314 315 315 315 315 313 306 303 300 299 298 297 296 297 296 295 295 294 294 295 296 295 293 293 293 293 292 293 292 292 292 292 293
315 317 319 315 315 312 316 315 314 313 314 314 315 314 314 313 306 301 299 298 296 296 296 297 297 296 295 294 294 295 294 294 293 293 292 292 292 292 292 291 290 290 291 292
317 315 316 313 313 313 312 312 314 314 314 315 315 315 314 306 299 298 298 297 295 295 294 294 294 295 294 295 296 293 293 293 292 292 292 292 292 291 291 291 290 289 289 291
315 316 315 313 314 315 315 315 313 310 309 311 312 308 301 300 299 298 297 296 295 294 294 294 294 293 293 293 293 293 292 292 291 292 291 291 291 291 291 291 290 290 289 289
316 316 318 316 315 314 311 310 306 304 303 302 302 301 299 298 296 295 294 294 295 295 294 294 294 293 293 293 293 292 291 291 291 291 291 291 291 291 291 290 290 290 289 289
311 318 315 313 310 309 308 306 306 304 302 301 301 299 297 295 294 294 294 294 294 294 294 294 293 293 293 292 292 292 291 290 290 290 290 290 290 290 291 290 289 289 289 289
317 313 311 308 306 305 304 303 302 301 300 299 298 297 296 295 295 295 295 295 295 294 294 294 293 293 292 292 292 291 291 290 290 290 291 291 290 290 290 288 288 288 287 287
312 311 310 308 305 302 301 300 299 298 298 297 297 296 296 296 296 296 295 295 294 293 293 293 293 292 292 292 292 292 291 291 291 291 291 291 291 290 289 288 287 287 288 288
308 308 305 303 302 302 300 299 297 296 296 296 296 296 295 294 294 293 293 293 293 292 291 291 290 291 291 291 291 291 292 292 292 291 291 291 291 290 290 289 288 288 288 288
305 304 303 302 302 300 297 297 296 295 294 293 292 291 291 292 291 291 290 290 289 288 288 289 290 290 290 290 290 290 291 291 291 291 291 291 291 290 289 289 288 288 287 287
302 302 301 301 299 299 297 295 294 294 291 289 288 288 288 289 288 288 287 287 287 287 289 289 286 286 286 287 288 288 288 288 288 289 289 290 290 289 289 288 289 288 287 287
302 301 301 300 297 295 293 292 290 289 288 288 288 288 287 287 286 286 286 286 287 288 286 285 283 283 284 284 284 284 285 285 285 286 288 288 288 289 288 289 288 287 286 286
300 298 297 296 294 293 291 290 288 288 287 287 287 286 286 285 285 286 286 286 285 283 282 281 281 282 281 279 279 280 281 282 283 284 284 285 285 286 288 288 286 286 286 286
295 294 293 292 291 290 290 290 288 286 286 286 285 285 285 286 285 286 285 283 281 279 279 280 279 277 276 276 278 279 279 280 281 282 284 284 285 285 287 287 286 285 284 284
292 290 290 289 288 288 287 287 286 285 285 285 283 283 284 283 283 283 282 281 279 277 277 277 275 274 274 275 275 276 275 277 277 277 278 278 279 280 281 281 282 281 280 280
291 289 288 287 287 286 286 285 285 284 285 283 281 281 281 282 281 281 279 278 277 276 275 275 274 273 272 273 273 273 272 273 272 272 272 273 275 275 276 276 276 276 276 275
291 290 289 287 286 285 285 284 283 283 283 281 280 280 280 281 280 278 277 277 276 275 274 274 273 272 271 271 271 271 270 271 269 269 269 270 271 271 272 272 271 271 271 271
290 289 289 288 285 285 285 285 283 282 283 281 280 280 280 279 278 277 276 276 275 274 273 273 272 271 271 270 269 269 269 269 268 267 267 268 267 268 268 268 268 268 268 268
289 288 287 287 285 284 283 283 282 281 281 280 279 279 279 278 277 276 275 274 274 273 272 271 271 270 270 269 268 268 267 267 266 266 266 265 265 266 265 265 266 266 266 267
288 285 284 283 282 281 281 281 280 280 280 278 277 277 278 277 276 275 274 272 272 272 271 270 269 269 268 268 267 267 266 265 265 265 264 264 263 263 263 263 264 264 265 265
285 283 281 280 280 279 280 279 278 278 278 277 276 276 277 275 274 273 272 271 271 270 269 269 268 268 267 267 266 266 265 264 264 264 263 262 262 261 261 262 262 263 263 264

GFSNGP_925_thetae_030.txt.gz
Theta_e
317 321 322 319 321 322 319 318 318 317 318 317 316 314 312 311 314 318 320 319 316 314 314 316 316 315 312 309 309 307 306 306 305 303 301 301 301 300 298 297 297 296 295 295
321 318 317 318 316 317 318 318 318 317 317 311 311 312 312 311 312 312 312 314 316 315 314 315 315 314 311 309 307 306 305 305 304 302 301 301 299 297 296 295 294 294 294 295
319 313 312 313 313 314 316 317 317 314 315 312 312 313 312 312 312 312 312 313 316 315 314 314 314 314 313 310 307 305 304 303 302 300 297 295 295 295 294 294 294 294 294 294
313 309 311 314 313 313 313 312 311 312 312 312 313 312 311 310 309 310 310 310 309 311 315 315 314 313 311 307 305 305 303 300 297 295 294 295 296 295 294 294 293 293 293 292
311 312 313 314 315 312 313 315 313 312 313 312 313 313 314 312 310 308 305 301 300 299 302 305 308 307 304 301 298 295 294 294 294 296 297 298 297 294 293 293 292 292 293 293
312 312 310 312 314 313 312 314 314 313 313 315 312 310 314 310 305 300 299 299 298 298 297 297 296 297 296 294 294 294 295 296 298 299 298 295 292 292 293 292 292 292 292 292
304 307 310 312 314 312 310 309 313 312 312 313 313 312 310 302 300 299 298 297 297 296 296 296 296 296 295 295 295 297 299 299 298 296 293 293 292 292 292 292 291 290 290 290
313 311 315 314 313 312 309 312 311 311 312 312 312 309 303 300 300 298 297 297 296 296 296 296 298 298 298 298 299 299 298 295 293 293 293 292 292 292 291 291 290 290 290 289
313 313 313 312 313 313 311 312 313 313 314 313 312 305 300 299 298 296 295 295 295 295 295 295 295 296 295 295 294 293 293 293 293 291 291 292 291 291 291 291 291 290 290 289
314 315 314 315 314 313 313 309 306 307 308 307 301 300 299 298 297 296 295 295 294 294 294 294 294 293 293 293 293 293 292 291 291 291 291 291 291 290 291 291 291 290 290 289
313 316 315 313 310 309 305 304 303 302 301 301 300 299 297 296 295 295 294 294 295 294 294 293 293 293 293 292 292 292 291 291 290 290 290 290 290 290 290 290 290 289 289 289
311 314 312 311 308 306 305 304 302 301 300 299 297 295 294 294 294 295 294 294 294 294 293 293 293 293 292 292 292 292 291 291 290 290 289 289 290 290 290 290 290 289 288 288
316 311 308 305 304 303 302 301 300 299 297 296 295 295 295 294 294 295 294 294 294 293 293 292 292 291 290 290 291 291 291 291 291 291 290 290 290 290 289 290 290 290 289 288
307 307 306 305 302 300 299 298 298 297 296 295 295 295 295 294 294 293 292 292 292 291 290 290 290 290 290 290 290 289 290 290 290 290 289 289 289 289 289 289 289 289 289 289
307 306 304 301 299 298 297 297 296 295 293 292 293 292 292 291 291 289 289 289 289 289 288 288 287 286 286 286 287 288 288 288 287 287 288 288 289 288 288 288 289 288 289 288
303 302 301 300 298 297 296 295 294 292 291 291 290 290 290 289 288 287 286 286 287 287 287 285 283 283 283 284 284 284 284 285 285 285 286 286 286 287 287 288 288 288 287 287
301 300 299 298 297 296 295 293 292 290 289 288 287 287 287 287 285 286 286 286 287 285 283 281 281 281 281 280 279 279 279 280 281 282 282 282 283 285 285 285 286 287 287 287
301 299 298 297 295 294 292 290 288 288 288 288 287 286 285 285 285 286 285 285 284 282 280 280 280 278 277 277 277 278 278 278 279 280 280 280 282 283 283 284 284 285 286 286
300 298 296 295 293 291 289 288 288 287 287 287 285 285 285 286 285 284 283 282 279 278 278 277 277 275 275 275 275 276 275 275 276 276 276 276 277 278 279 279 281 284 285 285
295 294 293 291 290 289 288 287 286 286 285 285 285 285 283 283 283 283 281 278 276 276 277 276 274 273 273 273 273 272 273 273 271 271 272 272 273 274 274 275 276 277 277 277
291 290 289 289 288 289 286 285 285 284 283 283 283 282 282 281 282 281 279 279 276 275 275 274 273 272 271 271 271 270 270 270 269 269 269 269 270 270 271 272 272 271 271 272
289 288 288 287 286 286 285 285 285 283 281 281 281 281 281 280 279 278 277 276 275 274 274 273 272 271 270 270 269 269 269 268 267 267 267 267 267 267 268 268 268 268 268 269
289 288 287 286 285 285 284 284 284 282 281 281 280 280 280 279 278 276 276 275 274 273 273 272 271 270 270 269 268 268 268 267 266 266 266 265 265 265 266 265 265 266 266 266
289 288 286 285 285 284 283 282 282 282 280 280 280 280 279 278 276 275 275 274 273 272 272 271 270 269 269 268 267 267 266 266 265 265 264 264 263 263 263 263 263 264 264 265
289 288 285 284 284 283 284 282 281 281 280 278 278 278 278 277 276 274 273 272 272 271 270 270 269 268 268 267 266 266 265 265 264 264 263 263 262 262 262 262 262 262 262 263
287 285 283 281 281 281 281 280 279 279 279 277 276 277 276 275 274 273 272 271 271 270 269 269 268 267 267 266 266 265 265 264 263 263 262 262 261 261 261 261 261 261 261 262
281 281 280 279 279 279 278 277 277 277 277 276 276 275 275 274 273 272 270 269 269 269 268 268 267 266 265 265 265 264 264 263 263 262 261 261 261 260 260 260 260 260 261 261

GFSNGP_925_thetae_033.txt.gz
Theta_e
314 314 320 319 319 320 318 317 317 317 316 316 315 312 310 309 312 316 320 318 315 315 315 316 316 316 314 312 309 310 308 306 306 305 303 302 301 300 300 298 296 297 296 295
319 316 315 317 316 315 316 316 316 316 316 312 311 312 310 309 310 311 312 316 315 314 314 314 315 314 312 312 311 309 306 304 303 302 301 301 299 297 295 294 295 297 297 295
318 312 312 313 312 313 314 315 315 314 312 312 313 311 310 310 311 311 312 311 312 313 312 313 314 315 312 309 308 305 304 303 302 301 299 296 294 295 298 298 297 295 294 293
312 309 312 315 312 311 312 312 310 311 311 312 311 310 309 308 308 307 307 305 302 301 308 311 312 312 309 307 305 303 299 297 296 295 296 298 298 298 297 295 294 294 293 292
312 312 313 314 311 312 312 314 312 311 311 312 312 312 312 308 304 302 300 299 297 298 299 301 302 302 302 298 297 296 295 296 297 298 298 298 298 298 297 295 293 292 292 292
308 311 313 313 311 312 311 313 312 311 311 312 310 308 312 305 301 299 297 297 296 296 296 296 296 296 295 294 295 295 297 298 299 298 298 297 296 295 293 292 292 292 292 291
304 308 309 308 312 309 313 312 311 311 311 311 311 309 305 300 298 297 297 296 296 296 295 295 296 297 296 297 298 298 298 298 299 298 297 295 293 293 292 292 292 291 290 290
307 307 313 311 312 310 308 311 311 310 310 311 307 302 300 299 297 297 296 296 296 295 296 296 297 297 297 296 297 298 298 297 296 295 293 292 292 292 292 291 291 290 290 290
313 312 310 311 310 310 309 310 309 310 310 309 302 300 299 298 296 295 293 294 294 294 294 295 296 297 295 294 294 293 293 293 292 291 291 291 291 291 291 290 290 290 290 290
312 315 314 314 311 310 311 310 309 310 309 304 300 299 298 296 295 294 293 293 294 294 294 293 294 293 293 293 292 292 291 290 290 290 290 290 290 290 289 290 290 290 290 289
314 315 313 311 307 304 303 302 302 301 301 300 299 298 297 295 294 294 294 295 295 294 293 293 293 292 291 291 291 291 291 291 291 290 290 290 289 289 289 289 290 289 290 290
313 314 312 311 305 304 303 302 301 299 298 297 297 295 294 294 294 294 294 294 293 293 292 291 290 290 290 290 290 290 290 290 290 290 290 290 290 290 290 290 290 290 290 290
313 310 307 305 303 302 302 300 299 297 295 294 294 294 294 293 294 294 293 292 291 290 289 289 288 287 287 287 288 288 288 287 287 287 287 287 287 287 287 288 288 288 289 289
305 305 304 303 301 299 299 298 296 295 295 294 294 293 292 291 291 291 290 290 289 288 287 286 285 284 284 284 284 284 284 284 285 285 285 286 286 286 286 286 287 287 287 287
304 305 304 300 298 297 296 296 295 294 293 292 292 291 291 289 288 287 288 288 287 287 284 283 283 282 282 281 280 279 279 280 280 280 281 281 282 282 283 283 284 286 286 287
301 300 299 298 297 296 295 294 293 291 290 290 290 290 289 288 286 286 286 287 286 283 281 282 281 279 278 278 278 278 278 278 278 279 279 280 280 280 281 281 282 282 283 284
300 299 298 297 295 295 294 293 291 289 289 289 288 288 286 285 285 285 285 284 282 281 280 279 277 276 276 276 276 276 276 276 276 277 277 276 276 277 277 278 278 278 280 282
301 299 298 296 294 292 291 290 289 288 288 287 286 285 285 285 284 283 283 282 280 279 277 277 276 275 275 274 275 274 274 274 273 273 273 272 272 273 274 274 275 276 275 275
299 298 296 295 294 291 290 289 288 287 286 285 284 284 284 284 283 281 280 279 278 278 277 275 274 273 273 273 272 272 272 271 270 270 270 270 270 270 270 271 271 271 271 272
296 294 292 291 289 289 288 287 287 286 285 285 284 283 282 283 282 280 279 276 276 276 275 274 273 272 271 271 271 270 270 269 268 268 267 267 267 267 267 268 267 267 268 269
292 291 290 289 287 287 286 286 285 284 284 285 283 282 281 281 281 280 279 277 275 275 274 273 272 271 270 270 269 268 268 267 267 266 266 265 265 265 265 265 265 265 265 266
290 289 288 287 286 285 285 284 283 283 283 282 281 281 280 278 278 277 276 276 275 274 273 272 271 270 270 269 268 268 267 266 266 265 265 264 263 263 263 263 263 263 263 264
289 288 287 287 286 284 284 283 281 281 280 280 281 280 279 278 277 276 276 275 274 273 272 271 270 270 269 268 267 267 266 265 264 264 264 263 263 262 262 262 262 262 262 263
287 286 286 284 284 283 283 282 281 280 280 280 280 279 278 277 276 275 274 274 273 272 271 270 269 268 268 267 267 266 265 265 264 264 263 262 262 262 262 261 261 261 261 262
287 285 284 284 284 283 282 281 280 279 279 279 278 278 277 276 276 274 273 272 271 271 270 269 268 268 267 266 266 265 265 264 263 263 262 261 261 261 261 261 261 261 260 261
285 284 282 282 281 281 280 280 279 278 277 276 277 277 276 275 274 273 271 270 270 269 269 268 267 267 266 265 265 265 264 263 263 262 261 261 261 261 261 261 260 260 260 260
281 280 280 279 279 279 278 278 278 277 276 276 276 275 274 273 272 271 270 269 268 268 268 267 266 266 265 264 264 264 263 263 262 261 261 260 260 260 260 260 260 260 260 260

GFSNGP_925_thetae_036.txt.gz
Theta_e
314 314 316 317 318 316 317 315 317 317 314 315 313 312 309 308 310 313 319 319 317 317 315 316 317 315 314 313 310 308 308 307 306 304 302 302 301 300 299 298 297 295 295 295
318 315 316 318 315 315 316 316 315 314 314 311 310 310 309 309 311 312 314 316 315 314 315 315 316 316 316 314 312 310 309 306 303 302 302 301 300 300 298 296 295 296 297 297
317 312 313 314 312 313 313 313 314 316 313 310 311 311 311 310 310 309 308 306 304 306 308 310 312 314 312 309 308 307 305 303 302 301 300 297 295 295 297 297 297 297 297 296
311 309 313 314 311 312 312 311 310 310 310 310 309 309 308 306 306 305 302 301 299 298 300 303 306 306 306 306 304 302 300 299 297 297 296 297 297 298 297 296 296 296 295 294
314 312 312 313 311 311 312 311 310 309 310 310 309 310 309 301 300 299 298 296 295 296 296 298 299 300 301 298 297 297 296 296 297 297 298 298 297 296 297 297 296 294 293 292
306 312 314 313 311 309 310 312 310 310 310 311 309 306 310 301 299 297 296 296 295 296 296 297 296 298 297 296 296 297 297 298 298 298 298 298 297 298 296 296 295 292 292 291
303 307 311 310 310 309 312 312 309 310 309 309 309 306 301 298 296 296 295 296 295 295 295 295 296 296 297 297 297 298 298 298 299 299 299 298 295 294 293 292 292 291 291 291
306 307 318 308 311 311 309 309 309 308 308 308 303 300 299 297 296 295 294 294 295 295 296 297 297 298 297 296 297 297 297 296 295 294 293 292 292 291 291 291 291 290 290 290
314 314 311 309 310 308 307 309 309 308 308 305 302 300 298 297 294 293 293 293 294 294 294 295 295 295 293 293 293 292 292 291 290 290 290 290 290 290 290 290 290 289 289 289
311 312 310 311 311 309 310 309 308 309 306 303 301 299 296 294 293 292 293 293 294 293 292 292 292 291 291 291 291 291 291 290 290 290 290 290 290 289 289 289 289 289 288 288
311 314 313 311 309 306 304 303 302 301 300 300 299 297 295 294 293 293 294 294 293 292 291 290 290 290 290 290 290 290 290 289 289 288 288 288 288 287 288 288 288 288 287 288
314 312 311 310 305 303 304 302 300 300 298 297 297 296 294 293 293 294 293 293 292 290 289 288 288 287 287 287 288 287 287 286 285 285 285 285 285 285 284 285 286 286 286 287
313 310 306 303 302 301 301 299 297 297 296 295 294 294 294 292 293 293 292 290 289 288 286 285 285 284 284 283 283 282 281 281 281 280 281 282 282 282 282 282 282 282 283 283
305 306 305 304 303 299 298 296 295 294 294 294 293 293 292 290 290 290 289 288 286 285 284 284 283 282 280 279 279 279 279 279 279 279 279 280 280 279 279 280 280 280 281 281
304 303 304 300 298 297 295 295 294 293 292 292 291 291 290 288 287 287 287 286 284 283 283 282 280 278 278 278 278 277 277 277 277 277 278 277 277 277 277 278 278 278 277 278
300 300 300 299 297 296 295 294 293 292 291 291 290 289 288 287 286 286 286 285 283 281 279 278 277 276 277 276 276 276 275 275 275 275 275 275 274 274 275 275 275 276 276 275
299 298 297 296 295 294 294 293 292 291 291 290 289 287 286 286 285 285 282 282 281 279 278 277 275 275 275 275 275 273 273 273 272 273 272 271 271 271 271 271 271 272 271 271
300 299 298 296 294 293 291 291 290 290 290 288 286 285 285 285 284 282 280 280 279 277 276 275 274 274 273 273 273 272 272 271 271 270 269 269 269 268 268 268 268 268 268 268
298 296 295 294 293 291 290 290 289 287 286 285 284 284 284 283 282 280 279 278 278 277 275 274 273 273 272 271 271 270 270 269 269 268 267 267 267 266 266 266 266 265 265 265
296 294 293 291 290 290 288 287 286 285 284 284 284 283 282 281 280 279 278 277 277 276 275 274 273 272 271 270 270 269 268 268 267 266 266 265 265 264 264 264 264 264 264 264
292 291 289 288 288 287 287 286 285 284 284 284 283 282 281 280 279 278 277 276 275 275 274 273 272 271 270 269 269 268 267 267 266 265 265 264 264 263 263 263 262 263 263 263
290 288 287 287 286 285 285 285 284 284 283 282 281 281 280 278 278 277 276 276 274 274 273 272 271 270 269 269 268 267 266 266 265 264 264 263 263 262 262 262 262 262 262 262
289 287 286 286 285 283 282 283 283 282 281 280 280 279 278 278 277 276 276 274 274 273 272 271 270 269 269 268 267 266 266 265 264 264 263 262 262 261 261 261 261 261 261 261
287 286 285 284 283 282 281 280 280 280 280 280 279 279 278 276 275 275 275 274 273 272 271 270 269 268 268 267 266 266 265 264 264 263 262 262 261 261 261 261 261 261 261 261
285 284 284 284 284 283 281 280 279 279 279 278 278 278 277 276 276 274 273 272 271 271 270 269 268 267 267 266 265 265 264 264 263 263 262 261 261 261 260 260 260 260 260 260
283 282 282 281 281 281 280 280 278 278 277 277 277 276 276 275 274 273 272 271 270 269 269 268 267 266 266 265 264 264 264 263 263 262 261 261 260 260 260 260 260 260 260 260
280 280 279 278 278 278 279 278 277 276 276 276 276 275 275 274 273 272 270 269 268 268 267 267 266 265 265 264 264 264 263 263 262 262 261 260 260 259 259 259 259 260 260 260

GFSNGP_925_thetae_039.txt.gz
Theta_e
315 315 316 317 319 318 319 320 324 322 317 318 318 317 315 312 311 316 320 321 321 322 321 320 319 317 317 318 318 316 312 309 307 305 303 302 301 300 299 298 298 297 296 295
316 315 316 319 317 318 318 317 317 317 318 316 314 312 313 311 316 316 315 314 314 314 316 317 317 316 313 310 309 308 307 305 303 302 302 301 300 299 297 297 296 295 297 297
319 313 315 319 317 317 316 316 319 320 320 314 313 313 313 314 313 311 309 308 308 308 308 309 310 311 310 308 306 305 304 302 301 301 300 298 297 296 296 296 297 296 296 296
318 313 323 318 312 314 317 316 314 313 313 312 313 310 309 308 310 307 305 304 303 303 302 302 303 303 303 302 302 301 299 298 298 298 297 296 297 296 296 297 297 296 296 296
321 319 317 314 313 314 315 316 313 313 311 311 311 311 308 303 303 303 301 300 299 298 298 299 299 299 299 299 299 299 298 298 298 297 297 297 297 297 297 297 297 296 296 295
312 321 323 318 313 310 312 317 313 312 313 313 312 319 315 303 301 300 298 298 298 297 297 297 297 298 298 298 298 298 298 298 298 298 298 298 298 298 297 296 296 295 293 292
312 321 318 314 310 311 318 319 312 312 313 314 314 312 307 301 299 298 298 297 297 297 297 297 298 298 298 298 298 298 297 297 297 297 296 295 294 294 293 293 292 291 291 291
313 320 324 311 310 317 318 311 312 312 313 312 306 303 302 300 298 298 297 297 297 297 297 297 297 297 297 296 296 296 295 294 292 292 291 291 290 290 290 290 290 290 290 290
320 323 317 310 315 311 309 312 311 313 310 308 304 302 300 299 298 297 296 296 296 296 295 294 294 295 294 292 292 290 290 290 290 290 290 290 290 290 290 289 289 289 289 289
318 317 314 312 310 311 309 311 309 310 310 307 305 301 299 297 296 296 296 295 294 294 293 291 291 290 290 290 291 290 290 289 289 288 288 288 288 287 287 287 287 287 288 288
315 313 314 314 312 311 308 308 308 306 306 305 302 299 298 297 296 295 294 294 293 292 291 290 289 288 289 289 289 288 288 287 286 285 285 285 284 284 284 284 284 284 284 284
319 315 316 315 313 308 308 308 306 304 302 301 300 298 297 296 295 295 294 292 291 290 288 286 286 285 285 285 284 285 284 283 282 282 282 282 282 282 281 280 280 280 281 281
315 312 307 305 305 305 305 304 302 302 300 299 297 296 295 295 294 293 292 291 289 287 285 284 283 281 281 281 280 281 281 280 280 280 280 280 280 280 280 280 279 279 279 279
307 308 308 305 307 302 300 299 298 297 296 296 295 294 294 293 291 291 290 288 285 284 284 283 281 279 279 279 279 279 279 277 278 279 278 278 278 278 278 278 278 278 277 277
306 305 308 303 300 298 297 297 296 295 294 294 293 293 292 291 290 288 287 285 284 283 281 280 279 278 278 278 278 277 277 277 276 277 276 275 275 275 276 275 275 275 275 274
302 302 302 302 299 297 297 297 296 294 294 293 292 291 290 288 287 286 284 284 284 281 279 278 277 277 277 277 276 276 275 274 274 274 274 273 273 273 273 273 273 273 272 271
302 301 299 299 298 296 296 295 294 294 293 292 290 288 288 287 286 285 283 281 280 278 277 276 276 276 275 275 274 274 274 273 272 272 272 271 271 271 270 270 271 270 270 269
302 299 299 298 297 295 294 293 293 292 291 288 287 287 286 286 284 282 281 278 277 276 275 275 274 274 274 273 272 272 271 270 271 270 270 269 268 268 268 267 268 268 267 267
298 296 295 294 294 293 292 291 289 287 286 286 286 285 284 283 281 280 279 278 277 277 275 274 273 272 272 271 271 270 269 269 269 268 267 266 266 265 265 266 266 266 265 265
295 293 292 291 291 290 289 288 287 286 285 285 284 283 281 280 280 279 279 279 278 276 274 273 272 271 271 270 269 269 268 267 267 266 265 265 264 264 264 264 263 264 263 264
291 291 290 289 288 287 287 286 286 285 284 284 283 282 280 279 278 278 277 278 275 274 273 273 272 271 270 269 269 268 267 266 265 265 264 263 263 263 262 262 262 262 262 262
289 288 288 287 286 285 285 285 284 284 283 282 281 280 279 278 277 277 277 277 275 274 273 272 271 270 269 269 268 267 266 266 265 264 263 262 262 261 261 261 261 261 261 261
288 287 286 285 284 283 282 282 282 282 281 280 280 279 279 278 277 277 276 274 274 273 272 271 270 270 269 268 267 266 266 265 265 264 263 262 261 260 260 260 260 259 259 259
286 285 284 283 283 283 282 281 280 280 279 279 279 279 277 276 275 275 275 274 273 272 271 270 269 269 268 267 266 266 265 265 264 263 263 262 261 261 260 260 260 260 260 259
285 285 284 283 282 281 280 280 280 279 279 278 277 277 276 276 276 274 273 272 271 271 270 269 268 268 267 266 266 265 264 264 263 263 262 262 261 260 260 260 259 259 259 260
282 281 281 281 281 281 280 279 279 278 278 277 276 276 276 275 274 273 272 271 270 269 268 268 267 267 266 265 265 264 264 263 263 262 262 261 260 260 260 259 259 259 259 259
277 278 277 277 276 277 277 277 277 276 276 276 275 274 274 273 272 271 270 269 269 268 267 267 266 266 265 265 264 264 263 263 262 262 261 260 260 259 259 259 259 259 259 259

GFSNGP_925_thetae_042.txt.gz
Theta_e
318 317 317 318 318 321 322 323 323 323 321 320 319 320 320 319 318 319 321 323 326 328 329 328 327 325 325 322 320 319 318 318 316 314 312 310 308 307 305 305 301 300 298 297
320 319 319 318 319 319 321 320 321 321 320 319 320 321 320 318 319 321 322 322 323 325 325 324 324 322 319 318 316 315 314 312 310 308 305 304 302 300 298 297 297 297 298 297
320 320 320 323 321 320 321 322 322 322 321 320 320 320 320 320 320 320 319 318 318 318 317 317 318 318 316 314 312 311 310 308 306 304 301 299 298 297 296 298 297 297 297 297
323 320 329 319 319 320 321 321 321 320 320 319 319 318 317 318 318 316 315 313 313 312 312 312 312 311 311 310 308 307 306 304 303 302 300 299 299 299 297 297 297 297 298 297
330 323 320 319 317 319 321 321 320 320 319 318 316 315 314 312 314 313 312 310 309 309 309 308 308 308 307 306 306 305 304 303 302 301 301 301 300 299 300 300 299 300 298 297
321 324 329 320 319 318 318 324 319 319 318 318 317 321 319 311 309 308 307 307 306 306 306 306 306 306 306 305 304 303 302 302 301 301 301 301 300 298 298 297 297 296 296 295
326 328 324 320 317 316 322 324 319 318 318 318 319 319 316 309 308 306 306 305 305 305 305 305 305 304 304 303 302 301 301 300 299 297 296 296 296 295 295 294 294 294 294 293
325 330 330 316 315 321 323 320 319 319 319 319 318 314 310 309 307 305 305 304 304 304 304 303 303 302 301 299 299 298 296 295 295 293 292 292 293 293 292 292 292 292 292 292
324 325 323 318 321 319 321 320 318 319 318 318 313 311 309 308 306 305 304 304 303 302 302 301 301 301 299 296 295 294 293 293 293 292 292 292 292 292 292 292 291 291 290 290
322 321 321 320 319 317 316 318 317 317 317 315 313 310 308 306 305 305 303 303 301 300 298 297 296 296 295 294 293 293 293 292 292 290 291 290 289 288 287 287 287 286 286 286
322 322 318 319 319 318 316 314 314 315 316 314 312 310 307 306 304 303 302 300 299 298 296 295 293 292 292 292 292 292 291 289 288 287 286 286 285 285 284 284 282 283 283 283
327 324 323 322 320 319 317 315 314 315 314 313 310 308 306 305 303 301 300 298 297 295 293 292 290 289 288 289 289 288 287 286 284 285 285 284 284 284 282 281 279 280 279 279
320 316 318 315 313 317 316 314 314 313 313 311 309 306 304 303 301 299 298 297 295 292 289 287 286 285 284 284 284 284 284 283 283 283 283 282 282 282 282 282 280 279 278 277
314 312 315 312 314 310 312 311 308 310 308 307 305 303 302 300 298 297 296 294 291 289 286 284 283 283 283 282 282 282 281 280 282 282 281 281 280 280 280 280 280 279 278 276
313 311 310 310 309 308 307 306 306 305 304 303 302 301 299 298 297 296 292 289 288 286 284 283 283 282 281 281 281 281 281 280 280 280 279 278 278 278 278 278 278 278 277 276
308 308 307 308 305 303 303 304 305 301 301 300 299 298 297 296 293 291 288 286 285 284 283 281 281 280 280 279 279 279 278 275 277 278 277 277 277 277 276 276 276 276 275 274
308 307 306 304 303 303 303 302 301 300 299 299 297 295 293 291 288 286 283 281 280 280 279 279 279 278 278 277 278 278 278 276 274 276 276 275 275 275 274 274 274 274 274 272
306 306 305 305 303 301 300 300 299 297 297 294 290 288 287 286 284 282 281 279 278 277 277 277 277 276 276 275 275 275 275 274 274 274 274 273 272 272 272 272 272 272 272 271
303 302 302 301 300 299 297 295 292 289 288 288 288 286 285 284 282 281 279 279 278 278 276 275 274 274 274 273 273 273 273 273 273 272 271 270 271 271 271 270 270 270 270 270
296 295 294 294 293 291 290 289 288 288 287 286 285 285 284 282 281 280 280 281 280 277 275 274 273 273 272 271 271 272 271 271 271 271 270 270 270 269 269 268 268 268 268 268
291 290 289 288 288 288 288 288 287 287 286 286 285 283 281 280 280 279 279 278 276 275 274 274 274 273 272 271 271 271 270 270 270 270 269 269 269 268 268 268 267 267 267 267
289 288 288 287 287 287 286 286 285 284 283 282 281 280 279 279 279 278 279 279 276 275 275 274 273 271 270 270 270 270 270 269 269 269 268 268 267 267 267 266 266 266 265 266
288 287 286 285 285 284 283 283 283 282 282 282 282 282 281 280 280 280 279 276 276 274 274 273 271 270 269 270 270 269 269 268 268 268 267 267 266 266 265 265 264 263 264 264
286 285 285 284 284 283 283 282 281 281 280 280 279 279 279 279 278 277 276 274 273 273 273 271 270 269 268 269 268 268 268 268 267 267 266 265 265 265 264 263 263 262 262 262
285 285 284 284 283 283 282 281 281 280 280 279 278 278 277 277 279 276 274 273 272 272 271 269 269 268 268 268 268 267 267 267 267 266 265 265 264 264 263 263 262 261 260 260
281 281 280 281 282 282 281 281 281 280 280 279 278 277 276 275 274 273 272 271 271 270 270 269 268 267 267 267 267 266 266 266 265 265 264 263 263 263 262 261 260 260 260 259
278 278 278 278 277 277 278 278 278 278 277 278 277 276 275 274 272 272 271 271 270 269 268 268 268 267 266 266 266 266 265 265 264 263 262 262 262 261 261 259 259 258 258 257

GFSNGP_925_thetae_045.txt.gz
Theta_e
320 321 321 321 321 321 321 321 324 323 321 322 321 321 320 322 321 320 321 321 323 328 330 330 331 331 331 328 327 326 326 325 322 320 319 318 316 313 310 308 305 303 301 300
320 321 320 319 318 318 319 320 320 320 320 321 320 319 319 320 320 321 323 324 326 329 330 330 329 329 326 324 323 322 321 318 316 314 312 310 309 307 307 305 304 301 300 299
324 321 321 324 319 318 319 319 320 321 321 321 320 319 320 321 321 323 324 324 326 327 327 327 325 324 322 320 318 316 314 312 310 308 306 304 303 302 301 300 300 299 298 298
326 324 328 320 319 319 319 319 319 320 320 320 320 319 320 321 321 323 322 322 321 321 321 321 320 318 316 315 314 312 310 309 307 305 304 303 303 302 301 300 300 300 300 300
330 327 321 319 319 320 320 320 319 320 320 320 320 320 320 319 321 321 319 318 317 316 316 315 315 314 313 311 310 309 308 307 306 306 305 304 303 302 302 301 301 300 300 299
326 326 328 321 320 320 319 324 319 319 320 319 319 323 320 318 319 317 315 314 314 313 313 312 312 311 311 310 308 307 306 306 305 304 304 303 302 301 300 299 299 299 298 297
329 327 323 320 319 320 324 323 321 320 319 318 319 320 321 317 315 314 313 312 311 312 312 311 310 310 309 308 307 306 305 304 302 302 301 300 299 298 297 297 296 296 295 295
328 330 331 321 320 322 323 324 323 322 320 320 319 320 317 315 314 313 312 310 311 310 310 309 309 308 307 306 304 303 301 300 299 297 295 295 296 295 294 295 295 295 295 294
324 325 324 321 323 321 322 322 324 322 321 320 321 318 316 314 313 312 310 310 310 309 308 308 307 306 304 303 301 300 298 296 295 294 294 294 295 294 294 293 292 291 290 290
324 323 322 323 320 321 322 323 323 322 320 320 321 317 315 313 312 311 310 310 309 308 307 306 305 303 302 300 298 297 296 295 294 294 293 292 291 290 290 290 289 287 287 287
322 320 321 321 322 322 322 321 321 319 319 320 319 316 314 313 312 311 310 308 307 306 304 302 301 299 298 297 296 295 294 293 292 290 289 289 288 287 286 284 282 284 285 284
324 320 324 325 323 321 322 321 319 318 318 319 317 315 313 312 311 310 308 306 305 303 301 299 297 296 295 295 294 293 291 289 289 289 288 287 287 286 283 282 281 279 279 279
320 321 321 321 320 319 321 321 320 318 318 318 316 314 312 311 309 307 305 304 303 300 298 296 293 291 290 290 290 289 289 287 285 287 286 286 285 285 286 282 281 280 279 278
317 318 318 317 319 316 317 319 316 317 316 317 315 312 310 309 306 305 304 302 299 296 293 290 288 286 286 286 285 285 284 284 286 285 284 284 283 283 283 283 282 282 280 278
318 318 317 314 313 313 313 314 313 315 314 314 312 310 308 307 305 303 301 297 294 291 288 286 284 284 284 284 284 284 284 283 284 283 281 280 281 281 281 280 280 280 280 279
313 312 313 312 313 310 310 310 312 311 310 309 308 307 305 303 301 297 294 292 289 286 284 283 283 283 282 282 282 281 279 279 281 281 280 279 279 280 279 279 279 279 278 278
313 314 312 311 311 308 309 309 309 306 305 304 303 302 300 296 290 287 285 283 282 281 281 281 280 280 279 280 281 281 280 278 277 278 278 278 278 278 277 277 277 277 277 276
309 310 309 310 310 308 306 305 304 303 302 299 293 291 289 287 285 282 281 280 279 279 279 278 278 277 277 277 278 277 277 277 277 277 276 276 275 275 275 275 275 275 275 274
305 305 305 305 304 303 300 297 293 291 290 289 288 286 284 282 281 280 280 279 278 278 277 276 276 275 274 274 275 276 276 276 276 275 275 273 275 274 274 274 274 273 273 273
294 293 293 292 291 291 291 289 288 287 286 285 284 284 283 282 281 281 281 281 280 277 276 275 275 274 273 273 274 275 274 274 274 274 274 272 274 273 273 272 272 272 272 272
289 289 289 289 288 288 288 288 287 287 286 285 284 283 283 282 280 280 280 278 276 276 275 275 275 275 274 273 274 274 274 274 273 273 273 273 272 273 272 272 271 271 271 270
289 289 288 288 287 287 286 285 285 284 283 282 281 281 281 280 280 280 279 278 276 276 276 275 274 273 272 272 273 273 273 272 272 272 272 272 271 271 270 270 270 269 269 268
288 287 286 285 285 285 284 284 284 284 284 283 283 282 282 281 281 280 279 277 276 276 276 275 272 271 270 272 272 272 272 271 271 271 270 270 270 269 269 268 268 267 267 267
286 286 285 285 284 284 284 283 282 281 281 280 281 281 281 280 279 278 277 276 275 275 274 272 271 270 270 271 271 271 270 271 270 270 270 269 268 268 268 267 267 266 266 265
284 284 285 284 284 284 283 283 282 282 281 280 280 279 279 279 279 277 276 274 273 275 273 270 269 269 270 270 270 270 269 269 269 268 267 267 267 267 267 266 266 265 264 263
281 281 281 281 281 282 282 281 281 282 281 280 279 278 277 277 276 275 274 273 273 272 272 272 270 269 270 270 269 269 268 268 268 268 267 266 266 266 266 265 264 264 263 263
278 279 279 279 278 278 278 278 278 278 277 279 278 277 276 275 274 274 273 273 272 271 271 270 270 269 268 268 267 268 268 267 267 266 265 265 265 265 264 264 263 262 261 260

GFSNGP_925_thetae_048.txt.gz
Theta_e
321 321 323 323 323 322 322 323 326 325 323 323 322 323 323 323 322 321 320 320 322 325 330 332 332 332 332 332 331 331 330 327 325 322 320 318 315 314 313 311 309 307 306 305
323 321 321 323 324 321 321 321 321 322 322 321 321 321 322 320 320 321 321 320 323 324 330 332 331 332 330 328 327 327 323 321 320 319 318 316 314 311 308 306 305 303 302 302
324 322 321 322 324 322 321 320 320 321 322 321 321 321 321 321 321 321 321 324 325 327 331 331 331 328 327 325 324 321 319 317 315 312 309 308 306 305 305 304 302 301 300 299
325 324 326 321 321 321 320 320 319 319 319 320 320 321 320 321 321 323 324 324 326 329 329 328 326 325 322 320 318 316 314 311 309 307 305 304 303 302 301 301 300 300 300 300
327 324 323 320 321 320 321 320 320 319 319 319 319 321 322 321 321 324 324 324 323 323 324 323 321 319 317 315 313 311 310 309 307 306 305 304 303 302 302 302 301 301 300 300
331 326 326 324 321 320 320 322 320 320 321 321 321 324 322 321 322 322 321 320 320 319 318 317 316 315 314 312 311 310 309 308 307 306 305 304 303 302 302 301 301 300 299 299
327 329 328 320 320 320 323 323 323 322 321 322 321 321 322 320 321 320 318 317 316 316 315 314 313 312 312 310 309 308 307 306 305 304 303 302 301 301 300 299 298 296 295 295
327 329 329 321 320 321 323 325 325 323 324 323 323 323 321 320 319 317 316 315 314 314 313 313 312 311 310 308 307 305 304 303 302 302 300 299 297 296 295 295 295 295 295 294
324 325 325 322 321 322 324 326 326 325 325 324 325 321 320 318 317 315 314 313 313 313 312 311 311 309 308 306 304 303 302 300 296 296 296 296 296 295 295 294 292 291 290 290
320 320 323 323 321 321 321 322 323 323 324 323 324 320 318 317 315 314 313 312 312 312 311 310 309 308 305 304 303 300 297 296 295 295 294 293 292 291 291 290 289 288 288 287
322 320 318 318 319 321 323 323 323 321 321 321 322 320 318 316 314 313 312 312 311 310 309 308 307 304 303 302 299 298 297 295 293 292 291 290 288 288 287 284 284 285 285 284
326 321 322 323 321 322 321 320 321 322 321 319 320 320 317 315 314 313 312 311 310 309 307 305 303 301 299 298 297 296 293 291 290 289 289 289 287 284 283 283 282 280 279 279
320 320 321 321 319 320 320 320 321 322 320 319 320 318 316 314 313 312 311 309 308 306 303 300 298 297 296 295 294 291 289 289 288 288 287 287 286 286 283 281 281 281 280 279
313 316 318 316 319 317 316 317 318 319 319 318 318 317 315 313 311 310 308 307 304 301 298 294 291 289 288 288 288 288 287 287 287 286 285 285 284 284 284 284 283 282 280 279
316 316 318 317 315 315 314 314 316 317 317 316 317 314 313 311 309 307 305 301 298 295 291 288 287 286 286 285 285 285 285 285 284 283 283 282 282 282 282 281 281 281 280 280
314 314 314 315 314 313 310 311 312 312 312 312 312 311 309 307 304 299 296 293 290 289 285 284 283 283 283 283 282 281 281 282 282 281 280 280 280 280 280 280 279 279 279 279
313 313 312 313 314 313 310 310 310 309 307 305 301 299 295 288 285 285 284 283 282 281 281 281 279 280 281 282 282 281 279 278 279 279 279 278 278 278 278 278 278 277 277 277
307 308 308 308 310 310 307 303 300 296 294 290 288 287 285 284 283 282 281 280 280 279 279 279 278 279 279 279 279 278 278 278 278 277 277 277 276 276 276 276 276 276 275 275
296 297 296 297 297 295 293 292 290 289 287 286 284 283 282 281 281 280 280 279 278 278 277 277 276 276 276 276 276 276 277 277 277 276 276 275 275 276 275 275 274 274 273 273
290 290 289 289 289 289 288 287 286 285 284 283 283 282 281 281 281 281 280 279 278 277 276 276 275 275 274 275 275 275 275 275 275 275 275 273 274 274 273 274 273 273 273 272
289 288 287 287 286 286 286 285 285 284 284 283 282 281 281 280 280 279 278 277 276 276 276 276 275 275 274 274 275 275 275 274 274 274 274 274 274 273 273 272 272 271 271 271
287 287 286 286 286 285 284 283 283 282 282 281 281 281 281 281 279 278 278 277 276 276 276 275 273 273 272 274 274 274 274 274 273 273 273 273 272 271 271 271 270 270 269 268
286 286 285 284 284 283 282 282 283 282 282 282 282 281 281 281 280 279 278 277 277 277 275 273 272 272 272 273 273 273 273 272 272 272 272 271 271 270 269 269 269 268 268 267
285 285 284 283 283 283 283 282 281 281 281 280 280 280 281 279 278 277 276 276 276 275 273 272 271 270 271 272 272 272 271 271 270 270 270 269 269 269 269 268 268 267 267 266
282 282 283 283 283 284 283 282 282 281 280 279 279 278 277 278 277 276 275 274 274 274 272 271 270 270 271 271 271 270 270 269 269 268 268 268 268 267 267 267 267 266 265 264
281 280 280 279 279 280 280 279 279 280 280 279 278 277 276 276 275 275 273 273 273 272 272 272 270 270 270 269 268 268 268 268 268 268 267 266 266 265 265 265 265 264 264 263
277 278 278 278 277 277 276 276 277 276 276 277 276 275 275 275 274 274 273 272 272 271 271 270 270 269 269 268 268 267 267 267 266 266 265 265 264 264 264 263 263 262 261 261

GFSNGP_925_thetae_051.txt.gz
Theta_e
319 319 322 324 324 322 323 324 325 324 324 322 320 318 319 319 319 319 317 317 317 323 324 326 329 331 330 332 333 332 331 331 329 328 326 324 323 321 319 317 316 314 311 308
321 320 321 320 320 321 321 322 324 323 323 321 318 318 319 319 319 317 315 315 316 319 328 329 330 329 327 328 329 330 327 325 324 323 320 318 316 315 314 312 311 309 308 306
320 320 320 320 320 321 322 322 320 319 318 318 319 318 318 317 317 317 316 316 319 322 328 328 329 327 326 324 325 323 321 320 319 317 315 314 312 309 307 306 305 304 303 303
319 320 322 319 318 321 322 321 318 316 316 316 317 316 315 316 316 316 319 320 322 327 326 327 327 325 324 321 319 317 313 311 313 313 311 310 309 306 304 303 302 301 300 299
321 321 320 320 320 320 320 319 318 317 316 315 314 317 319 317 318 318 319 320 322 325 325 324 323 321 318 316 314 312 310 309 308 307 304 303 303 302 302 300 299 299 300 300
318 321 322 319 319 320 319 320 317 317 317 317 317 315 314 317 319 319 318 319 319 322 321 320 320 319 315 312 310 309 308 306 305 304 303 303 302 301 301 301 301 300 300 299
316 319 321 320 319 319 321 319 318 319 318 319 316 315 316 316 318 317 317 317 318 317 316 317 316 315 311 310 309 308 307 306 305 304 303 303 302 302 301 301 300 299 297 295
321 323 324 319 320 319 318 317 318 318 319 321 318 317 316 317 317 315 314 314 315 313 313 314 314 312 309 308 308 307 307 305 304 303 302 302 301 300 300 298 296 295 294 291
319 318 319 318 320 321 319 321 321 321 320 320 319 319 316 315 314 313 311 311 313 312 312 312 311 310 307 305 306 305 304 303 303 302 301 300 297 296 295 295 295 293 291 289
319 318 315 314 317 318 320 317 318 320 319 320 321 318 316 314 312 311 309 309 311 311 310 309 309 307 305 304 304 304 302 300 297 297 296 295 294 294 292 291 289 289 288 286
318 317 316 317 316 318 320 319 318 318 319 318 319 317 315 314 312 309 309 310 310 309 308 306 306 304 304 304 303 299 296 295 295 293 291 290 290 289 289 287 288 287 286 285
315 318 318 317 317 319 318 317 318 318 318 317 317 315 313 312 311 309 308 309 308 307 306 304 304 303 303 302 298 296 294 293 292 289 288 288 287 283 283 283 282 282 281 281
315 315 318 319 318 319 318 317 316 315 316 316 316 315 313 311 310 310 309 307 307 304 301 298 294 294 297 297 296 292 290 289 287 288 287 285 284 283 281 281 282 282 281 280
314 316 315 314 315 313 313 313 313 314 314 315 316 313 311 310 308 307 306 303 299 293 289 288 288 288 290 291 291 289 288 287 286 285 285 284 284 284 283 282 281 281 280 279
311 312 313 313 312 310 309 309 310 311 310 311 311 310 308 307 305 302 298 293 289 288 287 286 285 285 286 286 286 286 285 284 284 284 283 283 283 282 281 281 281 280 280 278
309 310 310 310 311 309 308 308 308 305 302 299 297 294 295 294 293 291 290 288 285 282 282 282 283 282 283 284 284 284 284 283 281 281 280 280 280 280 280 279 279 279 278 278
305 303 304 304 307 301 300 298 296 294 292 289 288 287 285 284 283 282 282 281 280 280 280 281 281 283 283 282 281 281 280 280 280 279 279 279 278 278 278 277 277 277 276 276
298 298 297 297 297 296 293 292 289 288 287 285 284 283 282 282 281 281 280 280 280 279 279 280 280 281 280 280 279 279 278 278 278 278 278 277 277 276 276 276 276 275 275 274
292 292 292 291 290 289 287 286 285 284 283 282 282 281 281 281 280 280 279 278 277 277 276 277 277 277 277 277 277 277 277 277 277 276 276 275 275 276 275 275 274 274 273 273
288 287 286 286 286 286 285 284 283 283 282 282 281 280 279 279 278 278 277 277 277 276 276 276 276 275 276 276 276 275 275 275 275 275 275 274 274 274 273 273 273 272 272 271
286 285 285 284 283 283 283 282 282 282 281 281 281 280 279 279 278 277 277 277 276 276 276 275 275 274 274 274 275 275 274 274 274 274 273 273 273 273 272 272 271 271 270 269
284 284 283 283 283 283 283 282 282 282 281 281 280 279 278 278 277 277 276 276 276 275 274 274 273 273 274 274 274 273 273 272 272 272 272 272 271 271 270 270 269 269 268 268
284 283 283 282 282 281 281 281 281 281 280 280 280 280 279 279 278 278 278 276 275 274 273 272 272 272 273 272 272 272 271 271 271 270 270 270 269 269 269 269 268 268 267 267
283 284 283 282 282 281 281 280 280 279 279 278 279 278 278 277 276 275 275 275 274 272 271 270 270 271 271 271 271 270 270 269 269 269 268 268 267 267 267 267 267 266 266 265
279 279 279 280 280 279 280 280 279 278 278 277 277 276 276 275 275 274 273 273 272 272 271 270 270 270 269 269 268 268 268 268 268 268 267 266 266 265 265 265 265 264 264 263
278 278 277 277 276 276 277 276 276 277 276 276 275 275 274 274 274 273 272 272 272 271 270 270 269 268 268 267 267 267 266 266 266 265 265 265 264 264 263 263 262 262 262 261
275 275 275 275 275 274 273 274 274 273 274 274 273 272 272 271 271 271 271 270 269 268 268 268 267 267 266 266 265 265 265 265 265 264 263 263 262 262 262 261 261 260 260 260

GFSNGP_925_thetae_054.txt.gz
Theta_e
318 318 319 318 320 321 320 320 323 322 323 322 320 318 317 315 315 315 314 314 319 320 320 323 326 325 324 326 328 328 328 326 328 329 328 328 325 323 327 326 324 322 318 315
319 318 319 319 318 321 321 321 322 322 323 320 320 317 316 317 316 315 314 314 316 321 321 326 328 327 327 326 327 326 326 326 326 323 325 321 320 324 322 320 319 317 314 313
320 318 319 319 319 319 318 320 321 322 321 320 319 319 317 315 316 316 314 313 313 319 324 327 327 328 327 328 329 329 327 325 322 322 320 319 319 318 317 314 312 310 309 307
318 317 323 319 317 317 318 319 319 318 316 316 316 315 316 315 314 314 313 312 311 318 324 327 326 325 324 325 324 322 321 318 317 316 316 315 315 313 311 310 309 307 305 305
317 319 318 318 318 318 319 318 317 316 316 314 314 315 317 314 313 313 312 314 320 324 325 325 323 321 320 317 316 315 313 314 313 313 310 308 307 307 307 304 302 302 301 301
319 321 320 317 317 318 318 318 316 316 317 316 315 314 313 315 317 316 317 320 321 323 322 321 319 318 315 312 311 310 310 309 309 309 308 308 307 305 303 302 300 299 299 299
319 319 317 317 317 317 320 318 317 317 318 317 315 314 313 313 318 317 317 318 321 321 320 318 317 316 311 310 309 309 309 308 306 307 307 306 304 302 300 299 299 299 299 298
318 321 320 318 320 319 318 316 316 318 317 316 316 313 314 315 316 315 316 315 317 315 314 315 315 315 309 308 308 308 307 305 304 304 303 302 301 300 300 300 299 296 293 290
318 318 316 317 318 320 318 318 317 317 317 318 317 316 315 315 315 314 314 312 314 312 310 312 313 313 307 306 307 306 305 304 303 303 302 302 301 301 300 298 294 290 289 286
317 317 317 317 316 319 317 317 317 317 316 318 318 316 315 314 312 312 310 310 311 310 308 307 309 308 308 306 306 305 303 302 302 302 301 300 299 299 298 294 291 289 287 284
316 315 315 314 313 314 315 316 318 317 316 316 315 317 314 313 311 310 310 309 310 309 307 304 305 305 304 304 305 302 301 300 298 296 295 292 291 292 292 290 291 289 287 286
315 314 315 314 312 313 315 317 316 317 315 314 315 315 314 312 310 309 309 308 308 306 304 303 303 302 302 302 303 301 294 292 291 290 288 287 286 283 283 285 286 286 285 285
313 312 314 316 316 316 317 314 313 314 314 314 314 313 312 310 308 308 307 307 304 300 294 295 297 299 299 300 300 295 290 288 287 287 285 284 283 282 282 281 281 281 281 280
308 311 314 311 311 309 310 310 310 309 308 309 310 313 312 309 307 305 302 295 291 290 289 289 288 288 290 292 292 288 287 286 286 285 284 284 283 283 283 283 282 281 280 279
305 305 307 308 308 307 307 307 303 299 296 294 294 302 303 299 294 291 289 287 286 285 284 284 284 284 285 286 285 284 284 283 284 284 284 284 284 283 282 282 282 281 280 278
304 301 302 303 301 299 299 298 296 293 290 289 288 287 285 285 283 282 282 284 284 283 283 282 282 283 284 284 285 285 285 285 285 283 282 281 281 281 280 280 280 279 279 278
302 301 300 300 298 295 293 291 290 289 287 286 286 284 283 282 282 281 281 281 281 281 281 282 282 285 285 286 285 282 281 281 281 280 279 279 279 278 278 278 277 277 276 276
295 294 294 294 293 291 289 287 286 285 284 283 282 282 282 282 281 280 279 278 278 278 278 279 280 280 280 281 280 280 279 279 278 278 277 277 276 276 276 276 276 275 274 274
288 288 288 288 287 286 285 284 283 283 282 282 281 280 280 279 278 278 278 277 277 276 276 277 278 278 277 277 278 277 277 277 276 276 275 275 275 275 274 274 274 273 273 272
285 285 284 283 283 283 283 282 281 281 281 280 280 279 278 278 277 277 276 276 276 275 275 275 276 275 275 275 275 275 275 275 275 274 274 274 274 273 273 272 272 271 271 270
284 283 283 282 282 282 282 281 281 280 280 279 279 278 278 277 277 277 276 275 274 274 274 274 274 274 275 274 274 274 273 273 273 272 272 272 271 271 271 270 270 269 269 268
282 282 282 281 281 281 280 280 280 280 279 279 278 278 277 277 277 276 275 274 273 273 273 273 273 273 273 273 272 272 271 271 271 271 270 270 269 269 269 268 268 268 267 267
282 282 282 281 280 280 279 279 279 279 278 278 277 277 276 276 276 275 274 272 272 272 271 271 272 271 271 271 270 270 269 269 269 268 268 268 267 267 266 266 266 266 266 265
280 280 280 280 280 279 279 278 278 277 277 276 276 275 275 274 274 273 272 271 271 270 270 270 270 269 269 268 268 268 268 267 267 267 266 266 266 265 265 265 264 264 264 263
278 277 277 278 278 278 278 277 276 276 275 275 274 274 273 273 273 272 271 271 270 270 269 269 268 268 267 267 267 266 266 266 265 265 265 264 264 263 263 263 262 262 262 261
276 276 275 274 274 274 274 275 275 274 273 272 271 272 272 272 272 271 270 269 269 268 268 267 267 266 266 265 265 265 265 264 264 264 263 263 262 262 262 261 261 260 260 259
273 273 273 272 271 272 272 271 271 271 270 269 269 270 270 270 269 268 268 267 267 267 266 265 265 264 264 264 264 263 263 263 262 262 262 261 261 261 260 260 259 259 258 258

GFSNGP_925_thetae_057.txt.gz
Theta_e
317 316 317 319 318 317 318 319 320 319 321 320 319 318 318 317 315 313 312 313 315 317 318 319 321 324 325 325 325 324 324 324 324 325 325 325 325 325 325 324 324 325 324 323
318 318 317 318 318 318 317 318 319 319 319 318 318 317 316 315 315 314 313 312 313 317 318 319 319 320 321 323 325 325 325 325 325 325 325 326 325 325 323 323 324 322 322 320
321 320 317 319 318 318 318 319 320 321 319 319 319 317 316 316 313 314 314 312 311 316 319 321 323 323 321 321 322 326 326 325 325 326 325 323 324 324 321 319 320 319 318 317
321 317 324 320 316 317 317 317 316 318 318 317 316 315 315 313 314 314 312 312 310 310 318 321 325 327 325 324 324 325 325 324 323 323 322 319 319 317 315 315 317 315 312 311
322 322 319 320 316 317 317 318 316 316 316 314 313 313 311 312 311 312 312 311 309 311 320 323 326 327 326 324 325 325 323 322 320 320 316 315 313 311 312 312 309 309 308 306
317 320 322 317 315 315 316 319 315 315 315 315 313 317 314 311 311 311 309 310 316 320 323 323 322 324 323 319 319 318 317 316 316 315 314 311 311 311 311 310 309 306 304 303
319 320 316 316 316 318 322 319 316 315 316 315 316 318 316 311 311 315 315 318 320 321 321 321 320 321 316 314 314 315 316 316 314 313 313 313 310 307 304 303 301 299 298 297
317 319 318 315 316 322 317 315 317 317 317 316 314 313 313 313 312 315 316 317 319 317 316 317 318 317 311 311 312 313 312 310 308 308 308 306 305 301 300 299 297 295 294 292
313 315 316 313 315 315 316 317 317 317 317 315 315 315 312 312 313 314 315 314 316 314 311 313 314 315 310 308 309 307 306 305 304 304 303 303 302 299 297 297 293 289 288 286
313 311 313 311 311 312 313 316 317 317 317 315 314 313 313 312 313 313 311 311 312 311 310 308 311 311 311 307 307 306 303 302 301 301 299 299 299 298 297 294 291 288 285 283
312 311 312 312 312 313 314 315 315 317 316 316 314 315 314 314 312 311 311 310 311 310 307 304 306 307 306 306 306 302 300 298 297 297 297 294 293 293 293 292 294 290 287 285
311 313 312 314 313 312 311 312 314 314 316 314 314 315 315 313 310 309 308 308 306 305 303 302 303 303 303 304 304 300 294 293 292 291 289 287 286 284 286 289 290 290 288 287
310 307 308 311 310 308 311 311 309 307 304 306 306 308 313 309 306 305 304 301 296 294 294 294 294 294 295 297 298 295 291 289 287 286 285 284 283 282 281 281 281 281 282 281
304 304 311 309 306 304 305 304 300 298 295 293 295 301 302 303 297 294 292 290 289 288 287 287 287 287 290 292 290 287 286 285 285 284 284 283 283 283 282 282 281 280 281 281
301 302 302 302 300 297 297 297 294 292 291 290 287 287 288 288 287 286 286 285 285 284 285 284 284 284 284 285 286 285 284 284 284 284 284 285 285 284 283 283 282 280 279 278
298 301 301 299 296 294 292 291 290 288 287 286 285 284 284 283 283 283 283 283 284 284 284 283 283 284 284 285 285 285 285 285 284 283 283 283 282 282 281 281 280 280 279 277
299 300 298 298 295 291 290 289 288 287 285 285 284 283 282 282 281 280 280 279 279 279 280 280 280 282 284 284 284 282 282 281 281 280 280 279 279 278 278 278 277 277 276 276
292 291 291 291 290 289 287 286 285 284 283 282 281 280 279 279 279 278 278 278 277 277 278 278 279 280 280 280 280 279 278 278 277 277 277 276 276 276 276 276 275 275 274 274
286 286 286 285 285 284 283 283 282 281 280 280 279 278 278 278 277 277 276 276 276 276 275 276 277 277 277 277 277 277 276 276 275 275 275 275 274 274 274 274 273 273 272 271
284 283 283 283 282 282 282 281 280 280 279 278 278 277 277 276 276 275 274 274 274 274 275 275 275 275 275 275 275 274 274 274 273 273 273 273 272 272 271 271 271 270 270 269
282 282 281 281 281 280 280 279 278 278 278 277 277 277 276 276 275 275 274 273 273 273 274 274 274 273 273 273 273 272 272 272 271 271 271 270 270 269 269 269 269 268 268 267
281 281 280 280 279 279 279 279 278 278 278 277 277 277 275 274 273 273 272 272 272 272 272 272 272 272 271 271 270 270 270 269 269 269 268 268 268 267 267 267 266 266 266 266
281 280 280 279 279 278 277 277 277 276 276 276 275 274 274 274 273 272 272 271 271 271 270 270 269 269 269 269 269 268 268 268 267 267 266 266 265 265 265 265 264 264 265 264
279 279 279 279 278 277 277 276 276 275 275 274 274 273 273 272 271 270 270 270 269 269 268 268 268 267 267 267 267 266 266 266 266 265 265 264 264 263 263 263 263 262 262 261
276 276 276 276 276 277 276 275 274 273 272 272 272 272 271 271 271 270 269 269 268 268 267 267 266 266 266 266 265 265 265 264 264 264 263 263 262 262 261 261 261 260 260 260
274 273 273 273 273 273 273 272 271 271 270 270 270 270 270 270 269 269 268 268 267 266 265 265 264 264 264 264 264 263 263 263 262 262 262 261 261 261 260 260 259 259 259 258
271 272 272 271 270 271 271 270 269 268 269 269 268 268 268 268 267 267 266 266 265 265 264 264 263 263 263 263 263 262 262 262 261 261 261 260 260 259 259 259 259 258 258 257

GFSNGP_925_thetae_060.txt.gz
Theta_e
320 319 318 317 317 316 316 316 318 317 318 318 316 316 316 315 315 314 313 311 312 315 317 319 321 321 320 320 320 320 319 318 318 318 318 318 320 320 320 321 321 322 322 321
318 319 319 318 315 315 315 316 316 317 317 315 315 314 315 315 315 314 313 312 310 313 315 317 320 321 322 322 321 320 320 320 320 320 321 321 322 322 322 322 323 323 323 320
320 318 318 318 317 316 316 316 316 318 317 316 317 316 316 316 314 314 314 312 310 311 314 315 317 320 321 322 323 322 321 321 321 321 322 322 323 323 323 323 323 322 321 320
318 316 322 318 313 315 316 316 315 316 317 316 316 316 314 312 313 313 312 312 311 309 310 316 318 318 319 320 321 323 323 323 323 323 323 323 323 323 322 320 319 319 317 317
316 316 315 314 316 315 318 318 314 314 313 314 313 312 312 310 309 310 310 309 309 310 311 314 318 321 321 320 320 321 323 324 324 323 323 322 320 320 317 315 314 313 312 311
317 317 317 312 316 315 318 317 315 315 314 314 313 314 313 314 312 311 309 307 307 310 311 315 318 322 323 321 322 321 322 322 322 321 321 318 317 315 314 311 308 307 305 305
316 317 314 313 315 316 321 314 315 315 316 316 314 311 312 310 311 311 313 315 317 316 317 319 319 321 320 318 320 319 319 319 319 319 318 316 312 309 307 305 302 300 300 299
315 316 314 312 315 321 316 314 314 314 315 316 315 314 313 312 311 310 312 316 318 317 317 317 319 320 314 313 313 316 317 315 314 313 311 308 306 301 301 298 295 293 293 292
311 311 310 311 313 313 314 315 315 314 314 315 315 312 311 312 311 311 312 314 315 314 311 313 315 317 311 307 311 312 311 306 305 305 303 303 302 299 296 295 292 289 288 285
310 308 310 309 308 309 311 313 313 313 314 313 315 313 312 311 310 309 309 311 312 312 309 307 310 312 311 308 309 308 303 301 300 300 298 298 297 296 294 292 290 289 287 284
308 311 311 311 310 310 308 311 311 311 313 314 313 313 315 313 311 310 308 308 309 308 305 304 307 306 306 307 308 304 301 298 297 297 297 294 293 292 293 292 294 293 289 287
308 310 310 310 308 304 306 307 305 304 309 303 301 304 307 310 308 307 305 304 301 299 298 297 299 300 302 303 304 300 294 293 292 291 290 289 288 286 288 290 290 290 286 285
308 304 304 304 306 300 300 301 299 297 295 295 295 294 300 296 294 294 293 292 291 290 289 289 290 291 295 297 299 296 291 289 288 287 285 284 284 283 282 282 284 285 285 285
303 302 306 304 302 297 297 297 294 291 289 288 289 289 289 288 287 287 287 287 287 286 286 285 285 285 288 290 291 288 286 285 285 284 284 283 283 282 282 282 281 280 280 280
298 298 301 301 297 294 293 292 291 289 287 286 285 285 285 285 285 285 285 285 284 284 284 285 285 284 285 286 286 285 285 284 284 284 284 284 284 283 283 282 280 279 279 278
295 297 300 299 295 292 291 290 289 287 286 285 284 283 282 282 281 281 280 281 281 281 280 281 281 281 283 284 283 282 282 282 283 282 282 282 282 281 281 281 280 279 278 276
294 296 294 294 292 289 288 287 286 286 284 284 282 281 281 280 280 279 278 278 278 278 278 278 278 280 281 281 281 280 279 280 280 279 279 278 278 278 278 277 277 276 275 275
289 288 287 288 288 287 285 284 283 282 282 280 279 278 278 278 277 277 277 276 276 276 276 277 278 279 279 279 279 278 277 277 277 276 276 276 276 275 275 275 274 274 273 273
285 285 285 284 284 284 283 282 280 279 278 278 277 277 276 276 275 275 275 275 275 275 275 275 276 276 276 276 276 276 275 275 274 274 274 273 273 273 273 272 272 271 271 270
283 282 282 281 280 280 280 279 279 278 278 277 276 276 275 275 274 274 273 273 273 274 274 274 274 274 274 274 274 274 273 273 272 272 271 271 271 270 270 270 269 269 268 268
281 280 280 279 279 279 278 278 277 277 276 275 274 274 273 273 273 273 273 272 272 272 272 272 272 272 272 272 272 271 271 270 270 269 269 268 268 268 268 267 267 267 266 266
280 279 278 278 278 277 277 276 276 276 276 275 275 274 273 272 272 271 271 271 270 271 270 270 270 270 270 270 269 269 269 268 268 267 267 266 266 265 265 265 265 265 265 264
279 279 278 277 277 276 276 275 275 274 274 273 272 272 272 272 271 271 270 268 268 268 268 268 268 268 268 268 267 267 267 266 266 265 265 264 264 263 263 263 263 263 262 262
277 278 277 277 276 276 275 274 274 273 273 272 272 271 271 270 269 268 268 268 268 267 267 266 266 266 266 266 265 265 265 264 264 264 263 263 262 262 262 261 261 261 260 260
275 275 275 275 275 275 274 273 272 271 270 270 270 269 270 269 268 267 267 267 266 266 265 265 265 265 264 264 264 264 263 263 262 262 262 262 261 261 260 260 260 259 259 259
274 273 272 272 272 272 271 271 270 270 269 268 268 268 268 268 267 267 266 265 265 264 264 263 263 263 263 263 263 262 262 262 261 261 261 260 260 260 259 259 259 259 258 258
270 270 270 269 269 270 270 269 269 267 268 268 266 267 267 267 266 265 265 264 264 263 263 262 262 262 262 262 262 261 261 261 261 260 260 260 259 259 259 258 258 258 258 257

GFSNGP_925_thetae_063.txt.gz
Theta_e
320 319 319 319 318 317 316 318 319 319 319 319 318 319 320 320 318 317 318 315 315 317 321 323 323 322 321 320 319 318 317 317 316 316 315 315 315 315 315 315 316 316 317 318
319 318 318 319 318 316 316 316 317 317 319 317 318 316 316 318 318 318 318 317 317 315 317 320 322 322 322 321 320 319 318 318 318 317 317 316 316 315 315 316 316 317 318 319
318 317 317 320 317 316 317 316 317 319 318 318 318 318 318 319 319 318 318 317 317 315 315 318 320 321 322 322 321 320 320 320 319 319 318 318 318 319 319 319 319 319 320 321
318 315 315 318 315 314 317 316 316 316 316 316 316 317 317 317 318 318 316 316 316 315 315 314 316 318 321 322 322 321 321 321 321 321 320 320 320 321 321 321 321 321 321 321
318 317 314 312 315 319 320 318 318 318 318 318 317 314 315 314 313 314 314 314 313 313 313 313 314 316 318 319 322 322 322 322 322 322 322 322 322 322 322 322 322 321 320 318
317 320 317 314 316 316 317 318 317 317 317 317 317 321 319 316 315 315 313 312 313 313 311 310 312 316 318 318 319 321 322 323 322 322 322 321 321 322 320 318 316 313 311 309
318 318 316 313 315 316 316 315 316 316 317 317 317 317 317 315 315 313 312 313 316 318 317 317 317 318 320 320 320 319 319 319 320 321 322 322 320 317 313 310 307 303 303 300
317 319 316 311 315 317 315 315 315 316 316 316 316 316 315 314 314 313 314 314 316 318 315 314 317 318 318 317 316 319 320 319 318 317 316 313 312 307 305 302 298 295 294 293
315 316 311 312 313 311 312 313 314 314 314 313 314 314 314 314 314 313 312 313 313 314 313 312 313 314 313 308 311 312 310 307 306 307 305 305 304 300 296 295 291 289 288 286
311 309 311 311 311 311 309 311 309 306 308 312 312 313 315 314 313 312 311 311 311 310 307 306 306 307 307 308 309 308 304 301 300 300 298 297 297 296 294 292 291 289 287 285
310 310 312 311 309 306 307 306 304 303 301 301 301 305 308 312 309 308 307 304 303 303 301 299 299 300 303 304 305 301 297 296 295 294 293 291 291 292 292 292 293 291 289 287
312 307 307 308 308 302 303 303 300 299 298 296 295 297 301 298 296 295 296 296 296 295 296 294 292 292 296 298 298 296 294 292 291 290 289 288 287 285 287 290 290 290 287 286
305 303 304 305 304 299 299 299 296 293 292 291 291 292 292 291 291 290 290 289 289 289 289 289 289 289 289 291 294 293 290 289 288 288 287 286 285 284 283 282 283 283 283 283
299 300 306 303 302 296 295 295 293 291 289 287 288 288 287 288 287 287 287 286 286 286 286 285 286 286 287 289 288 286 285 285 285 284 284 283 283 283 282 282 281 281 280 280
295 295 297 299 296 293 292 292 291 290 288 287 285 285 285 284 284 283 283 283 283 283 283 283 282 282 283 285 284 284 284 283 283 283 283 283 283 282 282 281 281 280 279 278
293 294 295 296 292 290 289 289 288 287 286 285 284 283 282 281 280 280 280 280 280 280 279 280 280 280 281 282 282 281 281 282 282 281 281 281 281 281 281 281 280 279 278 277
291 293 290 291 290 287 286 286 286 284 283 282 281 281 280 279 278 278 277 277 277 277 277 277 277 279 280 280 280 279 279 279 279 278 278 278 278 279 278 278 277 276 275 274
288 287 286 287 287 285 284 283 282 281 280 279 278 277 277 277 277 276 276 276 275 275 275 275 276 277 278 279 278 277 277 277 276 276 276 276 275 275 275 275 275 274 272 271
284 284 283 283 282 282 281 280 279 278 277 276 275 275 275 274 274 274 274 274 274 274 273 274 274 275 275 275 276 275 275 275 274 274 273 273 273 273 273 272 272 271 271 270
282 281 280 280 279 279 278 278 277 276 276 275 275 274 274 274 273 273 272 272 271 271 272 272 272 272 272 273 273 272 273 273 272 271 271 270 270 270 269 269 269 268 268 267
280 279 278 278 277 277 277 276 275 275 274 274 273 273 272 272 272 272 272 271 270 270 270 270 270 270 270 270 270 270 270 269 269 268 268 268 267 267 266 266 266 265 265 265
279 278 277 277 276 276 275 275 275 274 274 274 273 273 273 272 270 269 269 269 268 268 268 268 268 269 269 268 268 267 267 266 266 266 265 265 265 264 264 263 263 263 263 262
278 277 277 276 276 275 274 274 273 273 272 272 271 271 270 270 270 270 269 267 267 267 266 266 266 267 267 266 266 266 265 265 264 264 263 263 263 262 262 262 261 261 261 261
277 277 276 276 275 275 274 274 273 273 272 271 270 270 270 269 268 267 266 266 266 266 265 265 265 265 265 265 264 264 263 263 263 263 262 262 262 261 260 260 260 259 260 260
275 275 275 275 275 274 273 272 271 271 270 269 269 268 268 267 267 265 266 265 265 264 264 264 264 264 264 264 263 263 262 262 262 261 261 261 260 260 260 259 259 259 259 259
274 273 272 272 272 272 271 271 270 270 269 268 266 266 267 266 266 265 265 264 264 263 263 263 263 263 263 262 262 262 261 261 261 261 260 260 259 259 259 259 258 258 258 258
270 270 270 269 268 268 269 268 268 266 267 266 265 265 266 265 265 264 264 263 263 262 262 262 262 262 262 261 261 261 261 260 260 260 259 259 259 258 258 258 258 258 258 258

GFSNGP_925_thetae_066.txt.gz
Theta_e
321 320 320 321 321 319 318 319 321 320 320 320 319 319 320 320 321 321 321 321 322 322 325 327 327 326 326 325 324 323 322 321 321 321 321 321 321 320 320 320 319 319 320 320
317 317 319 320 320 320 320 320 319 320 320 319 319 320 320 320 321 321 322 322 321 322 322 323 326 326 326 325 325 324 323 323 322 321 321 320 320 320 320 320 320 319 319 320
316 315 314 318 320 319 319 319 320 321 320 319 320 320 321 321 320 320 321 320 321 321 322 322 322 324 326 326 326 325 324 324 323 323 322 321 321 320 320 320 320 319 319 320
317 316 317 319 317 317 319 319 318 318 320 321 321 321 319 319 319 319 319 319 319 319 320 319 318 320 324 325 326 326 325 324 323 323 323 323 322 321 321 321 321 321 321 321
314 315 315 313 316 317 317 321 317 318 319 320 319 321 320 319 318 319 320 320 319 317 317 319 317 316 318 322 324 325 325 325 324 324 324 323 323 323 323 323 324 323 322 322
317 315 312 313 317 317 319 316 314 316 317 316 318 323 322 319 318 318 318 319 319 318 320 321 320 318 316 319 322 324 324 325 325 325 325 324 325 325 324 324 322 320 320 318
315 317 314 314 316 317 314 316 314 314 314 315 315 317 318 317 317 317 317 318 319 320 321 320 320 321 320 319 320 321 323 324 325 325 325 325 324 318 318 318 315 310 308 305
313 315 318 315 314 314 316 314 316 316 316 318 318 317 316 315 316 317 317 318 318 319 318 316 317 321 322 322 319 320 321 322 321 321 320 317 316 313 310 308 303 299 296 294
313 314 316 315 314 315 314 315 315 314 313 312 315 316 316 316 317 317 316 316 316 315 313 310 308 312 316 310 310 311 309 306 307 308 307 306 306 302 299 298 294 291 290 288
311 312 313 314 314 312 312 312 310 309 309 307 308 309 310 313 314 314 313 310 310 311 310 306 302 301 302 305 305 305 303 301 299 298 297 297 297 296 295 293 291 289 288 286
310 310 312 313 312 309 309 309 308 305 304 303 302 304 305 307 304 304 303 301 301 304 303 301 299 296 297 299 300 298 296 295 294 294 292 290 289 290 290 291 291 289 287 285
312 310 309 310 308 305 306 306 304 302 301 300 298 299 300 299 298 297 297 296 294 292 291 293 293 292 292 298 296 294 292 292 290 290 288 287 286 284 285 288 290 288 286 286
309 306 306 307 304 300 300 300 300 299 297 296 296 295 295 294 291 290 290 290 289 289 288 288 288 287 288 289 295 292 289 288 288 287 288 286 285 284 283 282 282 282 282 282
300 301 306 302 302 297 297 296 294 292 291 290 290 290 290 289 288 286 285 285 285 285 285 285 285 284 285 287 287 286 286 285 285 284 284 283 283 283 282 282 282 281 281 281
296 296 297 298 295 293 292 293 292 290 288 287 285 285 284 283 283 282 282 282 282 281 282 282 282 282 282 283 283 283 283 283 284 283 283 283 282 282 281 281 280 280 279 279
293 295 294 293 291 290 289 289 289 286 285 284 283 282 281 281 279 279 279 279 279 279 279 279 279 280 281 281 281 281 281 282 283 283 283 282 283 283 282 281 280 280 279 279
292 295 293 293 291 288 287 286 286 285 283 281 280 280 280 279 279 278 277 276 276 277 278 278 278 279 280 281 282 282 281 280 281 281 281 280 280 280 280 279 278 277 275 275
288 288 288 288 289 287 285 284 282 281 280 278 277 277 277 278 278 277 277 277 276 275 276 276 276 277 277 278 279 280 280 279 279 279 278 278 278 278 277 277 276 275 274 273
285 285 285 284 284 283 282 280 279 278 277 277 276 276 276 275 275 275 275 276 276 276 274 275 275 275 275 276 278 278 278 277 277 277 276 276 276 275 275 275 274 274 273 272
283 282 281 281 280 280 279 278 278 277 276 276 276 276 275 275 274 274 273 273 272 272 272 272 273 273 273 273 275 275 275 275 274 273 274 274 273 273 271 271 272 272 271 270
280 279 279 278 278 277 277 276 276 275 275 275 274 273 272 272 272 274 274 272 270 270 270 270 270 271 271 271 272 272 272 271 271 271 271 271 270 270 270 269 269 269 269 268
279 278 278 277 277 277 276 275 275 274 274 274 274 274 273 272 271 270 269 270 269 269 269 268 268 267 269 269 269 269 269 269 269 269 268 268 268 268 268 267 267 267 267 266
278 278 277 277 276 276 275 274 274 273 273 272 272 272 272 271 272 272 270 268 268 267 267 266 265 266 267 268 268 267 267 267 267 266 266 266 266 266 266 265 265 265 264 264
278 278 277 276 276 276 276 275 274 273 272 272 271 271 272 271 270 269 267 266 265 265 264 264 264 265 266 266 266 266 266 266 266 265 265 264 265 264 264 263 263 263 262 262
277 277 277 277 277 276 275 274 273 272 272 271 271 270 269 269 268 267 267 265 264 265 265 263 263 264 265 265 264 265 265 264 263 264 264 264 263 263 263 262 261 261 260 260
276 276 275 274 275 275 274 274 274 273 272 270 269 269 268 267 267 267 265 265 264 264 264 264 263 265 264 264 264 263 264 263 263 262 262 262 261 262 261 260 260 259 259 258
274 274 274 273 272 271 272 272 272 271 271 270 269 268 268 267 266 266 265 265 264 264 264 263 263 263 263 263 263 263 263 262 261 261 261 261 260 260 259 258 258 258 257 257

GFSNGP_925_thetae_069.txt.gz
Theta_e
318 320 320 319 319 320 320 321 322 322 321 320 320 320 320 320 321 321 322 322 323 323 326 328 329 329 329 328 327 326 325 324 324 325 325 325 325 325 324 324 324 324 323 323
322 318 319 320 319 318 319 320 320 321 321 320 320 320 320 320 321 321 322 322 322 323 323 324 327 328 329 329 329 327 327 326 325 325 325 325 325 325 324 324 324 324 323 324
325 319 318 320 320 320 320 320 321 322 322 321 321 320 321 322 322 322 321 321 322 322 322 322 323 324 328 328 328 328 328 327 326 326 325 325 325 325 325 325 324 324 324 323
320 320 321 322 319 318 321 320 320 320 319 320 319 319 321 321 321 321 320 321 322 322 321 320 321 321 321 325 328 328 328 328 327 327 326 326 325 325 325 325 325 325 324 324
315 319 319 316 318 320 323 321 317 319 319 318 317 319 323 321 319 320 320 319 320 321 322 322 323 323 320 320 323 327 328 328 327 327 327 326 326 326 325 325 325 325 324 324
317 320 319 316 318 317 316 322 315 316 317 316 316 317 318 317 318 318 318 318 320 321 322 321 321 322 323 322 319 320 325 328 328 327 327 327 327 327 326 325 325 325 323 322
316 316 313 315 316 317 318 320 316 316 317 317 318 317 317 317 317 318 318 319 319 320 319 317 316 319 323 323 322 323 323 323 326 326 327 327 327 327 326 324 318 318 316 311
313 314 315 316 315 317 318 316 316 316 315 315 315 315 316 317 317 318 318 318 317 318 317 312 310 314 316 312 311 315 318 318 316 319 318 322 321 317 316 315 307 300 297 294
312 313 316 316 317 315 315 315 314 313 313 312 313 313 313 314 316 316 316 314 313 314 312 307 303 301 303 303 304 304 304 303 305 308 308 309 309 305 302 300 297 293 291 288
314 315 315 315 314 313 313 313 311 310 309 309 309 309 309 312 310 309 308 307 306 307 305 301 297 296 295 298 299 299 295 294 293 293 293 295 295 295 296 294 292 290 288 286
311 313 314 314 312 310 311 310 309 308 307 306 305 306 305 306 304 303 302 300 299 299 297 295 292 291 291 293 296 295 293 291 290 289 288 286 286 288 289 290 291 289 286 285
315 312 313 312 309 307 307 306 306 305 304 303 302 302 301 301 297 295 295 294 294 293 293 292 291 289 289 289 291 293 291 290 289 287 286 286 285 284 284 285 286 286 285 285
310 307 308 307 304 302 303 302 301 300 298 297 297 296 296 295 291 290 289 288 288 288 287 287 287 286 286 287 288 288 288 287 286 285 285 284 283 283 283 283 283 283 283 283
302 303 307 303 302 299 297 298 297 296 293 291 290 289 287 286 284 285 284 283 283 284 284 284 284 283 283 284 285 285 285 285 284 284 284 283 282 282 282 282 282 282 281 281
298 299 299 298 296 294 293 294 294 292 290 288 286 285 284 283 281 280 280 281 281 281 280 282 283 283 283 283 283 283 284 284 284 284 283 283 282 282 281 281 281 280 280 279
296 298 297 296 294 292 291 291 292 291 289 287 285 283 281 281 279 279 279 279 280 280 280 280 280 282 283 284 284 284 283 283 283 283 283 283 283 282 281 280 279 279 280 280
293 294 293 294 293 291 290 289 288 287 285 284 283 282 282 281 281 280 279 278 278 278 278 278 279 280 281 282 282 282 282 282 281 281 282 282 281 280 279 279 277 277 276 276
290 289 289 289 289 289 287 285 284 283 282 281 280 279 279 279 279 278 278 278 277 276 276 276 277 277 279 280 281 281 281 280 280 279 279 279 279 279 278 277 277 276 276 275
286 286 285 285 285 284 283 282 280 279 279 278 278 277 276 276 275 275 274 274 274 274 274 275 275 276 276 277 279 279 278 278 278 278 277 277 277 277 276 276 275 275 274 273
283 283 282 281 281 280 280 279 279 278 278 278 277 277 276 276 276 275 273 272 272 272 272 272 274 274 274 275 276 276 276 276 276 275 275 275 275 274 273 273 273 273 272 272
281 280 279 279 279 278 278 278 277 276 276 275 275 274 273 273 272 274 274 273 271 271 271 271 271 272 272 273 273 274 273 273 273 273 273 273 273 272 272 272 271 271 271 270
280 279 279 278 278 277 277 276 276 275 275 275 275 275 275 274 273 271 270 271 270 270 270 269 269 269 270 271 271 271 271 271 271 271 271 271 271 271 270 270 270 269 269 269
280 279 278 278 277 277 276 275 275 274 274 274 274 273 273 272 272 273 271 269 269 268 268 267 267 268 269 270 270 270 270 269 269 269 269 269 269 268 268 267 268 267 267 266
279 279 279 278 278 278 277 276 275 274 273 273 272 272 274 274 272 270 269 268 267 267 266 266 266 267 268 269 268 268 268 268 268 268 268 267 267 267 267 266 266 266 265 265
279 279 279 279 279 278 277 276 275 274 274 273 272 271 271 270 270 269 269 268 266 268 268 266 266 267 268 267 267 268 268 266 265 267 267 266 266 266 265 265 264 263 263 263
280 279 277 277 278 277 277 277 277 276 275 273 272 271 271 270 270 269 268 267 267 267 267 267 266 267 267 266 266 266 266 266 266 265 265 265 265 265 264 263 263 263 262 261
277 277 277 276 275 274 275 275 275 274 273 273 272 271 270 270 268 269 268 268 268 267 267 267 267 265 265 265 266 265 265 265 264 263 264 264 263 263 262 261 261 261 260 260

GFSNGP_925_thetae_072.txt.gz
Theta_e
319 318 321 324 323 322 324 325 328 326 326 326 323 322 322 322 321 321 321 323 324 324 326 329 331 332 331 329 328 327 326 326 326 327 327 327 326 326 326 325 325 324 324 324
316 317 319 324 322 322 324 324 323 322 323 322 321 321 323 324 323 323 323 323 323 323 322 323 328 330 331 331 330 328 327 326 325 326 327 327 327 327 327 326 326 325 325 324
318 319 321 322 322 322 321 320 321 325 324 322 321 320 323 322 322 321 321 321 323 324 324 323 322 323 324 330 331 330 329 328 327 326 326 327 327 327 327 326 326 326 325 325
317 317 323 319 320 320 323 323 322 322 322 320 319 322 321 320 320 321 320 320 321 322 324 324 324 323 324 325 321 330 330 329 328 328 327 326 326 326 326 326 326 325 325 325
319 318 318 318 320 324 321 325 322 322 320 318 316 321 318 317 319 319 319 320 321 321 321 319 318 318 322 324 324 321 328 330 330 329 328 327 327 326 326 326 326 326 325 325
317 319 321 317 320 317 317 321 317 318 318 318 318 323 319 317 317 318 319 319 319 319 316 313 312 316 318 315 314 315 318 321 321 329 329 328 328 327 327 326 326 326 326 324
316 319 315 315 319 318 320 321 318 317 316 315 316 316 315 316 317 318 318 317 316 316 310 306 304 310 308 307 307 308 310 310 309 309 315 322 328 328 327 327 325 319 316 312
314 315 317 316 317 319 319 318 315 315 314 315 314 313 312 314 315 313 312 310 311 312 307 301 299 300 301 301 301 301 300 299 300 301 300 302 311 314 319 317 313 309 306 301
312 314 317 317 316 316 315 314 312 312 311 310 311 310 309 311 310 309 307 305 304 304 302 297 295 294 295 295 297 297 298 294 293 293 293 293 293 297 300 301 299 295 293 289
315 317 316 314 313 313 311 311 310 309 308 307 308 307 307 306 304 303 301 300 299 298 297 295 292 292 292 292 295 294 294 294 292 290 287 286 288 288 290 292 292 290 288 286
316 315 312 311 309 310 308 308 307 306 305 304 304 304 304 301 298 296 295 293 293 292 292 291 289 289 289 290 292 293 291 289 288 287 286 285 284 284 285 286 289 286 285 285
316 310 311 309 306 306 306 305 304 303 301 300 298 299 299 295 293 291 289 288 288 287 287 287 286 285 286 287 289 290 289 287 287 286 285 284 284 283 284 284 284 284 284 284
305 306 307 306 302 301 301 301 300 299 296 295 293 292 292 289 287 286 285 284 284 284 285 284 284 284 284 285 286 286 286 286 285 284 284 284 283 283 282 282 282 282 282 282
301 304 304 300 299 297 298 298 296 294 291 289 289 288 286 285 284 283 283 283 282 282 283 283 284 285 284 285 285 285 284 284 284 283 283 283 282 282 282 281 280 280 280 280
298 300 299 298 296 295 295 295 295 292 289 287 285 284 283 282 281 281 281 281 281 281 280 280 282 283 284 284 284 284 284 284 284 283 283 282 282 281 281 281 280 280 280 279
297 296 296 296 295 294 293 292 292 290 288 286 284 283 282 281 281 280 279 278 279 278 278 279 279 281 282 283 283 283 282 283 283 282 282 281 280 279 279 278 278 277 278 278
293 293 292 292 293 290 289 288 287 286 284 283 283 282 282 281 280 279 278 276 276 276 276 277 277 278 280 281 281 281 281 280 281 280 280 280 279 278 277 276 276 276 276 275
289 288 288 288 289 287 285 284 283 282 281 280 279 278 277 277 276 276 275 274 274 273 274 275 275 276 277 279 279 279 279 279 279 278 278 278 278 278 277 277 276 275 274 274
285 285 285 284 284 283 282 281 280 279 279 278 277 277 276 275 274 274 274 274 273 272 272 274 274 275 275 276 277 277 277 277 277 277 276 275 275 275 276 275 274 274 273 272
283 282 281 280 280 280 279 279 278 277 277 276 275 275 274 274 276 274 273 272 272 272 271 272 273 273 274 274 275 275 275 275 275 274 274 274 274 274 273 273 273 272 272 271
280 280 279 279 279 278 278 277 276 276 275 275 275 274 273 272 272 273 273 272 270 270 270 270 270 272 272 273 273 273 273 273 273 273 273 273 272 272 272 271 271 270 270 270
280 279 279 278 278 277 277 276 275 275 275 274 275 275 275 274 272 270 270 271 270 270 269 269 269 270 271 271 271 271 271 271 271 271 271 271 270 270 270 269 269 269 268 268
280 279 278 278 277 277 276 275 275 275 274 274 274 274 273 272 272 271 270 268 268 268 268 267 268 269 270 270 270 270 270 270 269 269 269 268 268 268 268 267 267 267 266 266
280 280 279 279 279 278 278 277 276 274 273 273 272 272 273 274 272 270 269 268 268 268 266 267 267 268 268 268 269 268 267 267 268 268 268 268 267 267 267 266 266 265 264 265
280 280 280 280 279 278 277 276 276 276 275 274 273 272 271 270 270 269 269 268 268 269 268 267 267 268 268 268 267 267 268 266 266 266 266 266 266 266 265 264 264 263 264 263
280 279 278 278 278 278 278 278 278 276 276 274 273 272 271 271 270 270 269 269 268 268 268 268 266 266 267 267 267 266 267 266 265 265 265 265 265 265 264 263 263 263 262 261
278 278 278 277 276 275 275 275 277 275 274 274 273 272 271 271 269 270 269 269 269 268 268 268 268 266 266 266 266 266 266 265 265 264 264 264 264 263 263 262 261 261 260 260

GFSNGP_925_thetae_075.txt.gz
Theta_e
316 314 317 318 320 322 324 324 329 328 327 327 325 323 321 321 321 321 321 322 322 322 321 323 327 326 325 325 326 326 325 325 324 323 323 322 322 323 323 323 322 322 322 322
314 314 315 319 320 321 325 323 324 326 327 323 323 323 321 320 320 321 321 321 322 323 323 322 322 323 324 326 326 326 325 325 325 325 324 324 323 323 323 323 323 323 323 322
315 315 316 321 322 324 324 324 325 328 325 323 325 322 320 319 319 320 321 321 322 321 320 318 317 318 321 323 323 326 326 325 325 325 326 326 325 324 324 324 324 323 323 323
314 316 324 318 318 321 323 324 323 324 324 323 321 317 317 317 317 318 320 321 319 316 313 310 310 316 317 316 315 316 319 322 325 324 324 325 326 326 326 325 325 325 324 324
314 316 316 319 321 320 324 321 318 321 322 320 320 317 315 316 317 317 318 317 313 309 306 304 304 309 309 309 310 310 311 310 310 312 318 325 325 325 326 325 325 325 325 325
314 317 321 318 318 315 317 322 316 317 317 317 316 317 315 315 311 310 309 310 308 303 301 299 299 303 304 304 304 304 305 304 303 305 304 310 315 319 324 325 325 325 324 324
313 315 315 319 317 315 321 320 319 315 314 313 313 312 313 311 308 306 304 304 304 299 297 296 295 298 298 297 299 299 299 299 300 303 302 298 302 310 310 316 323 323 320 314
311 313 314 318 318 321 319 316 313 312 312 312 310 310 308 306 303 301 300 300 300 297 295 293 293 294 294 294 295 295 294 293 293 298 299 299 300 297 301 301 299 296 295 294
311 312 316 315 317 313 311 311 310 309 308 308 307 307 304 302 299 297 296 295 295 295 294 291 290 290 291 291 294 293 292 290 288 288 288 292 296 295 293 292 292 290 289 288
314 315 314 311 310 309 309 308 306 305 304 304 304 303 299 297 296 293 292 292 291 291 290 288 287 287 288 289 292 291 290 288 286 286 285 286 286 286 288 289 288 287 286 285
309 305 308 307 307 306 305 305 304 301 299 299 299 298 295 293 291 290 289 288 288 287 287 286 286 286 286 287 289 289 288 287 285 285 284 284 284 284 284 285 286 285 285 285
310 306 305 303 303 302 302 301 298 298 296 293 294 293 291 289 287 286 285 285 285 285 285 286 285 285 285 285 286 287 286 285 284 284 284 283 283 283 283 283 284 284 284 284
305 304 302 299 298 299 299 296 294 292 291 290 288 288 286 286 285 284 283 283 283 283 283 283 285 285 285 285 284 284 284 284 283 283 283 283 282 282 281 281 281 281 283 283
300 301 298 296 296 296 297 294 291 288 287 286 286 284 283 282 282 282 281 281 281 280 280 281 282 283 284 283 284 284 283 283 283 282 282 281 281 280 280 280 279 278 279 280
297 297 297 295 294 292 293 292 289 288 286 284 283 283 282 281 279 278 278 278 278 278 278 278 279 281 282 282 282 282 282 282 281 280 280 279 279 278 278 279 278 278 277 277
294 292 293 293 291 290 289 289 287 286 285 283 282 281 280 278 277 276 276 276 276 276 276 276 277 279 281 281 281 280 280 280 280 279 279 278 277 277 276 276 276 275 275 275
290 290 289 290 287 286 285 285 284 283 281 279 279 280 278 277 276 275 274 274 273 274 275 275 276 278 279 279 279 279 278 278 279 279 278 278 277 276 276 275 274 274 274 273
286 285 285 286 285 283 282 281 280 279 278 277 276 275 275 274 274 274 273 273 272 273 273 274 275 276 277 277 277 277 277 277 276 276 276 276 276 275 274 274 273 272 271 271
282 282 282 281 281 281 280 279 278 277 277 276 275 274 274 273 272 272 272 271 271 271 271 273 273 274 274 275 275 276 275 275 275 275 274 274 273 273 273 272 272 271 270 270
280 279 279 278 278 277 276 276 276 275 275 275 274 273 273 274 272 271 270 270 270 270 270 271 272 272 272 273 273 273 273 273 273 273 273 272 272 272 271 271 270 270 270 269
277 277 276 276 276 276 276 275 275 275 274 274 273 272 271 271 272 272 270 269 269 269 269 270 271 271 271 271 271 271 271 271 271 271 271 270 270 270 269 269 269 268 268 268
278 277 276 276 275 275 275 275 274 274 274 274 274 273 272 270 270 269 269 268 268 268 268 269 269 270 270 270 270 269 269 269 269 269 269 268 268 268 267 267 267 267 266 266
278 278 277 276 275 275 275 274 274 274 273 273 273 272 271 270 270 269 268 268 267 267 267 268 269 269 269 268 268 269 268 268 268 268 268 267 267 267 266 266 265 265 265 265
279 278 277 276 276 276 275 274 273 273 273 272 271 272 272 270 269 268 268 268 268 268 267 268 268 268 267 267 268 267 267 267 267 267 266 266 266 266 265 265 264 264 264 263
279 279 279 279 278 277 276 275 275 274 274 273 272 271 270 270 269 268 268 268 268 268 267 267 267 267 267 266 266 266 266 266 265 265 265 265 265 264 264 263 263 263 262 262
279 278 277 277 276 275 276 277 276 275 274 273 272 271 270 270 270 269 269 269 268 268 268 267 267 266 266 266 266 266 265 265 264 264 264 264 264 263 263 262 262 262 261 261
278 277 277 276 275 274 274 274 273 272 272 273 272 271 271 270 270 269 269 268 268 268 268 268 267 267 266 266 266 265 265 265 264 264 263 263 263 263 262 262 261 260 260 260

GFSNGP_925_thetae_078.txt.gz
Theta_e
313 314 314 315 318 318 319 321 325 323 325 327 327 326 323 320 322 323 324 324 323 321 321 322 322 323 324 325 324 323 323 322 321 321 321 322 322 322 322 321 320 321 321 321
312 312 315 317 317 316 317 320 320 322 326 322 325 324 321 319 321 323 323 320 317 316 314 315 318 319 319 321 322 325 323 323 322 322 321 320 321 321 321 322 322 321 320 320
310 313 313 317 317 317 317 320 322 325 322 323 326 322 320 318 321 322 319 315 312 310 308 308 310 311 311 312 314 321 323 323 323 323 322 322 321 321 320 321 322 322 321 321
310 312 318 319 314 320 323 321 322 324 324 321 318 316 314 317 319 316 312 308 306 305 303 302 305 306 306 306 307 308 309 310 311 312 314 319 323 322 322 321 322 322 322 321
308 313 310 315 317 322 316 317 321 322 322 320 317 313 310 308 311 309 306 303 301 300 299 298 301 301 301 301 301 302 303 303 303 304 307 310 312 315 320 323 323 322 322 322
310 313 312 317 316 316 318 320 317 320 320 318 316 315 309 305 304 303 302 299 298 296 295 295 297 298 297 297 297 297 297 297 296 297 299 300 302 306 310 313 317 323 320 316
310 312 313 313 317 317 321 321 314 313 313 314 314 309 304 301 299 298 298 297 296 294 293 292 293 295 295 295 295 294 292 291 290 291 292 293 295 299 302 303 305 304 300 296
310 313 313 316 316 319 315 313 312 311 310 310 306 303 300 298 296 295 295 294 294 293 291 290 289 292 292 292 293 291 289 288 287 287 288 289 290 291 294 297 295 292 291 288
309 311 314 313 314 312 311 309 307 308 306 305 302 300 298 295 293 292 291 291 291 290 289 288 288 288 289 289 291 290 288 286 285 285 285 286 286 287 288 289 289 289 288 287
312 310 309 308 308 307 304 303 301 300 301 301 299 296 294 292 290 289 288 288 288 288 287 287 286 287 287 288 290 288 287 285 284 284 284 284 285 285 285 286 286 286 286 285
308 304 306 304 302 302 302 300 297 295 295 296 294 292 290 289 287 286 286 286 286 287 286 286 286 286 286 286 287 287 286 285 284 284 283 283 283 284 284 284 285 285 284 285
308 302 303 302 299 298 296 294 294 293 291 290 290 289 288 286 285 284 284 284 284 284 284 285 284 284 284 284 285 285 285 284 284 283 283 282 282 281 281 282 283 283 284 284
302 298 297 297 298 295 293 290 289 289 288 286 286 285 285 284 283 282 282 281 281 281 281 282 283 283 282 283 283 283 283 282 282 282 281 281 281 281 280 279 278 279 280 281
298 299 296 294 294 294 291 289 287 285 284 284 283 283 282 281 280 279 279 278 278 278 278 279 280 281 281 282 282 282 281 280 280 280 280 279 279 279 278 278 277 276 276 277
294 295 293 292 290 291 290 288 286 284 283 282 281 280 279 277 277 276 276 276 276 276 276 277 278 279 280 280 279 280 280 279 279 279 278 278 278 277 276 276 275 275 275 276
291 292 291 289 288 288 287 286 286 284 283 281 279 278 277 276 275 274 274 274 274 274 275 276 277 278 279 279 279 279 279 279 278 278 277 277 276 276 275 275 274 273 273 273
289 288 289 287 285 284 283 283 282 281 279 279 278 277 276 275 274 273 272 273 273 273 274 274 275 277 278 278 278 277 277 277 277 277 276 276 275 275 274 273 272 271 271 271
283 283 283 284 283 282 281 280 279 278 277 276 274 274 273 272 272 271 271 272 272 272 273 273 274 275 276 276 276 276 276 275 275 275 275 274 274 273 272 272 271 270 270 269
281 281 281 281 280 280 279 278 276 275 275 274 273 272 272 271 271 271 271 270 270 270 271 272 272 273 274 274 275 274 274 274 273 273 273 273 272 271 271 270 270 269 268 268
279 278 278 277 276 276 275 275 275 274 274 274 273 272 272 271 270 270 270 269 269 269 270 271 271 271 272 273 273 273 273 272 271 271 271 271 270 270 269 269 269 268 268 267
274 274 274 273 274 274 274 274 274 273 273 273 272 271 270 271 271 270 269 268 268 269 270 270 270 270 270 270 271 271 271 270 270 270 269 269 269 268 268 268 267 267 267 266
275 274 274 274 274 274 274 274 274 274 273 272 271 271 270 269 268 268 268 268 267 268 269 269 269 269 269 269 269 269 268 268 268 268 268 267 267 267 266 266 265 265 265 265
276 276 275 275 274 274 274 274 273 273 273 272 272 271 270 269 269 268 267 267 267 268 268 268 268 268 268 267 268 268 268 267 267 267 267 266 266 266 265 265 264 264 264 264
277 276 275 275 275 274 273 273 273 272 272 272 272 271 270 269 268 268 268 268 267 267 267 267 267 267 267 267 266 266 266 266 266 266 265 265 265 265 264 264 263 263 262 262
278 278 276 275 276 275 275 274 273 273 272 272 271 270 270 269 269 268 268 268 268 267 267 266 266 266 266 266 266 265 265 265 264 264 264 264 264 263 263 263 262 262 262 261
278 277 276 276 275 275 275 275 274 274 272 271 271 270 270 269 269 269 268 268 268 267 267 267 267 266 266 265 265 265 265 265 264 264 263 263 263 263 262 262 261 261 260 260
277 276 275 274 274 274 274 273 273 272 272 272 271 270 270 269 269 269 268 268 268 267 267 267 267 266 266 265 265 265 265 264 264 264 263 263 263 262 262 262 261 261 260 260

GFSNGP_925_thetae_081.txt.gz
Theta_e
311 311 312 313 314 314 315 316 319 317 322 324 323 322 322 322 322 319 317 317 317 318 319 320 320 321 323 323 323 322 322 321 321 322 322 322 322 322 322 321 321 321 320 318
310 309 311 313 310 313 314 316 317 317 319 320 323 322 322 320 319 316 315 313 312 312 313 313 312 312 312 313 318 322 322 322 322 321 321 321 322 322 322 322 321 321 321 320
307 307 308 311 314 316 317 317 315 318 318 323 324 324 322 321 315 311 310 308 307 306 307 306 306 306 305 307 309 312 312 313 315 320 321 321 321 320 320 321 321 321 320 320
307 307 305 311 314 315 318 318 317 319 318 321 317 313 314 313 309 306 305 303 302 301 301 301 301 301 301 302 303 303 303 303 303 307 309 312 317 321 320 320 320 320 321 321
306 307 306 308 315 316 315 318 315 320 319 315 311 309 306 306 304 302 300 299 298 297 297 298 298 298 298 298 297 297 297 296 296 299 300 301 303 307 310 314 318 320 320 321
307 308 307 312 314 313 313 319 314 318 317 315 315 312 305 301 301 299 297 295 295 294 293 294 296 296 296 295 293 292 292 292 292 293 293 294 295 296 300 303 304 308 306 302
307 307 308 311 317 314 319 318 313 314 315 311 307 305 300 297 297 296 295 294 293 291 291 291 293 294 294 293 291 289 288 288 288 289 290 291 292 293 294 294 295 294 293 292
307 309 309 314 315 314 313 311 310 309 307 305 301 298 296 295 293 293 293 292 291 290 289 289 289 291 291 292 290 289 288 287 286 286 286 287 289 289 290 291 290 289 288 286
308 308 310 310 313 310 306 307 306 307 304 302 298 296 294 292 290 289 289 289 289 289 288 287 287 288 288 289 289 288 286 285 285 285 285 285 286 286 286 287 287 286 286 285
310 306 305 305 302 301 299 298 299 299 299 297 295 293 291 289 288 288 287 287 288 287 287 286 286 286 286 287 287 287 286 285 284 284 283 284 285 285 285 285 285 285 285 284
308 305 304 300 298 298 296 294 293 293 293 292 291 290 288 287 286 286 285 285 285 285 285 284 284 283 284 285 286 285 285 284 283 283 283 282 282 283 283 283 284 284 284 284
305 301 300 299 296 293 292 291 290 289 288 288 288 287 286 285 284 283 282 282 282 282 283 283 282 282 282 283 283 284 284 283 283 282 282 281 280 279 280 280 281 281 282 282
300 297 297 295 292 291 289 288 287 286 285 285 285 284 283 282 281 281 280 279 280 280 280 280 281 281 281 281 281 281 281 281 280 280 280 280 279 278 277 277 277 278 279 279
295 297 295 294 292 290 288 286 284 283 283 282 281 280 280 280 279 278 278 278 277 277 277 278 278 278 279 280 280 280 279 279 279 279 278 278 277 277 276 275 274 274 274 276
293 291 291 290 289 289 287 285 284 283 282 280 279 278 277 276 275 275 275 276 276 276 276 277 277 278 279 278 278 279 278 278 278 278 277 277 276 276 275 274 273 273 274 274
290 289 288 287 286 286 285 284 284 282 281 279 278 276 276 275 274 273 273 273 273 272 274 275 276 277 278 279 278 278 278 277 277 277 276 275 275 274 273 272 271 271 270 270
288 288 287 285 284 283 282 282 281 280 279 278 277 276 275 274 273 273 272 272 272 272 273 273 274 276 277 277 277 277 277 277 276 276 275 274 273 273 272 271 270 269 269 269
283 283 283 283 282 281 280 279 278 277 276 274 273 273 272 271 271 270 271 271 272 272 272 272 273 274 275 275 276 276 275 275 274 274 273 273 272 272 271 270 269 268 268 268
281 281 281 280 280 279 278 276 274 274 273 273 272 271 270 270 270 270 270 270 269 269 270 271 272 273 273 273 274 274 274 273 273 272 272 271 271 270 269 269 268 268 267 267
278 278 277 275 275 275 273 274 274 273 273 273 272 271 270 269 269 269 269 268 268 269 270 270 271 271 271 272 272 272 272 272 271 271 270 270 269 269 269 268 268 267 267 266
272 273 273 273 272 273 274 274 274 273 272 273 272 270 270 270 269 269 268 267 268 269 269 269 269 269 269 270 270 270 270 270 270 269 269 269 268 268 267 267 267 266 266 265
273 272 273 273 273 273 274 274 273 272 272 271 270 270 270 268 268 268 267 267 268 268 268 268 268 268 269 269 268 268 268 268 268 267 267 267 267 266 266 265 265 265 265 264
274 274 274 274 274 273 273 273 273 273 273 272 271 270 270 269 268 268 267 267 267 268 268 267 267 267 267 267 267 267 267 267 267 266 266 266 265 265 265 264 264 263 263 263
275 275 274 274 274 273 272 272 272 272 272 272 271 271 270 269 268 268 268 267 267 267 267 267 266 266 266 266 266 265 265 265 265 265 265 265 264 264 263 263 263 262 262 262
276 276 275 274 274 275 274 273 272 272 271 271 270 270 269 269 268 268 268 268 267 267 267 266 266 266 265 265 265 265 265 264 264 264 264 264 263 263 263 262 262 261 261 261
277 276 276 276 275 275 275 275 274 273 272 271 271 270 269 269 269 268 268 268 268 267 267 267 266 266 265 265 265 265 265 264 264 263 263 263 263 262 262 262 261 261 261 260
276 275 274 274 274 274 274 274 273 273 272 271 271 270 269 269 269 268 268 268 268 267 267 267 266 266 265 265 265 265 264 264 264 263 263 263 262 262 262 262 261 261 260 260

GFSNGP_925_thetae_084.txt.gz
Theta_e
309 309 310 310 310 311 313 313 315 312 314 315 317 321 321 320 316 315 315 316 317 318 319 319 320 321 321 321 321 321 321 322 322 322 322 321 321 321 321 321 320 320 318 317
310 308 308 310 308 306 307 309 312 313 315 314 316 322 321 315 312 312 310 310 310 310 311 311 311 311 311 312 318 321 321 321 320 321 321 322 322 321 321 321 321 320 320 320
305 305 307 306 309 313 312 313 314 317 315 318 321 323 320 313 308 307 306 305 305 305 305 303 303 303 304 305 308 310 310 309 312 317 320 320 320 321 321 321 322 321 321 321
307 305 303 304 313 314 313 313 311 316 317 315 316 310 307 306 305 303 301 300 299 300 299 299 299 299 299 299 299 299 299 299 302 304 306 309 313 314 317 318 319 320 321 321
304 306 304 305 314 311 311 312 313 313 315 316 308 305 302 302 300 299 297 296 295 295 296 296 297 295 294 293 293 294 294 294 295 296 298 300 301 302 304 306 309 310 308 311
306 307 303 302 314 312 313 314 309 314 317 312 314 312 302 298 298 296 294 293 292 292 291 293 295 294 292 291 290 289 290 290 290 292 292 293 293 295 296 297 296 295 294 294
307 308 306 308 312 313 316 314 304 306 303 303 302 302 298 296 295 293 292 292 291 290 289 289 292 293 291 289 288 287 287 287 288 289 290 290 291 292 292 291 291 290 289 288
308 309 308 309 313 314 311 304 301 300 298 298 296 295 294 292 291 291 290 290 290 289 288 287 288 290 290 289 288 287 286 285 286 286 286 288 289 289 289 289 288 287 286 285
307 308 305 302 304 302 301 300 302 299 298 296 295 293 291 290 289 288 288 288 288 287 286 286 286 286 288 288 287 286 285 284 284 285 285 285 285 286 286 286 286 286 285 284
309 304 301 300 298 296 295 295 295 295 295 294 292 290 289 288 287 286 286 286 286 285 285 284 283 284 285 286 286 285 284 283 283 282 283 283 283 284 284 285 285 285 285 284
306 304 300 296 295 294 293 292 290 290 290 290 289 287 287 286 285 284 283 283 283 283 283 283 282 282 283 284 285 284 284 283 282 281 281 281 281 282 282 282 283 282 282 282
301 300 298 295 292 291 290 288 288 288 287 286 286 285 284 283 281 281 281 281 281 281 281 281 281 281 281 282 282 282 282 282 281 280 280 279 279 279 279 280 280 280 280 280
298 295 293 291 289 288 287 285 285 285 284 283 283 282 281 281 280 280 279 279 279 279 279 279 279 279 280 280 280 280 279 279 279 279 279 278 277 276 275 275 276 277 278 278
292 296 293 291 289 287 285 284 283 281 281 280 280 279 278 278 277 277 277 277 277 276 277 277 277 277 279 279 279 279 279 279 278 278 277 277 276 275 274 273 272 272 273 274
290 290 289 288 287 286 285 284 282 281 280 278 278 277 277 276 275 274 274 275 275 274 274 275 276 276 278 278 279 278 278 277 277 277 276 276 276 275 274 273 272 272 273 273
288 287 285 285 284 283 283 283 282 281 279 278 277 275 275 274 273 272 272 272 272 271 272 273 274 275 277 277 278 277 277 276 276 276 275 275 274 273 272 271 270 269 269 269
288 286 286 284 283 282 281 281 280 279 277 277 276 275 274 273 272 271 271 271 272 272 272 272 273 275 276 276 276 276 276 275 275 274 274 273 272 271 270 269 268 267 267 267
282 282 281 281 281 280 279 278 277 275 274 272 272 271 270 269 268 268 269 270 271 271 271 271 272 274 274 274 275 275 275 274 274 273 272 272 271 270 269 268 268 267 267 266
280 280 279 279 278 277 276 275 273 272 272 272 271 269 269 269 269 269 269 269 269 269 270 270 271 272 272 272 273 273 273 273 272 271 271 270 270 269 268 268 267 267 266 266
277 276 275 274 274 274 272 272 273 272 272 272 271 270 269 269 269 268 269 268 267 268 269 270 270 270 271 271 272 272 271 271 271 270 270 269 269 268 268 267 267 266 266 265
271 272 272 272 271 273 273 273 273 272 272 272 271 270 269 269 268 268 268 267 268 268 269 269 269 269 269 269 270 270 270 270 269 269 269 268 268 267 267 266 266 265 265 264
272 272 272 273 273 272 273 273 272 272 271 271 270 269 269 268 267 267 267 267 267 267 267 267 267 267 268 268 268 268 268 267 267 267 267 266 266 266 265 265 264 264 264 263
273 273 273 273 273 273 273 273 273 273 272 272 271 270 269 268 268 268 267 267 267 267 267 266 266 266 266 266 266 266 266 266 266 266 265 265 265 264 264 263 263 263 262 262
273 274 274 274 273 273 272 272 272 272 272 271 271 270 270 269 268 268 267 267 267 266 266 266 266 266 265 265 265 265 264 264 264 264 264 264 264 263 263 262 262 262 261 261
275 275 274 274 273 274 273 272 272 271 271 271 270 270 269 269 268 268 268 267 267 267 267 266 266 265 265 265 265 265 264 264 264 263 263 263 263 263 262 262 262 261 261 260
276 276 275 275 275 275 275 274 273 272 272 271 271 270 269 269 268 268 268 268 267 267 267 266 266 266 265 265 265 265 265 264 264 264 263 263 263 262 262 262 261 261 261 260
276 275 274 274 274 273 273 273 273 272 272 272 271 270 269 269 269 268 268 268 267 267 267 267 266 266 266 265 265 264 264 264 264 263 263 263 263 262 262 261 261 261 260 260

GFSNGP_925_thetae_087.txt.gz
Theta_e
310 309 310 310 310 310 311 310 310 308 309 310 312 313 318 314 312 310 308 308 310 312 315 318 320 320 320 321 322 322 322 322 322 322 322 322 321 321 320 319 318 319 319 319
309 308 307 307 307 307 307 308 309 310 313 313 314 316 316 312 309 306 304 304 304 304 306 307 309 310 310 314 322 321 321 321 321 321 322 322 321 321 321 320 319 318 318 318
308 306 307 305 307 308 309 311 314 313 313 311 316 314 312 308 305 302 300 300 300 300 300 301 301 302 304 304 306 306 306 307 311 316 316 317 320 321 321 321 321 320 320 319
308 306 303 305 305 311 314 312 311 312 313 313 313 306 303 304 302 299 297 296 296 296 297 296 296 296 296 297 298 298 298 298 300 302 304 306 310 311 313 315 316 316 314 316
308 307 305 307 313 311 313 311 307 307 308 308 306 302 300 299 297 296 294 293 292 292 294 295 293 292 292 292 293 292 292 293 294 296 297 297 297 299 301 304 302 301 299 299
307 306 305 303 310 311 313 314 304 302 302 313 308 310 299 297 295 294 292 291 291 290 290 292 293 291 290 290 290 289 289 290 291 291 292 292 293 292 292 294 293 293 291 292
306 306 306 307 308 311 314 311 303 300 298 296 297 298 295 293 292 291 290 290 289 288 288 288 291 291 290 289 288 288 288 288 288 289 289 289 290 290 290 289 289 288 288 287
306 308 307 303 308 310 308 301 300 297 296 294 293 291 291 290 290 290 289 288 287 287 286 286 287 289 289 288 287 287 286 286 287 287 287 288 288 288 288 287 287 286 286 285
309 308 301 299 299 297 298 298 298 296 294 292 291 290 289 288 288 287 286 286 286 285 285 284 284 285 287 286 286 285 285 285 285 285 285 286 286 287 287 287 286 286 286 285
302 300 297 296 295 294 293 292 292 292 291 290 290 288 287 286 285 285 284 284 284 284 283 283 283 283 284 285 285 285 284 284 284 284 284 284 284 284 284 285 285 285 285 285
302 300 297 293 292 291 291 290 289 288 288 288 286 285 284 284 283 283 282 282 282 282 282 282 282 282 282 283 284 284 283 283 282 282 282 282 281 282 282 282 283 283 282 283
297 296 293 291 290 288 287 287 287 286 285 284 284 283 283 282 281 281 281 280 280 280 280 280 280 280 280 281 282 283 282 282 281 281 280 280 280 279 278 279 280 280 280 280
296 292 290 288 287 287 285 284 283 283 282 282 281 281 281 280 280 279 279 278 278 278 279 279 279 278 278 278 279 279 280 280 279 279 279 278 278 278 277 275 275 276 277 277
292 292 290 289 287 286 284 282 281 280 280 280 279 279 278 278 277 277 277 277 276 276 276 277 277 276 277 278 278 278 277 277 277 277 277 276 276 276 276 276 275 273 272 273
288 288 288 286 285 284 283 282 282 281 280 278 277 277 276 276 275 274 274 274 274 274 274 275 275 275 276 277 278 277 277 276 275 275 275 274 274 274 273 273 272 272 272 272
287 286 285 284 283 283 283 282 281 280 279 278 277 275 274 274 273 272 272 272 272 272 272 272 272 274 276 277 277 276 276 276 276 275 274 274 273 273 272 272 271 270 269 269
288 286 285 283 282 282 281 280 279 278 277 276 275 274 274 273 272 271 270 270 270 269 270 271 272 274 275 275 276 275 275 274 274 274 273 273 272 272 271 270 269 268 267 267
282 282 282 282 281 280 279 277 276 275 274 272 271 271 270 269 268 268 269 270 271 270 270 271 271 273 273 274 274 274 273 273 273 272 272 271 270 270 269 269 268 268 267 266
280 280 279 279 278 277 276 274 273 272 271 271 270 268 268 268 268 268 269 269 268 269 269 270 270 271 271 272 272 272 272 271 271 270 270 269 269 268 268 268 267 266 266 265
277 276 275 274 274 273 272 271 271 271 270 270 269 269 268 268 268 268 268 267 266 267 268 269 269 269 269 270 271 270 270 270 269 269 268 268 268 267 267 266 266 265 265 264
273 272 272 271 270 272 272 272 272 271 270 270 270 268 267 267 267 268 268 269 267 268 268 268 268 268 268 268 269 269 269 268 268 267 267 266 266 266 265 265 265 264 264 263
271 271 271 272 271 270 271 271 272 271 271 270 269 269 268 268 267 267 267 267 267 267 267 267 267 267 267 267 267 267 267 267 266 266 266 265 265 265 264 264 263 263 263 263
272 272 272 273 272 272 272 272 272 272 271 271 270 269 269 268 268 268 268 267 267 267 266 266 266 266 266 266 265 265 265 265 265 265 265 265 264 264 263 263 263 262 262 261
273 274 273 273 273 273 273 272 272 272 272 271 270 270 269 269 268 268 267 267 267 266 266 266 266 265 265 265 265 264 264 264 264 264 264 264 263 263 263 262 262 261 261 261
274 274 274 274 274 274 273 273 272 272 271 271 271 270 269 269 268 268 268 267 267 267 267 266 266 265 265 265 265 265 264 264 264 263 263 263 263 262 262 262 262 261 261 260
275 275 275 274 274 274 274 273 273 272 272 271 270 270 269 269 268 268 268 268 267 267 267 267 266 266 266 265 265 265 264 264 264 263 263 263 263 262 262 262 261 261 261 261
275 275 274 273 273 272 272 272 272 271 271 271 271 270 270 269 269 268 268 268 268 267 267 267 267 266 266 266 265 265 264 264 263 263 263 263 263 262 262 262 262 261 261 261

GFSNGP_925_thetae_090.txt.gz
Theta_e
310 310 309 309 309 310 312 311 311 309 310 311 314 316 316 318 315 312 307 305 305 304 306 309 320 321 321 323 323 324 324 322 322 322 322 322 322 322 321 320 322 323 323 323
308 308 308 308 307 308 308 308 310 311 313 311 314 314 316 311 309 308 304 301 300 301 301 302 304 311 312 320 323 323 323 322 323 323 323 323 322 322 322 321 320 320 321 323
308 306 306 306 307 308 308 309 311 313 313 312 313 313 310 308 304 303 300 298 297 298 297 297 298 301 303 304 307 307 307 308 313 316 318 319 322 323 323 323 322 321 320 320
308 307 307 311 309 311 310 312 310 310 310 309 309 304 300 299 301 299 298 295 294 294 295 294 294 295 296 297 298 298 298 299 301 303 305 307 310 310 312 315 315 313 312 311
309 307 305 311 311 310 312 312 305 304 304 303 304 300 298 296 295 295 294 293 291 290 291 293 292 292 292 292 292 292 293 294 295 296 297 297 297 298 298 299 297 296 296 298
307 307 305 310 309 310 312 316 302 301 299 297 306 307 296 293 292 292 290 290 289 289 288 290 291 291 290 290 290 290 290 291 291 292 292 292 292 291 291 292 289 290 289 289
307 308 308 306 307 309 316 310 301 299 296 293 293 294 292 291 290 289 288 288 287 287 287 287 289 289 289 289 289 288 289 289 290 290 290 290 289 289 289 288 288 287 286 286
307 309 311 300 307 309 303 301 300 297 295 293 292 291 290 289 288 288 287 287 286 285 285 285 287 288 288 287 287 288 288 288 288 289 290 290 289 289 288 288 287 287 286 285
305 304 299 297 297 296 296 296 296 295 293 292 290 289 288 288 288 287 286 286 286 285 284 284 284 286 286 286 287 287 287 287 288 288 288 288 289 289 289 289 289 288 288 288
305 299 297 296 295 293 293 292 292 291 291 289 288 287 286 286 286 285 285 285 285 285 284 284 283 284 285 286 286 285 285 286 285 284 285 286 285 285 286 287 288 287 287 286
301 299 298 293 292 291 291 290 288 288 288 287 286 285 285 285 284 283 283 283 283 283 283 282 282 282 282 284 285 285 285 284 284 284 283 282 281 282 282 281 283 284 284 284
301 296 295 292 290 289 288 287 287 287 285 285 285 285 284 283 282 282 282 281 281 281 281 281 281 281 281 282 284 285 284 284 283 283 283 282 281 279 278 279 279 279 280 281
296 292 291 289 288 287 286 285 284 284 283 283 283 283 282 282 281 281 280 280 280 280 280 280 280 280 280 280 280 282 282 282 282 283 282 282 283 282 280 277 275 276 277 277
293 292 291 289 288 286 285 283 283 282 282 282 281 281 281 280 280 279 278 278 278 278 279 279 279 279 279 280 280 280 280 280 281 281 281 281 280 280 280 280 279 277 273 274
290 290 289 288 286 286 285 284 284 283 282 281 280 280 279 278 277 276 276 277 276 276 276 276 276 276 277 279 279 279 280 279 279 278 278 279 279 279 279 278 278 277 277 275
288 288 287 287 286 286 285 285 284 283 281 280 279 278 277 276 275 275 274 273 274 274 274 274 274 273 275 277 279 279 278 277 279 279 279 278 278 278 277 277 276 275 273 272
289 288 287 286 285 284 283 282 282 280 279 278 277 277 276 275 274 273 272 272 271 272 272 273 272 272 273 274 277 278 278 278 277 278 277 277 277 276 275 275 274 272 270 268
286 285 285 285 284 282 281 280 279 278 276 274 272 271 271 271 271 270 270 271 272 271 271 271 271 272 272 273 275 276 277 277 276 276 275 275 274 274 274 273 273 272 271 269
283 283 282 282 281 280 279 277 275 273 272 271 270 269 269 269 269 269 270 271 272 272 270 270 271 271 271 271 274 275 275 275 275 274 274 273 273 273 273 272 271 271 270 270
280 280 279 278 277 276 274 273 273 271 270 270 270 270 269 268 268 269 270 270 269 269 269 269 271 270 270 270 271 273 273 273 273 272 272 272 272 272 270 269 270 270 270 269
277 276 275 274 273 272 272 272 272 271 270 270 270 269 268 268 268 269 272 273 269 268 269 269 268 270 269 270 271 271 271 271 271 271 271 271 271 270 270 269 269 269 268 268
275 274 273 273 273 272 271 272 271 270 270 270 269 269 270 271 270 269 268 270 270 268 269 269 268 266 267 268 269 269 269 269 270 270 270 269 269 269 268 268 267 267 267 266
275 275 274 274 274 273 272 271 271 271 270 270 270 271 272 271 271 272 273 269 269 268 269 268 266 266 266 268 268 268 268 268 268 268 268 267 267 267 267 266 266 266 266 265
275 275 274 273 273 275 276 274 274 272 272 271 270 270 271 273 272 270 269 268 267 267 267 267 266 266 266 267 267 267 267 267 267 267 266 265 266 265 266 265 265 265 264 264
276 275 275 276 278 278 276 275 274 274 273 274 273 272 271 271 271 270 270 269 268 268 269 267 266 266 267 267 267 267 267 267 266 266 266 266 266 265 265 265 264 264 264 263
278 279 278 277 277 277 276 276 276 275 275 275 274 273 272 271 270 270 270 269 269 268 269 269 268 267 267 267 267 267 266 266 266 266 265 265 265 265 265 264 264 264 264 263
278 277 277 276 275 275 274 274 275 274 273 273 273 273 272 271 271 269 269 270 269 269 269 269 268 267 267 267 267 267 266 266 266 265 265 265 265 265 264 264 264 263 263 262

GFSNGP_925_thetae_093.txt.gz
Theta_e
315 314 314 315 315 314 315 314 312 312 311 312 315 316 317 316 315 313 309 304 301 302 302 302 304 307 322 323 323 323 323 323 324 324 325 325 325 324 324 325 323 322 322 321
310 309 309 309 309 309 310 310 309 311 312 314 313 313 313 312 309 308 304 302 299 298 298 299 299 301 305 313 322 324 324 323 323 324 323 324 324 323 323 323 323 324 324 324
309 307 306 307 307 308 308 311 313 315 313 312 311 310 303 302 303 301 301 299 296 295 295 295 295 296 298 302 307 309 308 309 314 316 317 318 321 321 321 321 321 321 320 316
309 308 312 311 310 310 312 312 311 310 309 308 306 299 297 296 296 295 295 294 293 292 293 292 293 293 294 296 298 299 299 300 302 304 306 307 307 306 309 311 310 309 308 308
310 309 308 311 309 310 311 312 306 306 305 303 302 298 294 293 292 291 291 291 290 289 289 290 291 290 292 292 293 293 294 295 295 297 297 297 296 296 296 300 299 296 296 297
309 307 310 311 309 309 311 311 302 302 300 297 303 306 294 291 290 290 288 288 287 288 288 289 289 289 290 290 290 290 291 291 292 292 292 291 291 290 291 291 290 290 290 290
309 310 313 304 307 307 317 307 300 298 296 295 294 293 292 291 290 289 288 287 286 286 286 287 288 288 288 288 288 288 289 290 290 290 290 289 289 289 289 288 288 287 286 286
311 311 314 300 306 307 301 300 300 296 295 293 293 292 291 290 289 289 288 287 286 285 285 285 286 287 287 287 287 287 288 288 288 289 290 290 290 289 289 289 288 288 287 286
305 304 300 297 298 296 297 297 297 295 294 292 291 290 289 289 288 287 287 287 286 285 284 284 284 286 287 286 287 286 285 285 286 287 286 286 287 289 289 289 289 288 288 287
304 300 297 296 295 294 293 292 292 292 291 290 289 288 287 287 286 285 285 285 285 284 284 284 283 283 285 286 286 285 286 284 283 282 283 284 283 283 284 286 286 287 287 287
301 300 297 293 292 292 291 290 289 289 289 288 287 286 286 286 285 284 284 284 284 284 283 283 283 283 283 285 286 285 285 285 284 283 281 280 280 281 281 281 282 283 282 283
301 298 296 292 290 290 289 288 289 288 287 287 286 286 285 285 284 283 283 283 283 283 282 282 282 282 283 282 284 284 284 284 285 284 283 281 279 277 278 279 279 279 280 280
296 293 292 290 289 288 287 286 286 286 285 285 285 284 284 283 282 281 281 281 281 281 281 281 281 281 281 282 282 283 284 284 284 283 283 283 284 282 278 277 276 277 277 277
295 294 293 290 289 287 286 286 285 285 285 284 284 283 283 282 281 281 281 280 279 279 279 279 279 279 280 280 281 282 282 282 282 282 282 282 282 282 281 281 280 277 275 275
292 291 290 289 288 288 287 286 286 285 284 283 282 282 281 280 279 277 277 278 278 277 277 277 276 277 278 281 281 280 281 281 281 281 280 281 281 281 281 280 280 279 279 278
291 291 291 290 289 288 288 287 286 285 283 282 281 280 279 278 277 276 275 275 275 275 275 274 275 275 276 278 281 281 280 280 280 281 281 280 280 280 279 279 277 275 274 274
291 290 290 288 287 286 286 285 284 283 281 280 278 278 278 277 276 275 274 274 273 273 273 273 274 273 274 276 279 280 280 279 279 279 279 279 279 278 278 277 276 274 272 271
289 289 288 287 286 285 284 282 281 280 277 275 273 272 272 273 273 273 273 274 274 273 272 272 273 274 273 274 277 278 278 278 278 277 277 277 277 277 276 276 275 275 274 272
286 286 286 285 284 283 282 279 277 274 273 273 272 271 271 271 272 272 273 273 274 274 272 272 273 273 273 273 276 277 277 277 277 276 276 276 276 275 275 275 274 274 273 272
284 283 283 281 280 278 276 275 274 273 273 273 272 272 272 270 270 272 273 272 271 271 271 271 272 273 272 272 274 275 275 276 275 275 274 275 275 275 274 272 273 273 272 272
281 279 277 276 275 275 274 273 273 273 272 272 272 271 271 271 270 271 276 277 272 270 271 271 270 270 271 271 273 273 273 274 274 274 273 273 273 273 273 272 272 272 271 271
278 277 276 275 275 274 274 274 273 272 272 271 270 271 272 275 272 272 271 272 273 270 272 271 269 267 268 271 272 272 272 272 272 272 272 272 272 272 271 271 270 270 270 269
277 277 276 276 276 276 274 274 273 273 272 272 273 273 274 274 274 275 275 272 271 270 271 270 267 267 268 270 270 270 270 270 270 270 270 270 270 270 270 269 268 269 268 268
278 277 277 276 275 276 277 276 275 275 273 273 272 271 273 275 276 274 272 271 269 269 270 269 267 267 268 270 270 270 270 270 270 269 269 268 269 268 269 268 267 267 267 267
278 277 277 277 280 281 278 278 277 276 276 276 275 275 273 274 273 273 272 272 270 270 271 270 269 268 269 269 269 269 269 269 269 267 268 268 268 268 268 268 267 267 266 266
279 281 281 280 280 279 279 278 279 278 277 277 277 276 275 274 273 272 272 271 271 271 271 271 271 269 269 270 269 269 269 268 268 268 268 267 267 267 267 267 266 266 266 266
281 280 280 279 278 278 277 276 276 277 276 276 275 275 275 274 273 272 272 272 272 272 271 271 271 270 269 269 268 269 269 268 268 268 267 267 267 267 267 266 266 266 265 265

GFSNGP_925_thetae_096.txt.gz
Theta_e
313 313 318 319 318 318 318 317 315 313 315 314 313 313 311 309 309 307 304 302 300 298 298 297 297 297 300 304 322 323 323 323 324 325 324 324 325 323 323 321 320 319 319 319
315 316 316 317 315 316 312 312 311 312 313 310 309 305 304 302 301 300 298 296 296 295 295 295 294 295 296 298 304 323 322 323 324 324 326 325 325 325 324 323 322 322 320 320
310 307 309 311 309 309 314 312 312 313 310 306 306 300 297 296 295 295 294 293 293 292 292 292 292 292 293 294 298 304 310 312 317 317 320 320 322 322 322 318 318 315 314 314
309 310 316 312 311 313 311 307 306 306 305 303 300 295 293 293 292 291 291 291 290 290 290 290 290 290 291 292 293 295 297 300 303 306 307 308 311 309 311 311 308 306 304 304
312 315 314 313 309 311 313 307 303 303 300 300 299 297 293 291 291 290 289 289 288 287 288 289 289 289 289 289 290 291 292 292 294 297 297 298 298 297 297 298 296 293 294 295
311 309 314 307 304 307 309 307 301 299 297 298 298 301 294 292 291 290 288 287 287 286 286 287 288 288 288 288 288 289 289 291 290 291 291 291 291 291 291 292 289 289 289 289
311 314 309 301 304 307 313 305 299 297 294 293 293 293 292 291 290 289 288 287 286 285 285 285 287 287 287 287 286 287 288 288 288 290 289 289 289 289 289 288 288 287 286 286
312 313 310 298 302 303 301 299 298 295 293 292 291 291 290 289 288 287 287 286 285 285 284 284 285 287 286 286 285 285 285 286 286 286 286 288 289 289 289 288 288 287 287 285
303 303 298 296 297 295 295 295 294 294 292 291 290 289 288 288 287 286 286 285 285 284 284 283 284 285 286 286 286 285 283 283 283 284 285 285 285 286 287 288 288 287 286 285
304 299 296 295 294 293 292 291 291 291 290 289 288 288 287 286 286 285 285 285 284 284 283 283 283 283 285 285 285 286 284 283 281 281 281 282 281 282 282 284 283 285 284 283
300 298 295 292 292 292 291 290 289 289 289 288 287 287 286 286 285 285 285 284 283 283 283 282 282 283 283 284 285 285 285 284 282 281 279 279 280 280 280 281 282 281 281 281
299 297 294 291 291 290 289 289 289 288 287 287 287 286 285 284 283 283 283 282 282 282 281 281 281 281 282 283 283 285 284 284 283 284 281 280 278 278 278 278 279 279 280 280
295 292 291 290 289 288 288 287 287 287 286 286 285 285 284 283 283 282 281 281 281 280 280 280 279 280 281 281 282 282 282 283 283 283 283 283 281 279 278 277 277 277 278 278
295 293 292 291 289 288 287 286 286 285 285 285 284 283 282 281 280 280 280 279 278 278 277 277 277 278 279 281 280 281 282 281 281 281 281 281 282 281 281 280 278 277 277 277
292 292 291 290 289 289 288 287 286 285 284 283 282 281 281 279 278 276 276 277 277 276 275 275 275 275 278 280 281 280 280 281 281 281 281 281 280 280 279 277 276 275 276 277
293 292 291 290 290 289 288 287 286 285 284 283 282 280 279 278 277 276 275 274 274 274 274 274 274 274 277 279 281 281 280 280 280 280 280 280 279 279 278 276 274 273 273 274
292 291 290 289 288 287 286 285 284 282 280 278 276 275 276 277 275 275 275 274 273 273 273 273 274 273 276 278 279 279 279 279 279 278 278 278 278 278 277 276 274 272 272 273
290 290 289 288 286 285 284 282 280 278 276 274 273 273 273 273 273 273 274 275 274 273 272 273 273 274 274 276 277 278 278 278 278 277 277 277 277 277 276 276 275 274 273 273
288 287 286 286 285 283 281 278 276 274 273 273 272 271 271 271 272 273 273 273 273 273 272 272 273 273 273 274 276 277 277 277 276 276 276 276 275 274 275 275 275 274 273 272
285 284 282 281 280 278 276 275 274 274 273 273 273 273 272 271 271 272 274 272 271 271 272 271 271 271 272 273 274 275 275 275 275 275 274 274 274 275 273 273 273 273 273 272
281 279 278 276 275 275 274 274 273 273 272 272 272 272 272 272 272 273 275 276 272 272 272 272 270 268 271 272 273 273 273 273 274 274 274 274 274 273 273 272 272 272 271 271
278 277 276 276 275 275 275 274 273 273 272 272 272 273 274 274 274 273 272 273 273 271 272 271 268 268 270 271 272 272 272 271 272 272 272 271 272 271 272 271 271 270 270 270
278 277 276 276 276 276 275 274 274 273 273 273 273 273 274 275 275 275 275 272 271 270 272 270 269 268 270 271 271 271 271 271 271 270 271 270 270 270 269 269 268 269 269 268
279 278 277 277 276 276 277 275 275 275 274 274 274 273 274 275 275 275 273 272 270 270 270 270 269 269 269 270 270 270 270 270 270 269 269 269 270 269 269 269 268 268 268 268
278 278 278 277 278 280 279 279 278 277 277 277 277 276 275 275 274 274 273 272 272 271 271 271 270 270 270 270 270 270 270 269 269 268 268 268 268 268 268 268 268 267 267 266
279 280 281 281 281 280 280 279 280 280 279 278 278 278 277 276 275 274 274 273 272 272 272 272 272 271 270 270 270 269 270 270 269 269 268 268 268 268 268 268 267 267 266 266
282 282 281 280 279 279 278 277 277 278 277 277 276 276 276 275 275 274 274 273 273 273 273 272 272 271 271 270 269 269 269 269 269 268 268 267 267 267 267 267 267 267 266 265

GFSNGP_925_thetae_099.txt.gz
Theta_e
307 307 309 310 313 318 320 317 320 314 309 309 303 302 299 299 298 297 296 294 294 293 293 292 293 293 295 296 298 304 322 324 325 324 324 323 323 322 322 320 320 319 319 319
315 314 315 317 317 314 312 312 312 311 307 304 300 297 296 295 294 294 293 292 291 291 291 291 291 292 293 294 295 298 304 318 323 325 324 323 323 323 322 321 319 319 319 319
316 314 314 317 313 309 306 305 307 307 302 302 297 295 293 292 292 291 291 290 289 289 290 289 290 290 291 292 292 293 295 298 308 317 319 319 319 319 315 313 315 314 313 314
312 311 315 310 307 306 304 301 301 300 299 299 294 292 292 291 290 289 289 288 288 287 287 288 288 289 290 290 291 290 291 292 295 303 303 304 306 306 305 305 303 302 301 302
313 316 312 307 303 303 309 302 299 298 296 298 295 297 291 291 289 288 288 287 286 286 286 287 287 287 287 288 289 289 288 290 290 291 294 295 293 292 293 294 294 293 294 296
311 313 312 304 299 301 302 300 297 295 294 293 295 293 290 289 289 287 286 286 285 284 285 285 287 287 286 285 285 287 287 287 288 290 289 289 289 289 288 288 287 288 288 289
310 310 306 298 298 300 298 301 296 294 292 291 290 290 289 288 287 286 285 284 284 284 284 284 286 286 286 285 284 283 284 286 287 287 288 289 289 288 288 287 286 285 285 286
306 305 304 295 297 298 299 296 294 292 291 288 287 287 287 286 286 285 285 284 283 283 283 284 284 286 286 286 284 283 282 282 283 284 285 286 287 287 287 287 286 285 285 285
302 300 296 294 293 293 292 292 292 292 289 287 286 285 286 286 285 285 284 284 283 282 282 283 283 284 285 285 284 283 282 281 281 282 282 282 283 285 285 285 284 284 283 284
300 295 294 294 292 291 290 290 290 289 288 287 286 286 285 285 285 284 283 283 282 282 281 282 282 283 283 285 284 284 283 281 280 280 280 281 281 281 282 282 282 283 282 283
298 294 292 291 291 290 290 289 288 288 287 287 286 285 284 283 283 282 282 282 281 281 280 280 281 281 282 283 284 284 284 283 281 280 279 279 279 280 280 281 281 281 281 282
295 294 291 290 289 289 288 288 288 287 286 286 285 284 283 283 282 281 280 280 279 279 279 279 279 280 281 282 282 282 283 283 283 282 280 279 278 278 279 279 280 280 281 281
294 290 288 288 288 288 288 288 287 286 285 284 283 283 281 281 280 280 278 277 277 277 276 277 277 278 280 281 282 281 281 281 281 281 282 282 280 279 277 278 278 278 279 280
292 291 290 290 288 287 286 286 285 284 283 283 282 280 279 278 277 277 277 277 275 275 275 275 276 277 279 280 280 281 281 281 281 281 280 280 279 278 278 277 277 277 278 278
291 290 289 289 288 288 286 285 284 283 282 281 280 279 278 277 275 274 274 275 274 274 274 274 274 276 278 280 280 280 280 280 280 280 280 279 278 276 275 274 274 274 276 275
292 290 290 289 289 287 286 285 284 282 280 279 278 277 276 275 275 274 274 273 273 272 273 273 273 274 277 278 279 279 278 278 278 278 278 278 277 276 274 273 273 273 274 275
291 290 288 287 286 284 283 282 280 278 276 275 274 274 275 274 274 274 274 273 272 272 273 273 273 274 275 277 277 278 278 277 277 277 277 277 276 276 274 273 273 273 273 273
288 287 286 285 284 282 280 278 277 275 274 273 272 272 272 273 273 273 273 274 273 272 272 273 273 273 274 275 276 276 276 276 276 277 276 276 276 275 275 274 274 273 272 272
286 285 284 283 282 280 277 275 274 273 273 272 272 271 271 272 272 273 273 272 271 271 271 271 272 272 272 274 274 275 275 275 274 275 275 275 274 273 274 274 273 272 272 271
281 280 279 278 277 276 274 274 273 273 273 273 272 272 272 272 272 273 273 272 271 272 272 271 271 270 271 273 273 273 273 274 274 274 274 274 273 273 273 272 272 272 271 271
277 276 275 275 275 274 274 273 273 272 272 272 273 273 273 274 273 273 273 273 272 271 271 271 269 270 271 271 271 271 271 272 272 272 272 272 272 272 271 271 271 270 270 270
276 275 275 275 275 274 274 273 273 272 272 273 274 274 275 275 275 273 272 272 272 271 271 270 270 269 270 271 271 270 271 270 270 270 270 270 270 270 270 270 269 269 269 269
276 276 275 275 275 275 274 274 274 273 273 274 273 273 274 275 275 274 272 272 272 271 271 271 270 269 269 270 270 270 269 270 270 270 269 269 269 269 269 269 268 268 268 268
277 276 276 277 276 275 275 274 274 275 275 274 274 274 274 275 275 274 273 272 272 271 271 271 270 270 269 270 270 270 269 269 269 269 268 268 268 269 268 268 268 268 267 267
277 277 277 276 276 277 278 278 277 277 277 276 276 275 275 275 274 274 273 272 272 272 271 271 271 271 270 270 269 270 269 269 269 269 269 268 268 267 268 268 268 267 267 266
278 278 278 278 279 280 280 279 278 278 278 277 277 277 276 276 275 274 274 273 273 272 272 272 272 272 271 270 270 269 269 269 269 269 269 268 268 267 267 267 267 267 267 266
279 281 281 280 279 279 278 277 277 277 276 276 275 275 274 274 275 274 274 274 274 273 273 272 272 272 271 271 270 270 269 269 269 268 268 268 268 267 267 267 267 266 266 266

GFSNGP_925_thetae_102.txt.gz
Theta_e
306 306 306 306 313 314 316 315 314 309 307 302 298 296 295 294 293 293 292 291 291 290 290 290 291 291 292 293 294 296 299 307 315 325 325 325 323 322 321 321 320 319 319 319
309 309 308 311 312 308 308 309 309 306 304 298 295 293 292 292 291 291 290 290 289 289 289 289 289 289 291 291 292 294 294 295 301 313 323 323 323 322 321 320 319 319 319 318
315 313 314 310 307 304 303 302 302 304 302 296 293 292 290 290 289 289 288 288 287 287 288 288 288 288 288 289 290 291 292 292 294 297 302 310 315 317 313 312 313 313 311 311
314 313 309 306 303 301 300 299 298 298 299 294 291 290 290 289 287 287 286 286 286 286 286 287 287 286 286 286 287 289 289 290 290 292 293 295 297 301 301 302 300 299 300 301
315 312 309 305 300 299 304 298 296 295 295 295 293 291 288 287 287 286 285 285 284 284 285 285 286 286 285 284 285 285 287 288 289 289 290 290 289 290 293 293 293 291 292 294
313 310 309 301 296 297 300 297 295 293 291 290 295 290 288 286 286 285 284 284 283 283 284 284 285 285 284 283 283 283 283 284 286 288 288 288 288 287 287 289 288 288 288 288
308 307 304 295 296 299 299 297 294 291 289 288 288 287 286 286 285 284 284 283 282 282 283 283 284 285 284 283 282 282 282 283 283 284 286 286 287 286 286 286 286 286 285 286
303 303 303 293 294 298 296 294 292 289 287 286 285 285 284 284 284 283 283 283 282 281 282 281 282 283 284 284 282 282 281 281 282 282 283 283 285 285 285 285 285 285 285 285
299 297 294 292 291 291 292 291 291 288 286 285 283 284 283 284 284 283 282 281 281 280 280 281 281 282 283 284 284 282 281 280 280 281 281 282 282 282 283 283 284 285 285 285
296 294 293 292 290 289 289 289 288 287 286 285 284 283 282 282 282 282 281 280 280 280 279 279 280 281 282 283 283 283 282 281 280 279 280 281 281 281 282 282 282 283 283 284
295 293 291 290 290 289 288 287 287 286 285 284 284 283 282 282 281 280 279 278 278 278 278 278 279 280 281 282 282 282 282 282 280 279 279 279 280 280 281 281 282 282 282 284
294 292 290 290 289 288 288 288 286 285 285 285 284 283 282 281 279 278 277 277 277 276 277 277 278 279 280 281 281 281 281 281 281 281 280 279 278 279 280 280 281 281 282 282
290 289 287 287 287 287 286 286 285 284 283 283 281 280 279 278 278 278 276 275 275 275 275 276 277 279 280 280 281 281 280 280 280 280 280 280 279 278 278 278 278 279 280 280
288 288 288 286 287 286 285 284 283 283 282 280 279 278 277 276 276 275 275 275 274 274 274 275 276 277 279 279 279 280 280 279 280 279 278 277 276 276 276 275 275 275 276 277
290 289 287 287 287 286 284 283 282 281 280 279 278 277 276 275 274 273 273 273 273 273 273 274 274 275 278 278 278 278 278 278 278 278 277 276 275 274 274 274 274 274 274 274
289 289 289 288 287 285 284 283 281 280 278 278 277 276 275 275 274 273 272 272 272 271 272 273 273 274 277 277 277 277 277 277 277 277 277 276 275 273 273 273 273 273 273 272
290 289 288 287 285 284 282 280 279 277 276 275 275 275 274 274 273 273 273 272 272 272 272 272 272 273 275 276 276 276 276 277 276 276 276 275 275 274 273 273 273 272 272 272
289 287 286 284 282 281 279 278 276 275 273 272 273 273 273 272 272 272 272 272 272 271 271 271 271 272 274 274 275 275 275 275 275 275 274 275 274 274 274 273 272 272 271 271
285 284 283 282 280 279 277 275 274 272 272 271 271 271 272 272 273 272 272 271 271 271 271 271 270 272 273 272 273 273 274 274 274 273 274 273 273 273 273 272 272 271 271 270
281 280 279 278 278 276 273 273 273 272 272 272 272 272 272 271 272 272 272 271 271 271 271 270 269 271 272 271 271 271 272 272 272 272 272 272 272 272 271 271 271 270 270 269
277 277 276 275 274 274 274 273 273 273 272 273 274 274 274 274 273 273 272 272 271 271 271 270 270 270 271 271 270 270 270 270 270 270 270 270 270 270 270 270 270 270 269 269
275 274 274 274 274 273 273 273 273 273 273 273 274 274 275 275 274 273 272 272 272 271 271 271 270 269 270 270 270 269 270 270 270 269 269 269 269 269 269 269 268 268 268 268
275 274 274 274 274 274 273 273 273 273 273 274 274 274 274 275 275 274 273 273 272 271 271 271 270 270 269 270 270 270 269 269 269 269 268 268 269 268 268 268 268 268 267 267
275 275 275 275 274 274 274 274 274 274 275 275 275 274 274 275 275 274 274 273 272 272 271 271 271 271 270 270 269 269 269 269 269 269 268 268 268 268 268 268 267 267 267 267
276 276 276 276 275 275 276 277 276 275 276 276 276 276 275 274 274 274 273 273 273 272 272 271 271 271 271 270 270 269 269 269 269 269 269 268 268 267 267 267 267 267 267 267
276 276 277 277 278 278 279 279 278 277 277 277 277 276 276 275 275 274 274 274 273 273 272 272 272 272 272 271 271 270 270 269 269 268 268 268 268 268 267 266 267 267 266 266
277 278 277 278 279 278 278 278 277 277 277 276 275 274 273 274 274 274 274 274 273 273 272 272 272 271 271 271 271 271 270 270 269 269 268 268 268 267 267 267 267 266 266 266

GFSNGP_925_thetae_105.txt.gz
Theta_e
304 304 305 308 310 311 312 314 310 306 302 298 295 293 292 291 290 290 289 288 288 288 289 289 289 288 289 290 292 293 295 296 299 305 324 324 322 321 321 321 320 320 319 318
306 306 309 305 303 303 306 307 307 302 298 295 292 291 289 289 288 288 288 287 287 287 287 288 288 287 287 287 289 290 292 293 294 297 304 311 319 320 320 320 319 319 318 317
312 309 306 300 302 301 300 299 301 303 297 293 291 289 289 287 287 287 287 286 286 286 286 287 287 286 285 286 286 287 289 290 291 292 292 294 298 304 305 309 312 312 310 309
313 311 306 304 301 299 298 297 296 297 294 291 289 288 287 287 286 285 285 285 285 285 285 286 285 285 284 284 284 285 285 286 288 290 290 289 290 290 292 294 296 299 301 300
313 308 306 306 298 298 301 297 294 294 294 293 290 292 287 286 285 285 284 284 283 283 284 284 285 284 283 282 283 283 284 284 284 287 288 289 287 287 288 288 289 289 290 294
310 310 308 300 294 295 298 295 293 291 290 290 293 291 286 285 284 284 283 283 282 282 282 283 284 284 283 282 281 281 282 283 283 284 285 286 287 287 286 286 286 286 287 287
307 306 302 293 293 298 299 297 291 289 287 286 285 285 285 284 283 282 282 281 280 281 281 281 282 283 284 283 281 280 280 281 282 283 283 283 284 285 286 286 286 285 285 285
303 303 304 291 293 297 294 292 289 287 285 283 283 283 284 283 282 281 280 280 279 279 279 280 281 282 282 283 282 281 280 280 281 282 282 283 283 283 283 284 285 285 285 285
297 295 292 291 291 291 291 290 288 286 285 284 282 282 282 282 281 280 279 278 279 278 278 278 279 280 281 281 282 281 280 280 280 280 281 282 282 283 283 283 284 284 285 285
294 292 292 290 289 288 288 287 287 286 285 284 282 281 281 280 279 278 277 277 277 278 277 277 278 279 279 281 282 281 281 280 280 279 280 280 281 281 282 283 283 283 284 284
293 291 290 289 288 287 287 287 286 284 284 283 282 281 279 276 277 277 277 276 276 276 277 277 278 279 280 280 281 281 280 280 281 280 279 279 279 279 280 281 282 283 282 282
293 290 290 288 288 287 286 285 285 284 284 283 282 280 279 278 277 276 276 275 276 276 276 276 277 278 279 280 280 280 280 280 279 279 279 279 279 279 278 278 279 280 281 281
291 289 287 287 286 286 285 284 284 283 282 280 279 278 278 277 277 276 275 274 274 274 274 275 277 278 278 279 279 279 279 279 278 277 277 277 277 276 276 277 276 277 277 278
288 287 287 287 286 285 285 284 283 281 279 278 277 276 276 275 274 274 274 274 273 273 273 274 276 276 277 277 277 278 278 278 277 276 275 274 275 275 275 274 274 274 274 274
288 288 287 285 285 284 283 282 281 280 279 278 277 276 275 273 272 272 273 272 272 272 272 273 274 275 276 277 277 276 277 277 277 276 275 274 274 274 274 273 273 272 273 273
287 287 286 286 285 283 282 282 280 279 278 277 276 275 274 273 272 272 271 271 271 270 271 271 273 274 275 276 276 276 276 276 276 276 275 274 273 273 273 273 272 271 271 271
288 288 288 286 284 283 282 281 279 278 277 276 275 275 274 273 273 272 272 271 271 271 271 271 271 273 274 275 275 275 275 275 274 275 275 275 273 273 272 272 271 271 270 270
288 288 287 285 283 281 280 278 276 275 273 273 273 273 273 272 272 271 271 271 272 272 271 270 270 272 273 273 273 274 274 274 274 273 273 274 273 273 272 272 271 270 270 269
286 284 283 282 281 279 277 275 274 273 272 272 272 272 272 272 272 272 271 271 271 271 270 270 270 272 272 271 271 272 272 273 273 273 272 272 272 272 272 271 271 270 270 269
282 281 280 279 278 277 274 273 272 272 271 271 271 272 272 272 272 272 272 271 271 271 271 270 270 270 271 270 270 270 270 271 271 271 271 271 271 271 270 270 270 270 269 269
278 278 277 276 274 274 274 273 273 273 272 272 273 273 273 273 273 273 273 272 272 271 270 270 270 269 270 270 270 269 270 270 269 269 269 269 269 269 269 269 269 269 269 268
275 274 273 273 273 273 273 273 273 273 273 273 274 274 274 274 274 273 273 272 272 271 271 270 270 269 269 270 270 269 269 269 269 269 268 268 268 268 268 268 268 268 267 267
275 274 274 274 274 273 273 273 273 273 273 273 273 273 273 274 274 274 274 274 273 272 271 271 271 270 270 269 269 269 269 269 269 269 268 268 267 268 268 268 268 267 267 267
274 274 274 274 274 273 273 273 273 274 274 274 274 274 274 274 275 274 274 273 273 272 272 271 271 271 271 270 270 269 269 269 269 269 268 268 268 268 267 267 267 267 267 267
275 274 274 274 273 274 274 275 274 274 275 276 276 276 276 275 274 275 274 274 273 273 273 272 272 272 272 271 271 270 270 270 269 268 268 268 268 268 268 267 267 267 266 266
275 274 275 275 276 276 277 277 278 278 278 277 276 277 276 275 275 275 274 274 274 273 273 272 272 272 272 272 271 271 271 270 270 269 269 268 268 268 267 267 267 266 266 266
276 276 276 276 277 278 279 279 278 278 277 277 276 275 273 273 273 274 274 273 273 273 272 271 271 271 270 270 270 270 270 270 269 269 269 269 268 268 267 267 267 267 266 266

GFSNGP_925_thetae_111.txt.gz
Theta_e
302 302 302 305 304 303 301 306 310 302 298 295 293 291 289 288 288 288 287 286 286 286 286 286 285 285 284 285 286 288 290 291 293 294 294 298 304 308 314 316 316 317 315 315
301 303 304 302 301 302 299 302 300 298 296 292 291 289 288 287 287 287 286 285 285 285 285 285 285 284 283 284 284 286 287 289 290 292 292 291 292 294 299 300 303 306 302 302
306 304 303 305 301 300 298 298 301 302 296 292 290 288 287 286 286 285 285 284 284 284 284 284 284 284 283 283 283 284 285 286 288 288 291 292 289 290 289 290 293 294 293 293
307 306 309 302 299 297 296 295 296 295 293 291 289 287 286 285 285 284 283 283 282 282 282 282 283 283 283 282 282 283 284 284 285 286 287 290 290 288 289 288 289 287 287 287
310 307 303 302 298 299 299 296 293 294 294 292 290 291 286 284 283 283 282 281 280 281 281 281 282 282 283 282 281 281 282 283 284 284 285 285 286 287 287 286 286 285 285 286
307 308 307 300 294 294 296 299 292 291 291 293 292 294 287 283 282 281 280 279 278 279 280 279 280 281 281 282 281 280 280 281 282 283 284 284 285 286 286 286 285 285 284 284
309 305 300 294 292 295 303 299 290 288 288 289 288 286 283 282 280 279 278 278 277 277 278 278 279 280 281 281 281 280 279 280 280 281 282 283 284 284 285 285 285 285 284 284
304 304 304 291 295 299 293 290 287 286 284 283 283 282 281 280 279 278 277 277 276 276 276 276 277 279 280 280 280 280 279 279 279 280 280 281 282 283 283 284 284 284 284 284
296 296 291 290 292 291 290 288 286 285 283 282 281 280 280 279 279 277 277 277 276 276 276 276 276 276 278 278 278 278 278 278 278 278 279 279 280 281 281 281 282 282 282 282
294 291 290 289 289 288 288 286 285 284 283 282 280 278 277 278 277 277 276 276 276 277 276 275 276 276 277 277 277 277 276 276 277 277 277 278 279 279 280 280 280 280 280 281
292 291 289 288 288 287 286 285 284 283 282 281 280 278 277 277 277 276 276 276 276 276 276 276 276 276 276 277 277 277 276 275 275 276 276 276 276 277 277 277 278 279 279 279
295 291 290 288 287 286 285 284 284 283 282 280 279 279 278 277 276 276 276 275 275 275 275 275 276 275 276 276 276 276 276 276 275 275 275 275 275 275 274 275 275 276 277 277
291 289 288 287 286 285 285 285 283 282 281 280 279 278 277 277 276 275 274 274 274 274 274 274 274 274 274 275 276 275 275 275 275 274 274 274 274 274 274 273 272 272 273 274
288 288 287 287 286 285 284 283 282 280 279 279 277 276 275 275 274 273 273 273 272 272 272 273 273 274 274 274 275 274 275 274 274 273 273 273 273 272 272 272 272 271 271 271
289 288 288 286 285 284 282 281 281 280 278 277 276 275 274 273 272 271 271 271 270 270 271 271 272 272 273 273 274 274 274 274 274 273 273 272 272 272 272 271 271 270 270 270
287 286 286 286 284 283 282 282 281 280 278 277 276 274 273 272 271 271 270 270 270 269 270 271 271 271 272 272 273 273 273 273 273 273 273 273 272 272 271 271 270 270 269 268
288 287 286 285 284 283 283 282 281 279 277 276 275 274 273 272 271 271 270 270 269 269 270 271 271 271 271 271 271 272 272 272 272 272 272 272 272 271 271 271 270 270 269 267
288 287 286 285 284 283 282 280 279 277 276 275 274 273 272 271 271 271 271 270 270 270 270 270 270 270 270 270 270 270 270 271 271 271 271 270 271 271 270 270 270 269 269 268
287 286 285 284 283 281 280 278 277 275 274 274 273 272 272 272 271 271 271 271 271 271 270 270 269 270 270 269 269 269 269 269 270 269 269 269 269 269 269 269 269 269 268 268
286 285 283 281 280 278 276 276 275 273 272 272 272 272 272 272 272 272 272 272 271 271 270 270 270 270 270 269 269 269 269 269 269 269 268 268 268 268 268 268 268 268 268 267
282 281 279 278 276 276 276 274 273 272 271 272 273 272 273 273 272 273 272 273 272 271 271 270 270 270 270 270 270 269 269 269 269 269 268 268 267 267 267 267 267 267 267 267
279 277 275 275 274 272 273 272 272 272 271 272 273 274 274 273 273 273 273 273 272 272 271 271 271 271 271 271 271 270 270 270 269 269 269 268 268 268 268 267 267 267 266 266
276 275 274 274 273 272 271 272 272 272 273 273 274 274 273 274 274 274 275 273 273 273 272 272 272 271 271 271 271 271 271 271 270 270 269 269 269 268 268 267 267 267 267 266
274 274 274 273 272 272 271 272 272 273 273 273 273 273 273 273 274 274 274 274 273 273 273 273 272 272 271 271 271 270 270 270 270 270 269 269 269 269 268 268 268 267 267 267
274 273 272 272 272 273 273 273 273 273 273 274 274 274 275 275 275 275 274 274 273 273 273 272 272 271 270 270 269 269 268 268 268 268 268 268 268 268 268 267 268 268 267 267
273 273 273 273 274 274 274 274 274 274 275 275 275 275 275 274 273 273 273 273 273 272 272 271 270 269 268 268 267 267 267 266 266 266 266 266 266 266 266 266 267 267 267 267
275 274 274 275 275 275 276 276 276 276 277 276 276 275 273 273 273 273 273 272 272 271 270 269 268 268 267 266 266 265 265 265 265 264 264 264 264 264 264 264 265 265 266 266

GFSNGP_925_thetae_114.txt.gz
Theta_e
304 303 303 305 306 306 306 305 308 308 303 297 294 293 292 291 291 290 290 288 288 287 287 286 286 285 284 284 285 287 288 290 291 292 292 292 293 296 298 303 303 304 307 305
305 306 306 307 303 305 303 301 302 301 298 295 293 292 292 290 289 289 288 287 287 286 286 286 286 285 285 284 284 285 286 287 288 290 290 291 290 291 291 292 293 295 296 295
310 305 306 307 303 302 301 300 303 307 298 295 293 291 289 289 289 288 287 286 285 286 285 285 285 286 285 285 284 284 285 285 286 287 289 288 289 289 288 288 289 288 289 290
308 308 312 303 300 300 299 298 299 298 296 294 291 289 288 287 287 286 285 285 284 284 284 283 285 285 286 286 285 284 284 285 285 286 286 287 287 287 287 286 286 286 286 286
310 309 305 303 301 301 303 299 296 297 296 294 292 293 289 286 285 284 283 282 282 282 282 282 283 284 285 284 284 283 283 283 284 285 286 286 286 286 286 285 285 285 284 284
308 309 310 304 298 297 299 304 295 295 296 295 294 299 291 285 284 283 281 281 280 280 280 280 281 283 282 282 282 282 282 282 283 284 285 285 285 286 286 286 285 285 284 284
309 312 305 297 296 297 306 303 294 295 295 296 294 292 286 284 282 281 281 280 279 279 278 278 279 280 281 280 280 280 280 281 282 282 283 284 284 284 285 285 285 286 285 284
308 310 308 294 297 302 296 293 292 292 290 289 287 285 284 283 282 281 280 280 278 278 278 278 278 279 279 279 278 279 280 280 280 281 281 282 283 283 283 284 284 285 285 285
301 301 293 293 295 294 293 292 291 290 288 286 286 285 284 283 282 281 280 280 279 278 278 277 278 278 279 278 278 278 279 279 280 280 280 280 280 281 281 282 282 283 283 284
299 294 293 292 292 292 292 291 289 288 286 286 284 283 283 283 282 281 280 279 279 279 279 278 278 278 278 278 279 279 278 279 279 279 280 278 279 279 278 279 280 280 280 280
294 293 292 291 290 290 289 288 287 286 285 284 283 282 282 282 281 280 279 279 279 279 279 278 278 278 278 278 278 279 279 279 279 279 279 279 277 276 277 275 276 278 278 279
303 295 295 292 289 289 288 287 286 286 284 283 282 282 281 281 280 280 279 279 279 278 278 278 278 277 278 278 278 278 279 279 278 278 278 278 278 278 275 274 274 274 275 275
295 293 292 290 289 288 288 287 286 286 284 284 282 282 281 280 278 277 277 277 277 277 277 277 276 276 276 277 277 277 277 277 278 278 278 277 277 277 277 277 275 273 272 272
292 291 289 289 288 288 287 286 285 285 284 283 281 280 279 278 277 277 276 275 275 275 275 275 275 274 275 276 275 276 277 276 277 276 276 277 276 276 276 276 276 275 274 272
291 291 291 290 288 287 287 285 285 284 282 281 279 278 277 276 275 274 274 273 273 274 273 274 273 273 273 274 275 275 275 275 276 276 276 276 276 276 275 275 275 274 273 272
290 291 290 289 288 287 286 286 285 283 281 280 278 277 276 275 275 274 273 272 273 272 272 271 272 271 271 272 275 275 276 273 275 275 275 275 275 275 275 275 275 274 273 270
290 290 289 288 288 287 287 286 284 282 281 280 278 276 276 275 274 273 273 272 270 270 271 271 271 270 271 271 273 274 275 274 273 275 274 274 274 274 274 274 273 273 273 270
291 290 289 289 288 287 286 284 283 281 280 278 276 275 274 275 275 273 271 271 270 270 270 270 270 271 271 271 272 273 273 273 273 273 273 272 272 273 273 273 272 272 272 271
289 289 288 287 286 285 284 282 280 279 276 274 274 274 273 272 273 272 271 271 272 274 271 270 270 271 271 270 271 272 272 272 272 272 272 271 272 272 272 271 271 271 271 271
288 287 286 286 285 283 282 279 276 275 274 274 273 272 273 272 272 272 272 274 274 274 271 271 271 271 271 271 271 272 272 272 272 272 272 271 271 271 271 271 270 270 270 270
287 285 284 281 280 278 277 275 274 272 272 273 274 274 274 273 272 272 273 277 274 272 272 271 272 272 272 271 272 273 273 273 272 272 272 272 271 271 271 271 270 270 270 269
284 282 280 278 277 275 274 274 273 272 272 272 273 273 273 274 273 273 274 275 275 272 272 273 273 272 272 271 272 272 272 272 272 272 272 272 271 271 271 270 270 270 269 269
283 280 278 277 276 274 272 272 272 273 272 273 273 274 276 277 277 277 278 275 274 274 273 274 273 272 272 271 272 272 272 271 271 271 271 271 271 271 270 270 270 270 269 269
280 278 277 275 272 273 273 272 273 273 273 274 274 274 275 276 277 276 276 275 274 273 274 273 272 271 271 272 271 271 271 271 270 270 270 270 270 270 270 269 269 269 269 269
278 276 274 274 276 277 276 274 275 274 274 275 275 274 274 275 276 276 275 275 273 273 274 272 271 270 271 270 270 269 269 269 269 268 269 268 268 269 268 269 268 268 268 268
278 278 277 277 279 278 277 276 278 278 277 278 278 277 276 275 275 274 274 273 273 272 272 271 269 269 269 269 268 268 267 267 267 267 266 266 266 266 266 266 266 267 267 267
279 278 278 278 278 278 278 278 280 279 279 279 279 277 276 275 274 274 273 273 272 271 270 269 268 266 265 265 266 265 265 265 264 264 264 264 264 263 263 263 263 264 264 265

GFSNGP_925_thetae_120.txt.gz
Theta_e
304 303 302 305 306 306 310 309 311 311 309 301 298 296 295 293 292 291 290 288 288 288 287 287 287 288 289 287 286 287 287 287 287 288 288 288 288 289 289 289 291 290 290 292
305 304 305 306 307 306 309 310 310 307 306 298 296 295 294 292 291 289 289 287 287 286 286 286 286 287 288 287 286 286 286 287 287 287 287 287 287 287 287 287 288 288 288 288
306 308 309 310 311 311 311 308 307 307 303 297 296 293 291 291 289 288 287 286 285 285 284 284 285 285 286 286 285 285 286 285 286 286 287 287 287 287 286 286 286 286 286 286
309 310 311 307 305 305 306 305 305 300 299 298 294 291 290 289 288 286 285 284 283 283 282 282 283 282 283 284 284 284 284 285 285 285 285 286 287 287 286 286 285 285 284 285
311 310 310 305 303 305 304 305 303 301 298 295 293 291 289 288 286 284 283 282 281 281 281 281 282 281 281 282 282 283 283 283 283 283 284 284 285 286 286 286 285 284 284 283
309 313 313 308 304 304 304 306 302 300 298 296 294 298 291 287 285 283 282 281 280 280 280 280 281 281 281 281 281 282 282 281 281 282 281 282 283 283 284 285 285 284 283 282
308 309 309 304 303 303 307 307 302 300 299 298 297 293 288 286 285 283 282 281 280 280 280 280 280 280 281 281 281 282 281 282 280 280 281 279 280 280 281 282 282 283 282 281
308 310 312 301 301 304 302 302 301 298 296 291 289 288 286 285 284 283 283 282 281 280 280 280 280 280 280 281 281 282 282 281 282 280 279 278 277 277 278 279 280 279 279 279
304 305 299 299 301 300 300 300 297 295 291 289 287 286 286 286 285 283 283 283 282 281 280 280 280 280 280 280 282 281 282 282 282 282 280 279 277 276 276 277 277 278 278 277
303 299 297 298 298 298 297 296 295 292 291 289 288 287 286 286 285 284 283 283 282 282 281 280 281 280 280 281 281 282 281 282 282 282 281 279 278 276 276 275 275 275 276 276
300 297 296 296 297 296 294 293 292 291 290 289 288 287 286 285 284 284 283 282 282 281 281 280 280 280 279 280 281 282 282 281 282 282 281 280 278 277 276 276 276 275 275 275
306 299 299 297 295 293 292 292 291 290 289 288 287 286 286 285 284 284 283 282 282 281 280 280 279 279 279 279 279 280 281 281 280 281 281 281 280 280 279 278 277 276 275 275
300 298 297 294 293 292 291 291 290 290 289 288 287 287 285 284 282 282 281 281 280 280 279 278 277 277 278 279 278 278 279 280 280 280 280 280 280 280 279 279 279 277 275 274
296 294 293 292 292 292 291 291 290 289 288 287 286 285 284 282 282 280 279 279 279 278 278 277 276 275 276 278 279 278 277 278 279 279 278 279 279 278 278 278 278 278 277 274
295 296 293 293 292 291 291 290 289 289 287 286 285 284 283 281 279 278 278 278 277 276 275 275 274 274 274 277 279 278 277 276 278 278 277 277 277 277 277 277 277 277 276 274
295 294 293 292 292 291 291 291 290 288 286 285 283 282 281 279 278 277 276 277 277 275 274 273 272 272 274 276 277 278 278 276 277 277 277 276 276 276 276 276 276 275 275 273
295 295 293 293 292 292 292 291 290 287 285 284 282 281 280 279 277 276 275 274 274 274 274 273 273 273 273 275 277 277 277 277 276 276 276 275 276 275 275 275 275 274 274 274
295 295 294 293 292 292 291 291 289 286 285 282 280 279 278 279 278 276 274 273 274 273 273 272 274 274 274 273 275 276 277 276 277 276 276 275 275 275 274 275 274 274 274 273
295 294 293 292 292 291 291 289 286 283 280 279 278 277 277 276 275 274 274 275 276 276 274 273 274 274 274 274 274 275 276 276 276 276 276 275 275 275 274 274 274 274 273 273
294 293 292 291 291 290 285 282 281 279 278 278 277 276 276 275 274 274 276 277 276 275 274 274 274 276 275 275 274 275 276 275 275 275 275 275 275 274 274 274 274 273 273 273
292 291 290 288 284 283 282 281 279 278 277 276 276 276 275 275 274 275 276 279 275 274 275 275 275 275 275 273 273 275 275 275 274 274 274 274 274 273 273 273 273 272 272 272
289 286 285 283 282 281 280 279 278 277 276 276 277 276 275 275 274 276 278 279 277 276 276 277 276 275 274 273 274 275 274 274 273 273 273 272 272 271 271 271 271 271 271 271
286 285 283 282 281 280 278 277 276 276 276 276 276 276 277 277 278 280 280 277 278 276 276 276 275 273 272 273 274 273 272 272 272 271 271 270 270 270 269 269 269 269 269 269
285 283 282 281 279 278 277 276 276 276 276 275 276 277 280 280 279 279 278 277 276 276 276 275 273 272 272 273 272 271 271 270 270 269 269 268 267 267 267 267 267 266 266 266
284 282 281 279 279 279 278 277 277 277 276 277 277 278 279 280 281 279 278 277 275 275 275 273 272 271 271 271 270 269 269 268 268 267 267 266 266 265 265 265 264 264 264 264
284 283 281 281 281 280 279 279 279 278 278 279 278 278 278 278 278 277 276 275 275 274 274 273 271 270 270 268 267 268 267 267 266 265 264 264 264 263 263 262 262 261 261 261
283 282 282 282 282 280 279 280 280 280 280 281 281 280 279 278 277 277 276 275 275 273 273 272 271 269 268 267 267 266 265 265 264 263 262 262 261 260 260 259 259 259 259 260

GFSNGP_925_thetae_123.txt.gz
Theta_e
302 304 303 303 302 303 304 306 306 302 305 300 299 296 294 292 291 289 288 286 286 286 284 284 284 284 285 284 284 285 285 285 286 287 287 287 287 286 287 287 287 288 288 288
296 303 304 304 303 304 302 304 303 302 303 298 296 294 292 291 289 288 287 285 285 284 283 283 283 282 283 283 283 283 284 283 284 285 286 286 286 286 285 285 285 286 286 287
301 305 309 305 302 303 304 306 307 308 302 297 295 293 291 290 288 286 285 284 283 282 281 281 282 281 281 282 282 282 282 282 281 283 283 284 285 286 284 284 284 284 285 285
303 304 309 301 304 305 306 306 301 299 298 296 293 290 289 288 286 285 284 282 281 281 281 280 281 281 281 281 281 281 280 281 281 280 281 282 283 284 285 283 282 282 282 283
304 307 306 305 303 305 304 305 302 300 297 293 291 289 288 286 284 283 282 281 280 280 280 280 280 280 280 281 281 281 280 279 280 278 279 279 280 281 281 282 281 280 280 281
307 310 312 306 304 303 304 304 303 299 295 293 291 297 289 286 283 282 281 280 280 280 280 280 280 280 281 280 281 281 281 280 279 278 277 277 278 279 280 278 279 278 278 278
305 307 307 304 303 304 305 302 300 298 295 293 293 291 286 285 283 281 281 280 280 280 280 280 280 281 281 281 281 282 281 281 279 278 277 276 276 276 277 278 277 277 277 277
306 309 309 301 301 304 300 299 299 297 295 291 287 285 284 283 282 283 282 280 280 280 280 279 280 280 280 281 281 282 281 281 280 279 278 277 276 276 275 275 276 276 276 276
304 301 298 299 299 300 298 296 294 292 289 287 284 284 283 283 283 282 282 281 280 280 281 280 279 280 280 281 282 281 282 281 281 280 278 277 276 276 276 275 275 275 275 275
299 297 298 298 298 297 296 294 291 289 287 286 284 284 283 283 283 282 282 282 281 280 280 279 279 279 279 280 281 281 280 281 280 280 279 278 277 276 276 275 275 275 275 275
298 296 296 296 296 294 293 292 290 288 287 285 285 284 283 282 282 282 282 282 281 280 279 278 279 279 278 279 279 280 280 279 280 280 279 279 278 278 277 277 276 275 275 276
296 295 295 293 293 293 292 291 290 288 287 286 285 284 284 283 283 282 282 281 280 279 278 277 277 278 278 278 278 278 279 279 278 279 279 278 278 278 278 277 277 276 275 276
296 295 293 293 291 292 291 291 290 288 287 286 286 285 285 283 282 281 280 280 279 278 277 276 276 277 278 278 277 277 278 278 278 277 277 277 277 277 277 276 277 276 274 274
293 293 293 292 291 291 291 291 290 289 287 286 286 283 281 281 280 279 278 278 277 276 275 274 274 276 277 278 278 277 277 277 277 276 276 276 276 276 275 275 275 275 273 273
292 294 292 292 291 291 291 290 289 288 287 285 283 282 281 279 278 278 277 277 276 275 274 273 274 275 277 278 278 277 276 276 276 276 275 275 275 275 275 275 274 274 273 273
294 292 292 292 292 291 291 289 288 286 284 283 282 280 279 278 277 277 277 276 275 273 273 273 273 274 276 277 277 277 277 276 276 276 275 275 275 274 275 274 274 274 273 273
293 292 292 292 291 291 290 289 287 285 283 282 281 279 278 276 275 274 275 275 274 274 273 274 274 273 275 276 276 276 276 276 276 276 275 275 275 275 274 274 274 273 273 273
292 292 291 291 291 291 290 289 287 285 283 281 280 279 277 276 275 274 274 274 273 272 273 274 274 274 274 275 276 276 276 275 275 275 275 274 275 274 274 274 274 274 273 273
294 292 292 292 291 291 290 288 284 282 281 280 279 278 278 277 276 274 274 274 274 274 273 274 274 274 274 274 275 276 275 275 275 274 274 274 274 273 273 273 273 272 272 272
291 292 292 291 291 288 283 282 281 279 279 279 278 277 276 275 274 274 275 276 276 276 274 275 275 275 275 274 274 275 274 274 274 273 273 273 272 271 271 271 271 271 271 271
288 290 288 285 283 282 282 281 281 278 277 278 277 276 275 275 274 276 276 275 274 275 275 275 275 275 274 273 274 274 274 273 272 272 272 271 270 270 270 269 269 269 269 269
287 285 283 283 282 280 280 281 281 278 277 277 276 276 275 274 274 275 277 278 276 275 275 275 275 274 273 274 274 273 272 271 271 270 269 269 268 267 268 267 267 267 266 266
285 284 283 282 281 279 279 279 278 278 276 276 276 276 275 275 275 276 276 277 277 276 276 276 274 273 272 273 272 271 270 270 269 268 268 267 266 266 266 265 265 264 264 264
283 282 281 281 279 278 277 276 277 276 277 277 276 276 277 276 278 280 278 277 276 276 275 274 273 272 272 271 270 269 269 268 267 267 266 265 265 264 264 263 262 262 262 262
282 281 280 279 278 278 277 276 276 276 276 276 276 279 279 280 279 278 277 276 275 275 274 273 272 271 270 269 268 268 267 266 265 265 264 263 263 262 262 261 260 260 259 259
282 281 279 280 279 278 277 277 276 276 277 277 277 278 278 279 278 277 276 275 274 274 273 271 270 270 269 267 267 266 265 265 264 263 262 261 261 260 260 259 258 258 258 258
283 281 280 281 280 278 278 278 278 277 278 277 277 278 278 278 277 276 275 275 274 273 272 271 270 269 267 266 266 265 264 263 262 261 260 260 259 259 258 257 256 256 257 257

GFSNGP_925_thetae_126.txt.gz
Theta_e
301 303 303 302 302 302 301 303 307 300 302 298 299 296 294 291 290 289 287 286 284 283 283 282 282 282 282 282 282 281 282 281 281 282 284 285 284 283 284 283 284 286 287 287
293 302 303 302 302 301 302 302 300 299 303 297 295 292 292 291 289 288 286 284 283 282 282 281 281 281 281 281 281 280 280 280 280 280 282 282 284 283 282 282 282 282 284 285
298 303 305 306 303 301 299 301 302 303 302 295 295 294 291 289 288 286 284 283 282 282 281 281 281 281 281 281 281 280 279 279 278 279 279 280 280 281 280 280 280 281 281 283
303 301 306 301 303 303 304 304 301 299 297 296 295 290 289 288 286 285 283 282 281 281 280 280 280 280 280 281 281 280 279 279 278 277 278 278 279 278 278 278 278 278 280 281
301 305 304 305 303 304 303 303 300 298 296 292 290 288 287 285 284 282 281 280 280 280 280 280 281 280 280 280 281 280 279 279 278 277 276 276 277 278 277 277 277 277 278 280
304 307 308 304 305 303 303 300 299 298 294 292 290 294 289 284 282 281 280 280 280 280 280 280 281 281 281 281 281 280 279 278 278 277 276 276 276 276 276 276 276 276 277 278
304 306 305 304 302 302 301 300 299 295 293 291 291 292 286 284 281 280 280 280 280 280 280 280 281 281 281 281 281 281 280 279 278 277 276 276 276 275 275 276 276 276 276 277
306 306 305 300 301 303 299 297 297 295 293 290 285 284 283 282 281 280 280 280 280 279 279 279 280 281 280 280 281 280 280 280 279 278 277 276 276 275 275 275 276 276 276 276
302 302 297 298 299 298 297 296 295 294 291 286 284 283 282 282 282 281 280 280 280 280 279 279 279 280 279 280 280 280 280 279 279 279 278 277 276 276 275 275 275 276 276 276
301 298 297 298 296 296 295 292 291 291 288 286 284 283 282 283 282 282 281 280 279 279 278 278 278 279 279 280 280 279 279 279 278 278 278 277 276 276 276 275 275 275 276 276
297 294 296 295 294 292 290 288 288 288 287 285 284 283 282 282 282 281 281 281 279 278 278 278 278 278 278 279 279 279 278 278 278 277 277 277 278 277 276 276 275 275 276 275
298 295 295 290 291 290 289 288 287 286 285 285 284 283 283 282 282 281 281 279 278 277 277 277 278 278 277 277 278 278 277 276 276 276 276 276 276 275 276 275 275 274 275 275
295 294 292 291 290 290 289 288 287 286 286 285 284 284 283 282 282 281 279 278 277 276 276 277 277 278 277 276 277 277 276 276 275 275 275 275 274 274 274 274 273 273 273 274
292 292 293 291 291 290 289 289 288 287 286 285 285 284 283 281 280 278 277 277 277 275 275 276 277 277 278 277 276 276 276 275 275 275 275 274 274 274 274 273 273 272 272 272
292 293 292 290 290 290 290 289 288 287 286 285 283 281 280 279 278 277 277 276 275 274 274 275 276 276 277 277 277 276 276 276 275 274 275 275 274 274 274 274 273 273 272 272
292 291 290 290 291 291 291 290 288 287 286 283 281 280 278 278 277 277 277 275 274 273 273 275 276 276 276 276 276 276 276 276 275 275 274 275 275 274 274 274 273 273 273 272
291 291 291 291 291 291 291 289 288 286 283 282 280 278 277 277 277 276 276 275 274 273 273 274 274 275 276 276 276 275 275 275 275 275 274 274 274 274 273 273 273 273 273 273
291 290 290 290 291 291 289 288 286 283 283 281 279 277 276 276 275 275 275 274 273 273 274 274 274 274 275 275 276 275 275 274 274 274 273 273 273 272 272 272 272 272 272 271
291 290 290 290 291 290 289 287 284 282 280 279 278 276 276 276 275 274 274 273 272 273 274 274 274 274 274 274 275 275 274 274 273 273 272 272 271 271 270 270 270 270 269 270
290 290 290 290 290 290 286 284 283 281 280 279 277 276 275 275 274 273 274 274 275 274 274 275 274 274 274 273 275 274 274 273 272 272 271 270 270 269 268 268 268 268 267 267
289 290 289 287 285 284 283 283 281 279 278 278 277 276 276 275 274 274 274 274 276 274 275 274 275 274 274 274 274 273 272 272 271 270 269 268 268 267 267 266 266 265 265 265
287 285 284 283 282 281 281 281 281 279 278 277 277 277 276 274 274 275 276 275 274 275 275 274 274 274 273 273 273 272 271 270 269 268 267 267 266 265 265 264 263 263 263 263
284 283 283 282 281 280 280 280 280 280 278 277 276 276 275 274 275 275 276 277 275 275 275 275 274 272 273 272 271 270 269 268 268 267 266 265 264 264 263 262 261 261 261 260
283 282 281 281 280 279 278 277 278 278 277 277 276 276 275 274 275 277 278 277 276 276 275 274 272 272 272 271 270 269 268 267 266 265 264 263 263 262 261 261 260 259 259 259
282 281 280 279 279 279 278 277 277 276 276 276 276 276 276 275 277 278 277 277 276 275 274 272 272 270 270 269 268 267 266 265 264 263 263 262 261 260 259 259 258 258 257 258
281 280 280 280 279 278 277 277 277 276 276 276 276 278 279 278 278 277 277 276 275 274 273 271 271 270 269 267 266 266 265 264 263 262 261 260 259 259 258 258 257 257 256 256
282 280 280 280 279 278 277 277 276 276 276 276 277 278 279 279 278 277 275 275 274 273 272 270 269 268 267 266 265 264 263 262 261 260 260 259 258 258 257 257 256 255 255 255